GFSSE_925_thetae_000.txt.gz
Theta_e
337 336 337 344 345 339 339 338 337 333 331 330 326 333 333 334 334 331 329 328 328 328 328 329 331 335 335 334 333 332 331 329 330 330 328 326 329 332 332 328 329 330 329
336 336 341 344 343 339 340 340 336 333 331 332 330 328 330 329 328 328 328 330 329 328 328 330 330 331 333 333 330 328 329 328 328 326 324 322 323 328 329 327 327 332 330
336 336 344 343 340 340 341 338 335 333 332 332 331 329 329 330 329 330 328 329 328 328 328 329 329 330 331 330 331 329 327 327 328 327 321 324 326 327 329 328 326 330 334
336 336 340 342 342 340 339 335 334 334 334 332 330 330 330 332 330 330 329 328 328 329 328 326 325 327 329 328 329 329 327 326 327 325 323 324 326 326 329 327 327 330 332
336 337 340 344 340 337 337 334 334 334 336 334 330 330 332 334 332 330 328 329 327 327 328 327 326 328 328 328 327 329 327 327 327 323 323 324 327 327 327 329 327 327 331
337 338 341 341 336 337 337 337 335 333 333 335 333 331 332 334 333 330 330 328 327 326 327 327 327 326 327 328 328 329 327 327 327 326 322 323 326 327 327 327 328 327 328
337 339 339 337 335 339 337 336 334 333 331 333 333 332 332 334 334 333 330 329 328 328 328 328 328 328 327 327 326 327 326 325 325 327 324 321 324 326 328 328 327 327 327
338 340 338 336 338 338 334 335 333 333 332 332 333 332 330 332 335 332 333 330 328 328 329 326 325 329 328 329 328 327 326 324 324 325 325 323 321 325 327 328 326 328 327
339 340 339 339 342 335 336 335 334 334 333 332 331 331 331 329 330 332 331 329 329 328 327 327 327 327 330 327 328 328 326 324 324 323 324 324 321 321 325 327 328 328 329
339 340 340 340 341 341 341 337 335 334 333 333 331 329 327 327 329 330 329 329 328 327 326 328 327 327 326 327 325 324 323 322 323 323 323 323 324 324 323 324 327 328 328
338 339 340 340 341 341 340 339 336 335 333 333 332 330 326 328 330 329 329 327 325 324 325 327 328 327 326 324 325 325 324 324 322 321 321 320 322 324 325 324 324 327 328
335 337 339 340 340 340 340 339 338 337 335 334 333 331 329 328 329 329 328 326 325 325 325 325 324 324 324 327 327 326 326 325 324 323 321 320 321 322 322 325 325 324 326
330 333 337 339 340 340 340 339 338 336 335 334 333 332 330 329 328 329 329 329 329 329 329 328 328 328 327 327 327 327 327 326 325 325 323 321 320 323 323 322 324 325 324
329 329 332 336 339 340 339 339 338 337 335 334 334 333 332 331 330 330 329 330 330 329 330 330 329 329 329 328 328 327 327 327 327 326 325 323 322 322 323 324 322 322 324
330 330 330 331 335 337 339 339 338 337 335 334 334 333 333 332 332 331 331 331 331 331 331 331 331 330 330 330 329 329 329 329 328 328 327 326 324 323 324 324 325 324 322
326 325 326 328 331 334 337 337 337 336 335 335 334 333 333 332 332 332 332 332 332 332 331 331 331 330 330 330 330 330 330 329 329 329 328 328 326 325 325 325 326 326 326
322 322 323 323 326 331 334 336 336 335 334 334 334 333 332 332 332 332 332 332 332 331 331 331 330 330 330 330 330 329 329 329 329 329 329 328 328 326 325 325 326 328 328
321 322 323 322 324 329 332 333 333 333 332 332 331 331 331 330 330 331 331 332 331 330 329 329 328 327 328 327 328 328 328 328 328 328 327 327 327 327 326 324 323 324 328
320 323 323 324 327 329 330 330 330 329 330 330 330 330 330 329 329 329 328 325 324 324 324 324 324 324 324 324 324 324 324 325 326 327 328 327 326 326 326 325 324 323 322
321 324 325 327 328 328 329 330 330 330 328 325 321 320 319 316 316 317 315 314 315 315 314 314 315 315 316 318 318 319 321 321 323 325 326 326 328 327 327 327 326 326 324
319 322 325 328 329 330 331 329 325 320 317 315 313 312 311 310 310 310 310 310 310 310 310 310 310 311 311 312 312 313 313 316 319 318 324 321 320 323 326 326 327 326 326
317 318 320 323 326 328 328 323 319 317 315 313 311 310 309 307 307 307 307 307 307 307 308 308 308 308 308 308 310 311 313 314 313 313 312 314 316 316 321 325 326 326 326
316 316 316 318 318 317 317 316 316 315 314 312 310 308 306 305 303 303 303 303 303 304 304 304 303 304 305 305 306 308 311 312 313 310 310 311 313 312 313 316 318 317 318
315 315 315 315 315 315 315 315 314 313 311 309 307 306 304 302 299 298 299 299 299 300 300 300 300 301 302 303 303 304 305 306 310 311 308 308 308 310 310 311 312 312 312
314 314 313 312 312 311 311 311 310 309 307 306 304 303 301 300 297 295 296 296 296 297 297 297 297 299 300 300 300 302 303 304 304 307 308 306 304 304 304 305 307 310 311
313 313 311 310 309 309 308 307 307 305 304 303 301 299 298 297 296 294 294 294 295 294 294 295 295 298 298 297 298 299 301 301 302 301 302 303 304 302 301 303 305 308 309

GFSSE_925_thetae_003.txt.gz
Theta_e
338 341 341 345 343 339 342 340 338 333 331 328 327 333 334 336 333 331 333 330 329 328 329 331 333 336 336 334 333 331 330 330 328 326 326 326 326 329 331 331 329 331 330
337 340 337 345 344 343 342 339 337 332 330 328 329 330 330 330 329 328 328 331 328 328 329 331 331 332 333 334 331 330 328 329 329 328 325 322 322 324 330 329 327 332 334
335 340 342 343 341 338 341 339 336 332 331 329 330 329 328 330 329 327 329 330 329 328 329 328 329 329 330 332 330 330 329 326 327 328 324 323 325 328 328 329 328 330 335
335 339 343 341 339 339 340 336 334 334 333 330 330 330 331 332 331 330 329 328 329 327 328 328 323 327 327 330 330 330 329 326 326 325 324 325 325 327 327 329 328 329 332
335 337 343 340 341 339 337 334 333 333 334 333 330 330 333 333 334 332 330 329 328 326 328 327 326 326 328 328 329 329 329 327 328 327 325 324 325 327 328 328 329 327 328
336 338 344 342 341 335 336 335 333 332 332 334 333 332 331 334 335 333 330 329 328 328 328 328 328 328 327 326 327 328 327 327 327 327 327 323 323 326 328 328 327 328 327
336 339 341 342 339 335 336 335 334 333 330 331 332 332 333 335 336 336 333 330 329 328 328 328 328 329 329 328 328 328 327 326 325 324 326 326 322 323 326 328 328 328 329
337 340 340 337 335 335 336 333 333 332 331 330 329 331 332 331 333 335 335 331 328 327 328 326 328 328 331 330 330 330 328 325 324 323 324 326 325 323 324 327 327 328 327
338 340 339 339 339 336 334 336 335 333 333 331 332 330 332 329 330 331 331 330 328 328 330 329 327 328 328 329 331 330 325 323 325 324 324 324 325 325 324 324 327 329 328
339 340 340 339 340 340 339 335 334 334 333 332 332 330 326 326 326 329 329 330 330 328 325 325 328 328 328 328 326 325 324 324 325 325 324 324 323 325 326 325 325 326 328
338 339 340 339 340 340 339 340 335 333 333 333 333 331 329 328 330 330 329 327 323 323 323 325 329 329 326 323 325 326 326 327 326 325 323 322 321 323 325 326 326 326 326
336 338 339 340 340 340 339 338 337 337 336 335 333 333 331 328 329 330 327 328 327 328 328 328 328 328 328 329 328 328 328 328 327 327 326 325 322 323 324 325 325 326 326
333 335 338 340 340 340 340 338 337 336 335 334 333 333 332 331 330 331 331 331 331 331 331 331 331 331 330 330 329 329 328 328 328 328 327 326 325 325 325 326 327 325 325
331 332 335 337 340 340 340 339 337 336 335 334 333 333 333 332 332 332 332 333 333 333 333 333 333 333 332 332 331 331 330 330 329 329 329 328 327 327 327 327 329 328 326
331 331 332 334 337 339 340 339 338 336 335 334 335 335 334 334 334 334 334 334 334 334 334 333 333 333 333 332 332 332 331 331 331 331 331 331 330 329 328 328 328 330 330
331 330 331 332 333 336 338 338 338 337 336 335 335 335 335 334 334 335 335 335 334 333 333 332 332 331 331 331 330 331 330 331 331 331 331 331 330 330 329 328 329 329 332
325 325 325 326 329 333 337 337 337 336 335 335 335 334 334 334 334 334 334 333 332 331 331 330 329 328 327 327 327 327 327 328 329 328 329 329 330 330 329 329 328 329 329
323 325 326 324 325 331 335 336 336 335 334 333 332 333 332 332 332 333 331 328 325 325 324 322 320 320 321 321 322 324 324 324 324 325 326 327 328 328 328 328 328 327 327
324 325 327 329 329 331 334 334 333 332 332 332 331 330 325 323 323 322 318 315 315 315 315 314 314 314 315 315 317 317 316 319 321 321 322 325 326 327 328 329 328 328 327
326 327 329 330 330 331 332 332 332 328 322 318 316 315 314 313 313 313 312 312 311 312 312 312 312 312 312 313 313 313 315 314 315 317 322 319 317 317 318 319 327 329 328
326 328 330 330 331 332 333 329 324 320 318 316 313 312 311 309 309 309 309 309 309 309 309 308 307 307 308 308 309 310 310 312 311 313 311 311 314 316 315 317 320 325 325
322 325 326 329 330 328 324 323 320 318 315 313 311 309 308 306 305 305 305 305 304 305 304 304 303 304 304 304 306 307 310 309 309 308 309 310 310 313 312 315 316 316 317
319 320 321 321 320 320 320 319 317 316 314 312 310 308 306 304 301 301 301 301 301 301 301 301 300 301 303 303 303 304 307 307 308 308 306 308 306 306 309 308 309 310 310
318 318 318 318 318 318 317 316 315 313 310 309 308 307 305 302 299 298 298 299 299 299 299 299 299 300 301 301 301 301 302 303 305 305 304 304 304 304 303 306 304 304 304
317 316 315 314 314 313 313 312 311 310 309 307 306 304 302 301 298 297 297 297 297 297 297 297 297 298 300 299 298 299 300 302 301 302 301 301 301 301 302 301 303 302 304
316 315 313 312 311 311 310 310 309 308 307 305 303 302 300 299 298 296 295 295 296 295 295 295 295 296 298 297 297 297 297 299 300 299 299 300 300 301 302 300 302 303 303

GFSSE_925_thetae_006.txt.gz
Theta_e
340 338 342 346 340 340 343 339 337 334 331 328 331 333 337 336 332 331 332 332 328 328 330 333 335 335 336 336 336 333 330 328 328 328 325 324 322 324 331 331 325 330 331
340 338 343 344 342 344 343 339 336 333 329 329 329 332 331 330 330 329 330 330 328 327 329 331 332 332 333 334 333 331 328 328 328 327 325 323 322 322 328 329 328 329 335
339 340 340 342 339 340 340 338 335 332 330 331 329 328 328 329 329 328 330 330 328 328 328 328 328 329 329 332 330 329 329 328 325 325 322 322 324 325 329 328 327 329 332
339 341 342 342 338 337 339 337 335 335 333 331 330 330 329 331 330 328 328 328 328 327 328 327 326 327 327 328 330 330 330 328 326 326 325 324 324 330 329 329 328 328 330
336 342 344 337 337 339 337 332 333 335 332 331 329 329 332 332 335 332 329 328 328 327 325 327 327 325 325 327 327 329 329 328 327 326 327 325 323 326 330 329 328 329 328
336 342 343 340 340 337 336 335 332 331 332 334 331 327 332 335 335 336 330 329 328 328 327 328 328 329 329 328 327 326 326 328 327 325 324 326 323 323 326 329 329 328 328
338 343 341 341 340 334 335 336 333 332 330 331 331 328 333 334 333 335 333 330 328 327 327 327 327 328 330 331 330 330 328 322 319 320 323 325 326 324 324 327 328 328 328
338 341 337 342 337 333 335 333 332 332 331 330 329 327 332 331 333 334 334 332 329 327 330 328 327 328 329 331 332 331 330 327 324 324 323 323 324 327 325 324 327 327 329
338 340 340 336 333 334 334 335 335 333 333 332 333 329 327 327 329 330 331 329 328 327 326 328 329 328 327 329 329 330 329 325 324 322 322 323 324 326 327 327 325 326 328
339 340 339 340 339 334 334 335 334 333 333 332 332 330 327 323 326 327 328 329 330 330 325 321 323 328 329 325 325 322 322 324 324 323 325 324 324 325 326 327 327 326 326
338 339 340 340 341 340 340 338 334 332 332 332 332 329 329 326 330 331 330 329 326 322 322 323 324 325 327 327 326 328 327 326 327 326 326 325 323 324 325 326 327 327 327
338 339 340 339 340 340 339 340 338 336 336 334 334 333 332 329 329 330 329 329 330 330 330 330 330 331 330 330 329 329 328 328 329 328 327 327 326 327 326 326 327 327 328
335 337 339 340 340 340 339 338 338 337 336 335 333 332 332 331 330 331 331 331 332 332 332 332 332 332 332 331 331 331 330 329 329 329 328 328 328 329 329 329 328 329 329
332 335 337 339 340 340 340 339 338 336 335 334 333 333 332 332 332 333 333 333 333 333 333 333 333 333 333 332 332 331 331 331 331 331 331 330 330 330 331 331 330 330 331
331 332 334 336 339 340 340 339 338 336 335 334 334 334 334 334 334 334 334 335 334 333 333 332 331 331 330 330 330 329 328 329 330 330 330 330 331 331 331 331 332 332 332
331 332 332 333 336 338 339 339 338 337 335 335 334 335 334 334 334 334 333 333 332 331 330 329 327 326 326 325 325 325 326 325 325 325 326 327 327 328 329 330 330 332 332
326 326 326 328 332 336 338 338 337 336 335 335 334 334 333 333 333 332 331 326 323 323 321 320 315 315 316 316 316 319 321 322 320 322 323 323 324 325 328 328 328 328 328
324 326 326 325 327 333 337 337 336 335 334 333 332 332 331 329 328 325 318 315 314 314 313 313 312 313 313 313 314 313 313 313 315 316 315 317 319 317 319 323 327 326 328
325 326 328 326 328 333 336 334 333 332 331 326 320 318 316 316 314 313 312 311 311 311 311 310 309 309 308 308 309 307 310 311 309 311 312 308 308 310 313 314 315 316 321
327 329 330 331 332 334 333 331 326 320 316 315 313 311 310 309 310 310 309 308 307 308 306 305 304 303 304 304 304 306 304 307 305 307 306 305 308 307 309 311 310 315 312
329 330 331 331 332 332 332 322 319 316 314 312 309 308 307 307 306 305 304 303 303 304 302 301 301 301 303 302 303 302 304 304 305 303 302 307 304 306 305 304 308 306 305
328 330 331 329 328 327 324 321 318 314 312 309 308 306 304 302 301 301 300 300 300 301 299 299 299 300 301 301 301 301 301 301 302 302 304 301 304 301 302 301 301 301 304
322 322 324 325 322 321 319 317 314 313 310 309 308 306 303 301 299 298 298 299 298 299 298 298 298 299 300 300 299 299 299 300 299 302 300 301 299 301 299 299 299 301 300
320 320 320 320 319 319 318 316 313 310 309 308 306 305 302 300 298 297 297 297 297 297 296 296 296 296 298 299 299 298 297 298 298 299 300 298 297 298 298 299 298 299 299
317 316 315 315 314 313 312 311 310 309 307 306 304 302 300 299 297 296 295 295 295 295 294 294 294 295 296 297 297 296 296 296 295 295 297 296 296 296 297 297 298 297 295
315 313 312 312 311 311 311 310 309 308 306 303 301 300 299 298 296 295 294 294 294 293 293 293 293 293 293 295 294 294 295 294 294 294 295 295 295 295 296 295 296 293 294

GFSSE_925_thetae_009.txt.gz
Theta_e
341 341 344 345 342 341 338 340 335 334 330 330 333 337 338 334 332 332 333 331 329 328 329 333 335 336 336 336 335 334 331 327 327 325 325 323 321 323 331 329 329 328 332
339 340 343 342 341 339 341 339 334 332 330 329 331 332 331 331 329 330 331 330 328 328 328 330 331 331 333 333 333 331 330 327 326 324 322 321 319 325 328 328 325 327 332
338 339 342 340 337 337 339 337 333 331 330 329 328 329 329 329 329 331 330 329 327 327 328 328 327 329 329 331 331 329 328 328 327 325 325 322 324 324 329 330 326 325 330
338 334 340 338 341 337 337 336 332 332 331 329 329 329 328 328 328 328 328 328 327 326 325 327 326 324 326 326 326 328 330 329 326 325 325 325 324 328 331 330 330 328 329
341 335 341 342 335 336 339 331 331 334 331 329 328 329 331 330 331 331 328 327 327 327 325 324 325 324 322 320 323 327 329 328 329 326 325 325 324 323 331 330 329 328 329
342 343 338 335 339 338 334 332 331 334 333 330 325 327 332 335 333 334 329 327 328 327 326 325 326 327 328 328 329 328 326 325 326 325 323 324 325 323 324 328 329 329 329
341 344 340 338 338 337 335 334 332 331 331 329 326 326 333 331 332 334 332 329 329 326 326 326 327 327 329 330 332 331 330 328 325 321 320 321 324 325 326 325 328 329 329
340 342 340 341 339 334 335 334 332 331 331 330 326 328 331 329 331 334 334 332 329 328 328 330 329 329 328 329 330 332 331 329 326 324 321 322 323 323 328 327 326 327 329
340 340 335 342 339 332 335 333 333 332 332 331 330 328 325 327 328 330 332 330 328 327 327 327 330 330 329 328 328 329 326 325 324 323 323 321 320 323 327 329 329 328 327
339 339 338 334 332 333 332 334 335 334 333 333 331 330 325 321 327 326 327 328 328 329 326 321 321 323 324 326 326 325 322 324 325 326 326 325 325 324 327 328 328 329 329
339 339 339 338 337 332 333 334 334 332 333 332 330 328 323 323 328 331 330 329 327 327 329 329 330 330 330 330 329 329 328 328 328 328 328 327 326 326 328 327 326 328 329
338 339 339 339 340 340 339 338 336 333 332 330 331 332 331 329 330 330 329 330 331 332 332 332 332 332 332 332 332 331 331 331 330 329 329 328 328 329 330 330 329 328 329
337 338 339 339 340 340 340 339 338 336 335 335 334 332 331 330 329 330 331 331 332 332 333 333 333 333 332 331 331 331 331 330 330 330 329 329 330 330 331 331 331 331 330
335 337 339 339 340 340 339 337 338 336 335 334 333 332 332 332 331 332 333 333 333 333 333 332 331 330 329 328 327 326 326 326 326 327 326 327 327 328 331 331 330 330 331
334 336 337 339 339 340 339 339 338 335 335 334 333 333 333 333 332 333 333 334 333 331 329 327 322 321 320 320 320 319 319 322 323 322 320 321 322 323 323 325 328 329 330
331 335 337 337 339 340 339 339 337 336 334 334 333 333 333 334 334 332 332 326 322 320 318 316 315 314 314 314 313 314 313 314 314 314 315 314 314 317 318 321 328 328 329
329 331 331 333 336 339 339 338 337 336 334 334 333 333 331 332 332 325 317 314 314 314 314 313 311 311 311 308 309 310 310 309 311 309 311 310 307 308 309 312 316 318 322
325 326 326 329 334 337 338 338 336 335 334 332 331 330 326 320 317 317 314 312 311 312 311 309 307 306 304 305 304 304 306 305 306 308 306 303 307 305 306 307 306 313 311
325 325 325 325 331 337 337 335 333 332 329 323 322 320 314 313 312 311 310 308 308 308 306 303 301 300 303 301 302 301 299 304 302 304 300 303 305 302 304 302 304 301 302
326 327 327 325 333 335 333 330 325 320 318 316 313 311 310 309 309 308 306 303 303 303 300 299 298 298 300 300 301 298 300 305 300 300 297 303 300 303 300 300 299 297 297
328 330 329 333 332 331 326 320 317 311 311 310 308 307 307 306 303 302 302 300 300 299 298 299 297 298 298 299 300 298 300 300 299 296 299 302 299 300 297 296 296 296 299
329 330 332 332 331 328 324 320 316 311 309 307 306 304 303 302 301 301 300 298 298 298 296 297 296 297 299 298 298 298 297 298 299 296 296 296 299 296 298 296 296 298 297
326 326 328 329 325 321 319 316 312 309 307 306 305 303 302 301 299 298 298 297 297 296 295 295 295 295 296 296 296 297 295 296 295 298 294 296 294 296 295 296 296 296 297
321 322 323 322 321 319 317 313 310 309 308 307 305 302 300 299 298 297 296 296 295 294 294 293 293 293 293 294 295 295 295 295 294 293 295 293 295 294 294 295 294 296 294
319 319 319 319 317 316 314 312 310 308 307 305 302 301 299 298 297 295 294 294 294 293 293 292 292 292 292 292 294 293 293 293 293 292 292 292 293 293 293 294 294 293 293
314 313 313 313 312 314 313 310 308 307 305 302 300 299 297 296 295 294 293 292 292 292 292 292 291 291 291 291 291 292 292 292 291 292 291 291 292 292 292 293 292 292 292

GFSSE_925_thetae_012.txt.gz
Theta_e
340 343 344 342 341 339 339 339 335 332 330 333 334 336 336 335 334 333 333 331 329 328 329 333 335 336 336 337 336 334 331 328 326 326 322 323 322 326 330 329 330 327 332
339 344 344 344 343 340 340 339 334 331 329 331 332 338 333 330 329 329 330 330 328 328 327 329 331 331 333 334 333 332 330 327 326 325 323 320 320 321 329 330 325 324 331
338 343 342 341 342 339 342 338 333 330 330 329 330 331 330 329 329 330 329 328 327 326 326 326 327 328 328 329 331 331 331 328 327 325 324 322 324 325 325 331 328 325 328
336 342 340 338 338 338 339 335 332 331 331 329 328 327 328 327 329 328 328 327 325 326 324 324 323 320 324 325 327 327 327 330 327 326 324 326 325 327 330 331 331 329 328
334 338 339 338 339 341 337 334 330 331 332 329 329 330 329 330 330 329 327 327 327 327 324 322 324 325 326 323 325 325 327 328 328 325 324 325 325 323 330 331 330 330 329
335 337 338 340 341 339 338 332 332 333 332 330 327 329 332 331 331 332 329 326 327 326 325 325 325 327 328 329 330 329 329 328 324 322 320 319 321 325 326 327 329 330 329
338 338 341 339 336 339 334 332 333 335 334 330 329 328 332 330 331 333 333 329 328 326 326 326 329 328 328 329 331 332 331 330 328 326 323 321 320 322 328 328 327 327 329
341 340 338 336 339 337 335 333 333 334 334 331 330 331 332 329 331 333 334 331 330 327 328 330 330 331 330 329 329 330 330 328 326 325 324 323 321 320 327 328 329 328 328
341 342 339 339 338 336 334 334 332 334 332 330 328 326 329 328 328 331 333 332 329 327 328 327 324 325 326 326 326 324 323 322 324 325 326 326 324 324 327 328 329 329 330
341 341 339 340 339 335 334 333 333 333 332 331 331 329 325 321 326 327 327 328 328 328 324 323 327 330 330 329 329 328 328 328 328 328 328 328 327 327 330 331 330 330 330
341 339 337 337 340 332 333 333 334 334 332 333 330 328 325 320 326 329 329 328 328 330 330 331 331 331 331 332 331 331 331 330 329 330 329 329 329 328 331 332 330 330 329
340 340 339 336 333 332 332 333 335 333 332 331 329 330 328 328 329 329 329 329 330 332 332 332 332 332 332 330 329 329 330 329 329 329 329 328 329 329 332 333 331 331 332
338 339 339 338 338 337 335 336 335 334 333 332 331 331 330 328 329 330 330 330 331 332 332 332 331 331 329 327 325 323 322 322 325 325 323 321 323 328 330 330 330 330 330
335 337 338 339 339 339 339 339 338 335 335 334 333 332 331 331 331 331 331 332 332 332 330 327 325 320 321 320 318 317 317 317 318 316 314 315 316 318 323 325 327 328 330
331 336 338 339 339 340 339 338 337 336 335 334 333 331 331 333 331 332 332 330 327 325 319 319 319 318 317 316 314 313 313 312 312 312 312 312 312 312 312 318 320 323 328
326 333 337 339 339 339 338 338 337 336 335 333 332 332 331 332 333 330 326 318 316 316 316 315 313 311 310 309 307 308 308 307 306 309 309 306 307 305 308 313 314 318 317
329 333 336 338 339 339 339 338 336 335 333 332 333 333 333 331 330 321 318 316 314 314 312 310 308 305 303 303 302 302 302 302 305 306 303 303 305 302 304 306 310 307 307
329 333 335 337 338 339 339 338 335 334 332 332 332 330 329 326 321 323 316 312 310 310 307 304 301 300 299 299 299 300 298 303 301 302 298 301 300 302 300 302 299 300 301
325 327 330 333 336 338 337 336 333 331 331 327 325 323 318 317 315 312 309 306 305 304 301 299 297 298 297 297 299 298 298 303 300 299 296 301 296 300 297 297 295 296 300
324 325 325 327 336 337 335 330 326 326 322 320 318 316 314 311 309 307 304 302 302 300 298 297 296 296 297 296 298 296 299 302 299 297 298 294 297 299 296 296 294 294 297
325 326 325 326 334 333 328 321 318 313 314 313 310 308 307 305 303 303 302 300 299 297 297 296 295 295 297 295 297 296 298 297 298 295 296 294 297 294 295 296 294 294 295
327 327 327 329 325 328 328 321 320 315 309 307 306 304 303 303 302 301 299 298 297 296 295 294 294 294 295 295 296 295 295 296 297 294 295 293 295 295 295 293 293 294 294
328 329 329 326 325 325 322 319 312 309 305 303 302 301 300 300 300 299 297 296 295 294 293 293 293 293 293 293 295 294 293 293 293 294 292 294 292 293 291 293 292 293 294
326 328 329 326 325 323 321 317 312 306 305 303 302 300 299 299 298 297 296 295 294 293 293 292 292 292 291 292 293 293 292 293 291 291 293 291 292 290 291 292 291 293 292
323 324 325 323 322 319 319 316 309 307 307 304 301 299 298 297 296 295 294 293 293 292 292 291 291 291 291 291 290 290 290 291 291 290 290 290 290 290 291 291 291 291 290
319 320 320 320 317 316 315 310 309 307 304 302 299 298 297 296 295 294 293 292 292 291 291 291 290 290 290 290 289 289 289 289 289 289 289 289 288 289 290 290 290 290 290

GFSSE_925_thetae_015.txt.gz
Theta_e
339 342 343 340 341 340 338 338 337 332 333 333 334 336 337 336 335 333 332 330 330 329 330 333 336 336 338 337 337 334 330 328 327 325 323 320 322 326 329 331 331 329 330
338 343 344 339 342 344 342 339 337 331 331 333 334 336 336 331 332 330 331 329 329 327 326 330 332 332 334 335 332 332 331 329 326 326 323 322 320 319 327 330 330 326 329
339 343 343 340 344 343 342 339 335 331 330 331 333 337 330 329 328 330 329 328 325 326 324 325 328 327 329 329 331 332 331 329 328 325 325 323 324 324 328 329 331 329 329
338 343 342 342 342 342 342 338 335 333 330 330 330 331 330 329 329 328 328 328 327 326 324 324 322 322 323 325 327 329 330 330 329 327 324 324 324 324 329 330 330 331 330
337 341 340 341 342 341 341 337 334 333 331 329 329 329 329 328 329 328 328 329 327 326 324 323 324 325 326 325 326 326 325 326 326 323 321 322 322 324 325 332 331 330 330
334 339 338 339 340 341 338 336 333 333 332 330 331 329 329 331 331 333 329 326 326 325 324 325 324 326 327 329 330 330 330 330 327 325 324 320 318 318 327 328 328 330 330
334 338 338 338 340 339 338 334 332 334 333 330 330 329 330 330 331 333 333 329 327 326 325 326 328 329 329 328 330 329 330 329 329 327 325 323 322 319 326 329 329 328 327
334 338 338 340 340 339 337 334 335 335 335 330 329 331 332 329 331 333 332 330 329 326 327 329 328 328 329 329 329 328 328 325 324 324 325 326 325 323 326 327 329 330 330
337 339 340 340 338 339 335 334 333 334 334 331 329 332 332 328 329 334 335 332 328 326 327 326 324 326 327 329 330 329 328 327 326 327 327 327 327 327 331 331 330 330 330
340 340 340 337 339 338 336 334 332 332 331 330 329 327 326 326 326 328 328 326 327 327 326 327 329 330 330 331 331 331 330 330 329 329 329 329 328 328 330 333 333 332 332
341 341 339 338 339 338 335 334 333 333 332 331 331 330 327 322 325 327 327 328 328 330 330 330 331 331 332 331 329 329 329 329 328 327 328 327 327 328 333 334 334 333 333
342 342 340 339 339 338 334 334 333 334 333 333 331 328 326 322 327 329 329 329 329 330 331 331 332 332 331 329 328 325 322 322 325 325 323 321 323 329 330 330 330 330 332
341 341 340 338 337 338 332 333 334 335 333 332 330 329 329 328 328 329 330 330 330 330 331 332 330 327 324 321 321 319 316 316 317 317 314 314 317 323 323 324 325 327 329
336 339 339 338 337 334 332 333 334 335 332 332 330 331 331 329 329 330 329 330 332 331 329 320 320 319 318 316 314 313 312 311 311 311 311 310 311 315 319 321 322 324 326
331 334 338 338 337 337 335 336 337 336 334 333 333 332 331 330 330 329 331 329 326 319 317 316 317 315 312 309 308 307 307 306 306 308 307 307 306 309 313 315 318 316 316
322 326 335 338 338 338 338 338 338 337 335 334 334 332 330 331 330 329 324 320 317 314 312 311 310 307 305 303 302 302 301 300 305 303 301 304 302 303 307 311 309 309 309
322 321 330 336 338 338 339 339 337 337 336 333 331 332 331 331 329 324 321 317 313 310 308 306 303 301 300 299 299 300 298 303 303 300 298 302 298 301 301 302 302 303 305
324 326 329 336 337 338 339 337 336 334 334 332 332 332 331 329 325 320 318 312 308 306 303 301 299 298 298 297 298 298 297 301 299 296 298 297 295 299 297 296 297 298 302
325 328 331 335 337 338 337 335 333 332 329 330 330 326 323 322 316 317 308 305 303 302 300 298 297 296 296 296 296 297 297 301 299 298 296 295 297 296 295 295 293 293 298
325 329 332 335 337 337 335 331 327 326 324 325 322 319 322 311 307 305 303 302 301 299 298 296 295 295 296 294 295 295 297 300 300 298 295 294 294 294 294 294 292 292 294
323 325 326 331 336 335 329 322 319 316 316 315 314 312 310 305 303 303 302 301 299 297 295 294 294 293 294 293 295 295 296 296 296 297 294 293 294 294 292 293 291 292 291
323 324 323 330 332 328 326 324 325 315 309 307 306 304 303 303 302 302 300 299 297 295 294 293 293 292 292 293 293 294 293 294 296 295 294 293 293 293 292 290 290 291 291
325 325 324 325 324 325 326 321 314 309 305 302 301 301 301 301 301 300 299 297 295 294 293 292 292 291 291 291 293 291 290 291 291 293 293 292 291 291 291 289 290 290 291
326 326 324 323 324 323 323 321 318 310 302 300 301 300 299 299 299 298 297 295 294 293 292 291 291 290 290 290 291 290 290 291 290 290 291 290 290 289 289 289 289 290 290
325 325 323 323 322 320 322 326 319 309 305 301 300 299 299 298 297 296 294 293 292 292 291 291 290 290 290 289 289 289 289 289 290 288 288 288 288 288 287 288 289 289 289
322 323 321 321 318 319 320 318 317 308 303 300 298 298 297 296 295 294 293 292 291 291 290 290 289 289 289 289 288 288 288 288 288 287 287 287 287 287 287 287 287 288 288

GFSSE_925_thetae_018.txt.gz
Theta_e
338 344 344 341 340 339 339 338 336 332 330 332 333 335 338 336 335 333 332 331 329 327 331 333 334 338 338 338 337 335 331 329 327 326 324 321 320 324 329 330 330 331 327
337 343 344 339 342 342 341 339 335 332 333 333 334 336 335 333 332 332 331 329 329 325 327 331 332 332 334 335 333 332 331 329 327 324 324 322 321 321 327 329 331 327 327
337 342 342 339 342 343 341 339 334 331 333 332 335 337 332 330 327 329 329 328 326 326 325 328 328 328 329 330 331 332 331 330 329 327 325 323 324 323 329 330 330 330 329
337 342 341 339 345 343 341 339 334 333 331 331 335 333 329 329 328 327 327 328 328 327 324 323 322 324 323 324 324 327 329 329 329 327 322 322 323 323 327 330 330 331 331
339 342 341 341 344 342 341 337 336 333 331 330 329 330 329 328 328 329 328 329 327 325 323 322 321 322 323 324 327 328 328 328 326 322 321 319 316 318 324 328 332 331 329
339 342 340 342 342 342 339 337 336 334 331 329 331 328 329 330 331 330 329 329 326 324 322 323 324 324 324 326 328 329 329 329 328 326 324 323 321 318 322 328 329 328 328
339 341 338 341 342 339 338 337 334 334 333 330 331 329 329 330 331 332 332 328 327 325 325 326 328 329 329 328 329 330 330 328 327 324 325 325 325 323 326 327 329 328 328
335 339 337 339 339 339 338 335 334 333 333 331 330 331 332 329 331 332 333 330 329 326 326 329 331 331 331 331 331 330 327 326 325 326 326 327 326 326 330 330 328 329 331
334 338 338 339 339 339 338 335 333 333 335 330 329 332 333 328 329 334 333 332 328 327 329 329 330 331 330 330 330 330 330 330 329 328 328 328 328 328 332 333 333 332 331
336 338 338 339 340 338 339 335 333 332 331 329 327 330 331 328 327 329 330 327 327 328 328 330 330 331 331 331 330 330 329 329 328 327 327 327 327 329 330 333 334 335 334
338 338 339 340 339 339 338 335 333 331 331 331 330 329 327 323 323 326 326 327 328 329 330 330 331 331 331 331 328 327 326 325 325 325 324 323 322 328 331 330 331 332 332
339 339 339 340 338 339 338 336 334 333 332 332 331 330 326 321 324 327 328 328 329 329 330 331 331 330 327 327 323 320 319 318 320 320 318 318 318 324 325 325 326 328 329
339 340 341 340 339 339 338 335 334 333 333 332 332 329 327 326 327 328 329 329 329 330 330 331 327 321 319 318 316 315 313 313 312 312 313 313 316 320 322 322 325 324 326
337 339 340 340 340 339 338 335 333 334 334 333 331 329 329 328 328 329 329 328 330 330 325 317 317 316 314 311 309 307 307 307 308 308 307 309 313 316 317 321 319 317 318
331 334 338 340 339 338 339 333 333 334 334 332 331 330 330 330 329 328 329 328 323 317 316 314 312 310 307 304 302 302 301 301 305 304 304 305 304 309 314 312 312 312 314
322 324 329 336 338 338 336 333 334 335 334 333 333 332 332 330 330 326 324 320 315 312 311 308 306 303 301 300 300 300 298 302 302 299 301 301 301 303 306 307 307 307 310
323 321 320 328 336 338 336 335 336 337 335 334 333 332 330 331 329 323 320 315 310 308 305 302 300 300 299 299 298 298 297 301 298 298 298 298 297 298 299 301 302 302 305
321 320 320 324 333 337 337 337 337 337 336 334 331 331 330 325 324 323 316 309 304 302 301 300 299 298 297 297 297 297 296 299 297 296 296 295 296 296 296 295 294 296 299
320 321 324 327 333 337 337 337 337 335 334 330 331 330 323 321 320 317 309 304 301 301 300 298 297 296 295 295 296 296 295 298 298 297 295 295 294 295 294 293 292 291 293
323 324 325 330 333 335 335 334 330 328 327 326 324 322 319 314 313 307 304 302 300 300 298 296 295 294 293 293 295 295 296 298 299 297 296 294 294 294 294 292 291 290 291
322 325 328 332 334 334 332 326 319 319 320 318 316 315 312 308 304 303 303 301 299 299 295 294 293 293 292 292 293 294 295 295 295 295 294 293 293 293 292 291 290 290 289
321 324 327 332 332 331 329 323 320 317 314 312 309 305 303 304 302 302 302 300 298 295 294 293 292 292 291 292 291 291 291 292 294 294 293 294 293 292 291 291 289 289 289
320 322 324 330 329 326 325 321 315 311 306 302 301 300 301 302 301 301 300 298 296 294 293 292 291 291 291 291 292 290 288 289 290 291 293 291 292 291 290 289 288 288 288
321 322 322 326 326 324 323 321 319 308 302 300 300 300 300 299 299 298 297 296 295 293 292 291 290 290 290 289 290 289 289 290 289 288 290 290 289 288 288 287 287 287 287
322 324 322 322 322 322 321 322 313 306 305 301 299 299 298 297 297 296 295 295 293 292 291 290 290 289 289 289 288 288 288 288 288 287 287 287 287 287 286 286 286 286 287
322 323 320 319 319 319 318 313 318 314 303 299 298 298 297 296 295 295 294 293 291 290 290 289 289 289 289 288 288 287 287 287 287 286 285 286 286 286 286 285 286 286 287

GFSSE_925_thetae_021.txt.gz
Theta_e
339 343 343 341 340 337 336 336 333 331 331 334 335 338 338 337 335 333 332 331 329 329 332 334 337 336 337 337 336 334 332 329 328 325 322 321 318 321 329 330 330 330 328
339 344 344 341 340 339 338 337 333 332 331 334 333 336 337 334 334 330 331 329 327 326 330 330 332 334 336 335 333 333 332 329 328 326 324 321 322 322 327 328 330 329 327
341 344 345 341 341 342 339 336 333 332 332 332 336 337 333 330 326 328 328 328 327 326 326 329 328 326 329 330 331 332 331 331 328 327 326 322 323 323 329 331 328 332 329
341 343 344 340 342 341 340 337 333 332 333 331 337 334 330 328 326 327 328 328 328 327 325 325 325 324 324 325 324 325 327 328 327 324 322 318 321 322 324 329 331 330 331
341 343 341 340 342 342 341 337 334 332 331 331 335 330 328 328 328 327 328 329 327 321 322 322 321 321 322 322 325 328 329 329 326 325 323 321 319 315 320 327 330 333 332
339 343 340 341 345 342 340 338 336 332 331 330 329 330 328 330 331 331 329 330 327 322 323 325 326 327 326 327 329 330 330 330 329 328 325 325 325 323 324 326 328 329 328
339 342 342 343 343 341 338 338 335 334 331 330 329 328 329 330 332 332 331 328 327 324 324 327 329 331 331 330 331 330 328 325 328 327 326 326 326 326 330 329 328 329 330
336 342 340 342 342 340 337 336 334 334 333 331 332 329 330 330 331 332 333 330 329 326 327 330 331 331 331 330 331 330 330 329 329 329 328 328 328 327 332 333 333 330 331
335 339 339 342 341 339 337 335 333 332 331 330 330 331 332 328 331 332 331 331 328 327 329 330 331 331 331 331 331 330 330 330 329 328 327 327 327 328 331 334 334 335 334
335 338 338 339 340 340 340 336 333 331 331 326 326 330 331 328 327 332 332 328 328 330 330 330 331 331 331 330 330 328 327 327 326 326 326 326 324 328 332 332 332 332 333
337 337 339 338 340 340 339 337 333 332 331 329 327 327 327 325 326 327 326 327 328 329 330 330 331 331 329 328 326 324 323 322 322 324 323 322 321 326 328 327 328 329 330
338 336 339 339 341 340 340 337 334 332 332 331 330 329 327 323 322 326 327 328 329 329 329 330 331 327 325 323 321 320 317 315 315 316 316 316 320 323 324 325 327 327 329
338 338 338 340 341 339 339 337 335 333 333 332 331 329 326 323 324 327 328 329 329 330 329 328 321 319 318 317 315 312 310 310 310 311 311 313 319 322 321 323 320 320 322
334 337 338 339 340 339 339 338 335 333 333 332 332 329 328 328 328 328 329 328 328 327 323 318 316 314 312 308 306 304 303 304 305 306 307 309 311 317 318 317 316 316 319
332 334 337 339 340 339 339 338 335 333 333 333 331 329 329 329 328 328 327 327 324 318 317 315 311 307 304 301 301 301 300 301 302 303 304 304 306 311 311 312 310 312 315
327 329 332 336 339 339 339 338 335 333 334 332 330 330 330 330 328 327 325 320 316 314 311 308 303 301 300 299 299 299 298 301 301 300 301 301 301 304 306 306 306 307 309
321 321 321 325 334 339 338 337 334 333 335 332 332 332 331 330 329 324 322 316 313 308 304 301 300 299 299 298 297 297 296 299 298 298 297 297 297 297 299 301 301 300 302
321 320 320 319 322 335 338 337 333 334 335 333 333 333 330 330 326 323 321 313 305 302 301 300 299 298 297 297 297 296 296 297 296 296 295 295 295 295 294 294 293 293 297
320 320 320 320 325 332 337 336 334 335 335 334 332 330 329 325 322 320 313 305 301 301 301 299 297 296 295 296 296 295 295 296 297 296 295 294 294 293 293 293 292 291 291
320 319 320 322 328 332 335 335 334 335 334 332 329 326 323 322 317 311 307 302 301 302 299 297 295 294 293 294 295 295 296 297 298 297 296 293 293 293 292 291 291 290 290
318 321 322 326 330 332 334 332 328 326 326 324 322 320 319 314 306 304 304 302 301 301 297 295 294 293 292 292 294 295 294 294 295 295 295 293 293 292 292 291 290 290 290
319 321 325 329 330 330 328 325 322 318 313 317 313 310 307 304 302 304 304 302 299 298 295 294 293 292 291 291 292 293 296 295 294 293 292 293 292 291 291 290 289 289 289
317 321 326 329 327 325 325 324 317 312 307 305 303 302 301 301 302 303 302 300 297 295 294 292 291 291 292 290 291 292 294 294 292 292 292 291 291 290 289 289 288 288 288
318 320 324 328 325 324 324 321 320 311 305 301 301 299 299 299 300 300 299 297 295 293 292 291 290 290 290 291 290 289 289 290 292 292 291 291 289 288 288 288 288 287 287
317 319 322 325 322 321 321 322 316 309 306 302 300 298 297 297 298 297 297 295 293 292 291 290 290 289 289 289 289 289 289 289 289 290 290 290 288 288 288 287 287 287 287
317 320 320 321 318 318 319 317 315 311 304 299 297 297 296 296 296 295 294 293 292 291 290 290 289 289 289 288 288 287 288 288 288 288 289 289 288 288 287 286 286 286 286

GFSSE_925_thetae_024.txt.gz
Theta_e
339 346 347 341 339 342 342 340 336 335 335 335 338 340 339 337 335 334 332 331 329 331 335 336 337 336 337 337 337 334 331 330 328 324 321 320 317 321 327 331 330 329 330
340 348 342 342 341 342 339 336 332 331 332 334 335 340 336 336 333 333 330 330 326 328 331 333 334 337 337 335 334 333 332 330 328 326 325 323 321 323 329 327 327 330 324
342 346 346 341 341 340 338 334 332 332 329 333 336 337 334 329 326 330 329 327 328 326 326 327 330 330 331 331 332 332 331 331 328 326 321 324 325 323 329 330 332 330 331
342 346 346 342 340 340 338 335 332 333 329 336 338 335 330 327 327 328 328 329 328 326 326 326 325 324 324 325 325 324 326 327 324 321 324 322 321 321 323 328 332 331 332
343 346 345 343 341 340 339 336 334 333 331 335 337 331 330 328 327 328 330 330 326 324 326 326 325 326 326 327 329 330 329 329 328 329 329 328 327 322 319 326 330 332 334
342 345 346 341 342 341 340 336 335 332 332 335 332 326 328 330 330 330 330 330 327 322 324 326 328 328 328 327 329 330 329 329 327 330 330 330 329 326 328 328 328 330 330
342 344 345 341 342 342 340 338 335 333 332 331 332 327 329 331 333 332 331 329 327 323 325 328 331 331 331 331 332 331 328 326 330 331 331 331 331 327 331 332 332 329 330
342 343 344 344 345 341 339 338 336 334 331 332 329 330 332 331 331 332 332 329 329 325 329 330 332 332 332 331 332 331 330 330 332 332 332 331 330 328 330 333 334 335 333
341 342 342 346 345 341 339 336 334 334 331 331 332 331 332 329 332 334 333 331 328 328 329 330 331 332 332 331 330 329 329 328 330 330 330 329 329 328 332 333 333 334 335
340 341 341 344 344 342 341 336 334 333 330 327 329 330 330 328 331 333 333 329 329 329 330 331 331 331 331 330 328 326 326 326 328 329 328 327 324 327 330 330 329 331 332
340 341 341 341 342 343 341 339 335 333 331 326 326 329 329 331 330 330 330 327 329 329 330 330 331 330 327 325 325 323 322 321 322 322 323 321 322 326 326 328 329 330 331
340 340 342 342 342 343 341 340 337 336 334 331 330 329 328 327 328 327 328 328 329 329 329 330 329 322 320 320 318 318 317 316 316 315 318 316 321 324 325 326 323 323 325
339 340 341 342 342 343 341 340 338 336 335 334 332 331 328 326 326 328 330 330 332 329 324 326 317 315 314 314 313 311 309 310 311 311 314 313 317 321 323 320 319 319 323
338 340 340 342 343 343 341 340 338 336 336 334 333 329 327 328 329 329 331 328 323 325 322 318 314 311 309 307 306 305 305 306 306 308 310 308 317 317 317 316 315 317 318
334 337 340 341 342 343 341 340 338 336 336 335 333 330 330 330 330 329 325 322 325 320 314 312 310 307 305 303 304 303 304 304 303 305 307 305 311 312 312 311 311 312 313
329 332 337 340 341 342 342 340 339 336 336 336 333 331 331 331 329 327 326 325 319 315 313 307 305 303 302 301 302 302 301 303 302 303 303 304 304 306 306 306 305 305 306
324 325 330 336 340 341 341 341 339 336 337 336 333 332 332 330 328 326 324 321 316 311 305 304 302 302 302 301 301 301 300 300 301 300 301 300 300 298 298 300 300 300 300
324 324 322 324 332 338 340 341 339 336 337 335 334 333 331 329 328 324 322 318 312 304 302 302 302 302 301 301 301 301 300 300 299 299 299 298 298 298 297 294 294 293 293
323 324 322 322 324 331 336 339 339 336 338 334 332 331 331 329 326 324 320 310 303 302 302 300 300 300 300 300 299 299 300 300 299 298 298 297 297 297 296 295 293 293 292
321 322 322 322 325 331 335 338 338 337 334 329 332 332 330 326 323 322 311 302 302 302 300 299 299 298 298 298 298 299 300 301 299 299 299 296 296 295 295 295 294 294 293
322 322 323 324 327 332 335 336 334 328 324 322 330 329 325 322 319 312 305 301 301 301 299 298 298 297 297 296 298 300 299 298 299 300 298 296 296 295 294 294 293 293 293
321 322 323 325 329 332 333 331 331 325 319 317 317 320 315 315 310 303 302 301 300 299 298 297 297 297 296 295 296 298 301 300 298 298 296 295 295 294 294 293 292 292 292
321 322 324 328 331 331 330 330 323 313 308 306 306 311 307 304 303 301 301 300 299 298 297 296 296 296 297 295 294 295 299 300 296 296 296 295 295 293 293 292 292 291 291
320 322 324 329 329 329 328 320 317 317 314 310 305 303 303 302 299 299 299 298 298 297 296 294 294 294 294 295 294 293 293 293 296 296 295 294 294 292 292 292 291 291 290
319 322 324 328 328 325 322 321 321 320 316 304 300 301 299 298 297 297 298 297 296 295 294 293 293 293 293 293 293 293 293 293 292 293 295 295 293 293 292 291 290 290 290
318 322 324 326 324 322 323 322 323 317 306 300 297 297 297 296 296 296 295 295 294 294 293 292 292 292 292 291 291 291 291 292 292 292 293 293 292 292 291 290 289 289 289

GFSSE_925_thetae_027.txt.gz
Theta_e
342 349 344 345 343 344 342 341 338 336 336 340 340 341 340 337 335 334 332 330 329 333 336 336 337 336 338 338 337 334 332 331 329 325 324 321 317 324 328 330 330 331 330
344 348 345 342 345 343 342 339 336 335 335 335 339 340 339 337 335 333 331 327 327 330 333 334 334 337 337 336 335 334 332 332 328 324 321 325 326 320 330 331 331 330 329
345 350 346 342 340 343 341 337 333 333 334 334 338 339 334 332 332 329 329 329 328 326 330 331 330 330 331 331 330 331 331 330 329 320 323 323 325 323 324 330 332 331 332
346 347 347 343 340 340 340 336 334 331 334 336 338 335 331 328 328 329 330 330 327 326 326 328 328 327 327 328 327 327 327 326 322 326 328 325 324 321 318 326 330 333 332
345 346 347 342 341 340 339 335 334 333 336 338 336 332 329 328 329 330 331 330 324 325 326 325 323 323 324 325 329 331 330 329 326 331 330 331 329 329 321 327 328 331 334
344 346 346 343 341 340 338 335 335 331 332 338 332 329 330 329 329 330 331 329 324 323 325 328 329 327 325 325 328 329 329 325 330 331 331 331 331 329 330 332 330 329 331
343 347 347 343 342 340 339 336 335 333 333 335 331 331 331 332 333 332 331 330 326 324 326 329 332 331 332 332 333 332 330 329 331 332 331 331 332 329 331 334 335 335 333
343 345 346 342 341 342 339 337 334 333 332 333 333 333 331 331 331 332 333 329 328 327 330 332 333 333 332 332 332 331 330 328 331 330 331 330 330 328 334 335 334 335 336
341 342 345 346 344 342 338 337 335 333 332 332 332 332 332 329 333 335 332 331 329 329 331 332 332 332 331 330 330 329 327 326 329 330 329 330 327 327 331 333 331 332 333
341 341 343 346 346 343 341 337 334 333 330 330 330 331 330 328 333 333 332 330 328 330 331 331 331 331 330 327 326 326 326 325 326 327 327 327 323 327 329 330 331 332 332
340 340 340 344 344 343 340 338 335 333 329 327 329 329 329 332 332 333 333 326 329 329 330 330 330 329 324 323 322 322 322 322 321 321 321 320 322 325 327 329 326 326 328
340 340 340 341 342 342 340 339 337 335 333 328 328 330 330 331 331 330 327 328 329 329 330 329 328 320 321 322 320 319 317 315 315 315 318 315 323 325 326 323 322 323 325
339 340 341 341 341 342 340 339 337 336 334 332 329 328 327 328 328 327 329 329 331 330 324 322 320 318 317 315 315 312 309 311 311 312 314 311 319 324 321 319 319 321 321
337 339 340 342 342 342 341 340 337 336 335 334 333 330 328 326 327 328 330 331 328 323 321 319 318 314 313 310 308 307 307 308 306 308 311 309 317 317 317 315 315 317 316
334 337 339 341 343 343 342 340 338 336 335 335 334 330 327 328 329 329 330 326 321 321 317 317 315 312 308 306 306 305 305 306 305 306 309 307 311 312 312 311 310 310 310
332 334 337 340 342 342 342 341 339 337 336 336 335 331 329 330 330 329 326 320 324 320 318 311 309 306 305 305 304 304 303 304 304 305 305 306 304 305 307 306 305 304 304
326 330 332 337 340 341 342 341 339 338 337 336 335 332 331 332 329 324 322 324 322 319 309 308 306 305 305 304 303 303 303 302 302 302 303 303 302 300 297 296 296 296 298
327 326 326 332 337 340 341 340 340 339 337 336 335 333 332 331 326 324 324 323 318 313 306 306 305 305 304 303 303 303 302 302 301 301 301 300 300 299 299 298 296 294 294
326 326 326 325 329 334 338 339 339 338 337 337 335 333 333 326 323 324 324 320 310 306 306 304 303 302 302 302 301 301 301 302 302 300 300 300 299 298 298 298 296 295 295
323 325 325 325 324 327 333 337 338 338 337 337 336 334 328 321 326 325 322 309 306 305 304 303 302 301 300 300 301 301 302 302 302 301 301 300 298 297 297 297 296 295 295
322 323 324 325 325 326 330 335 338 338 337 336 333 326 320 322 323 321 313 306 305 305 303 302 301 301 300 299 301 302 302 300 300 301 301 299 298 297 296 296 295 294 294
322 323 324 324 325 327 332 336 338 337 333 330 324 318 318 321 321 315 307 305 304 302 301 301 301 301 299 298 298 300 304 302 300 300 299 298 297 296 296 295 294 294 293
321 322 323 324 325 329 333 336 336 329 323 317 315 311 310 313 315 307 305 304 303 302 301 300 299 299 300 298 296 297 302 303 298 299 298 297 296 296 295 294 294 293 293
319 322 323 324 327 331 333 334 330 321 317 313 309 308 306 306 305 304 303 302 302 301 300 298 298 297 297 298 297 295 295 295 297 297 297 297 297 294 294 294 293 292 292
316 321 323 325 328 332 333 333 329 321 322 312 308 305 301 302 303 303 301 301 300 299 298 297 296 296 295 296 295 295 295 295 295 295 296 296 295 295 294 294 293 292 291
315 319 324 325 330 331 331 330 324 323 319 308 305 302 299 301 302 301 299 299 298 297 296 296 295 295 294 294 294 294 294 294 294 294 294 294 294 293 293 293 292 291 291

GFSSE_925_thetae_030.txt.gz
Theta_e
347 343 345 345 344 340 340 340 339 341 342 340 341 341 339 336 335 333 330 329 332 336 336 338 337 337 338 338 336 334 333 331 326 322 320 324 322 326 328 329 325 331 329
347 344 345 343 344 343 342 339 334 330 332 339 340 340 338 336 334 333 329 327 329 333 334 335 336 337 337 336 335 334 333 331 324 316 319 326 326 324 328 331 332 326 332
348 347 345 340 341 342 340 335 332 333 335 336 340 340 337 334 333 330 329 328 327 330 332 331 330 331 331 329 328 328 328 321 316 325 325 325 326 322 318 323 332 333 330
349 347 345 340 339 341 338 337 335 333 334 338 337 333 331 330 330 330 329 326 326 327 329 329 327 324 326 327 328 328 325 321 328 330 330 328 326 326 323 324 328 333 333
349 347 344 339 339 340 336 334 332 335 338 339 336 331 329 329 331 331 331 326 326 326 327 327 325 322 323 322 327 332 329 324 330 331 330 330 330 329 329 329 325 328 331
347 348 342 341 340 338 335 334 335 333 336 337 332 328 329 330 330 332 331 325 322 326 328 329 327 326 325 326 326 326 325 329 331 332 331 331 330 329 330 334 335 333 329
347 347 341 341 340 339 336 334 330 330 338 334 331 331 331 332 332 332 331 328 323 325 328 332 332 331 331 331 332 330 329 328 331 331 331 330 330 330 333 335 335 336 335
348 346 343 342 341 340 337 335 330 332 337 334 331 334 333 331 332 333 332 328 324 326 330 331 331 331 331 331 330 329 327 326 328 330 328 328 328 329 332 333 332 333 334
347 347 344 342 341 341 337 334 330 331 332 334 333 333 330 330 332 335 332 330 328 330 330 331 331 331 330 329 328 326 326 326 327 329 328 328 325 329 330 331 332 333 333
343 346 344 343 342 341 337 334 330 329 331 331 332 331 330 330 334 333 331 329 328 329 330 330 330 329 326 325 324 324 324 323 322 322 324 324 321 327 329 330 329 328 329
341 343 344 344 343 342 339 335 332 330 327 329 330 329 329 329 333 332 334 326 328 329 330 330 329 326 323 322 320 319 319 318 317 317 318 318 323 327 328 325 324 327 326
341 341 344 344 344 343 340 336 334 332 327 325 329 329 329 331 333 334 332 326 329 329 330 329 324 320 319 319 318 314 314 312 312 313 315 313 319 325 324 322 322 323 323
339 340 340 344 344 341 339 338 336 335 331 326 325 328 328 330 330 330 324 328 329 329 325 322 319 318 318 316 312 309 307 309 309 310 312 310 323 322 320 318 319 320 318
339 339 340 340 342 341 339 338 337 336 334 330 328 328 327 328 328 327 329 329 329 327 324 319 317 314 311 308 307 306 305 307 306 307 309 308 316 318 316 315 315 314 313
338 339 340 341 341 341 340 338 338 337 335 334 332 330 328 326 326 327 331 329 325 323 318 317 314 311 308 306 305 305 304 305 305 306 307 307 310 312 312 311 310 309 308
332 338 339 340 342 343 341 339 339 337 335 335 333 332 328 326 328 330 327 326 325 321 317 312 310 307 305 305 304 303 303 303 303 304 305 305 303 305 306 305 304 304 304
327 333 338 339 342 342 343 341 340 338 336 336 335 332 328 329 330 329 327 325 324 320 311 310 307 306 305 304 303 303 303 302 302 302 303 302 301 300 298 297 296 297 298
327 327 333 338 340 342 342 342 341 339 337 336 335 333 329 331 331 329 325 323 321 314 309 307 306 305 303 303 302 302 302 302 301 301 301 300 300 299 299 299 297 296 296
324 327 328 334 339 340 341 341 341 340 338 336 335 333 331 332 331 327 324 323 319 309 306 304 304 303 302 301 301 300 301 301 302 301 300 300 299 299 298 297 297 296 296
323 325 327 327 336 339 340 341 340 340 338 335 335 333 332 332 328 324 322 321 310 307 305 304 303 302 301 300 301 301 302 302 302 301 300 300 299 298 297 296 295 295 294
321 321 323 326 326 329 334 339 339 339 337 336 335 333 333 332 326 322 321 310 308 306 304 303 302 301 301 299 301 301 302 301 301 301 301 301 298 298 297 296 295 294 294
322 322 322 325 325 324 327 334 338 338 337 336 336 333 332 329 322 320 316 309 306 305 303 302 302 301 299 298 297 298 299 299 299 300 300 298 297 296 296 295 295 294 293
320 321 322 323 324 324 325 330 337 338 335 333 329 327 323 320 318 316 311 307 305 304 302 302 301 301 299 298 296 296 296 297 295 298 298 298 297 296 296 295 294 294 293
317 320 321 322 324 325 326 333 337 332 327 324 321 319 317 314 312 310 307 306 303 303 302 301 300 299 299 298 296 296 295 295 293 293 296 296 296 295 295 295 294 294 293
315 317 320 321 323 324 327 335 335 327 325 319 316 314 311 306 307 306 305 304 303 302 300 299 298 298 296 296 296 295 295 295 295 293 292 293 294 294 293 293 293 293 292
315 314 315 322 323 326 331 335 331 326 319 314 311 307 305 304 303 303 303 302 301 301 299 298 297 296 295 294 294 294 293 293 292 292 290 290 291 292 292 292 292 292 292

GFSSE_925_thetae_033.txt.gz
Theta_e
344 342 339 343 342 341 342 343 343 342 341 342 342 340 338 336 334 330 329 333 336 336 338 338 338 339 338 337 333 332 328 325 319 316 321 325 325 328 328 331 329 331 329
343 343 341 344 343 342 341 338 337 338 338 340 341 339 337 335 333 330 327 330 335 335 337 339 339 339 338 336 332 332 328 318 317 322 324 325 325 327 326 324 329 326 331
344 345 344 342 341 341 338 332 330 331 337 339 340 339 337 334 332 329 328 328 332 333 333 333 334 333 332 328 327 324 317 317 326 328 326 325 324 325 322 320 330 334 327
343 345 342 339 338 334 329 331 331 332 335 340 339 336 334 332 331 328 327 327 328 331 331 330 329 327 327 327 325 322 321 329 330 330 329 327 328 328 326 325 329 332 333
343 343 341 338 336 333 332 332 330 334 339 335 333 331 331 331 331 330 327 327 327 328 328 328 326 322 321 323 330 326 324 329 330 330 330 329 330 329 331 333 324 324 329
345 343 339 338 337 335 335 331 335 338 339 335 330 328 330 332 333 332 327 327 329 330 330 330 326 324 325 325 326 326 329 330 331 330 331 330 329 330 329 333 335 335 331
346 343 339 338 338 335 333 332 329 338 338 334 329 331 331 331 332 334 328 322 324 326 332 332 332 330 329 330 329 328 327 328 330 331 331 329 328 332 334 334 334 334 335
346 341 340 340 339 337 334 331 326 338 335 331 331 332 333 334 333 334 330 324 325 328 330 331 330 330 330 329 328 326 326 326 329 329 328 326 327 331 333 333 334 334 334
346 341 341 340 340 338 335 331 325 335 335 330 333 332 330 330 331 335 330 327 328 328 329 329 329 329 328 327 326 325 325 323 324 328 327 326 326 330 331 332 332 330 331
345 343 342 341 340 339 335 331 327 327 334 332 331 329 330 330 332 334 330 326 326 328 329 329 329 327 324 322 321 322 320 318 320 321 321 320 321 329 330 327 327 330 328
346 344 342 342 341 340 335 332 329 328 328 332 331 329 329 332 333 332 330 324 327 329 329 329 328 323 322 320 318 317 317 314 315 316 316 316 328 329 326 324 327 326 325
345 344 341 341 341 341 337 333 331 328 329 329 329 329 329 331 332 331 332 325 328 329 329 328 321 320 319 318 314 312 311 311 310 313 314 312 322 326 322 322 323 322 321
341 344 343 342 341 341 339 335 332 330 325 326 328 329 329 330 333 333 331 327 329 329 328 320 319 318 316 313 311 308 307 308 307 309 310 311 323 322 319 319 320 317 316
340 340 344 343 343 342 340 337 333 331 328 322 322 326 327 330 332 333 325 327 329 326 323 319 317 315 311 308 306 306 305 306 305 307 308 308 318 318 316 315 314 313 312
339 340 340 344 344 342 339 337 336 335 332 327 327 327 326 329 329 329 327 329 328 325 320 316 314 311 309 306 304 304 304 304 304 305 306 306 310 313 312 310 309 308 307
338 339 339 339 342 342 340 338 337 336 335 332 330 328 327 327 327 326 328 330 324 323 317 315 313 310 306 305 304 303 303 303 303 304 305 304 303 305 305 305 304 304 304
327 338 339 340 340 341 340 339 337 337 337 334 332 330 328 327 326 326 330 326 324 322 316 312 310 306 305 304 303 303 302 302 302 302 303 302 301 299 299 299 300 301 301
323 326 338 340 341 341 341 340 339 337 336 335 334 332 330 326 326 328 327 326 325 319 312 311 308 306 304 303 302 301 302 302 301 301 301 300 300 299 299 298 297 298 299
321 322 335 339 340 342 342 342 340 338 337 335 335 334 329 328 329 329 329 326 324 315 308 309 306 304 303 302 301 300 300 301 301 301 300 300 299 299 298 297 296 295 296
320 320 323 337 339 341 342 342 341 339 337 336 335 334 330 329 330 330 329 325 320 311 309 306 305 303 302 301 301 301 301 301 302 301 300 300 300 298 298 296 296 295 295
319 320 320 325 338 340 340 340 340 340 338 336 335 334 331 330 331 331 327 322 314 312 308 305 304 303 301 301 300 300 301 300 301 301 301 300 300 298 297 296 295 295 294
320 320 320 321 333 338 339 340 340 339 338 337 335 334 332 330 331 330 325 318 310 308 304 304 304 302 301 299 299 298 297 299 299 299 300 301 298 296 296 295 295 294 294
318 320 321 321 321 333 336 338 338 338 336 335 333 334 332 331 330 328 323 315 310 308 305 304 304 304 301 298 297 297 296 297 293 298 298 297 296 296 296 295 294 294 293
315 317 319 321 321 322 327 333 337 335 333 332 332 332 331 330 327 323 317 311 309 306 304 304 303 302 302 299 297 296 295 295 293 292 296 296 295 295 294 294 293 293 293
314 314 315 319 320 321 323 325 332 334 333 331 326 325 325 321 321 319 309 308 307 304 304 303 301 301 300 299 298 296 295 295 294 292 291 292 294 294 293 293 292 292 292
314 313 313 315 319 320 321 325 329 333 330 323 319 316 317 316 311 308 307 307 305 303 303 302 301 299 297 296 295 294 294 293 292 291 289 289 290 291 292 291 291 291 290

GFSSE_925_thetae_036.txt.gz
Theta_e
344 343 342 344 345 345 345 345 344 343 343 343 339 339 337 334 332 332 335 336 337 338 337 336 338 339 339 337 332 329 325 319 316 321 324 325 329 329 330 331 330 330 330
344 343 342 344 345 345 346 345 341 340 341 342 340 338 336 334 331 329 332 336 335 338 339 339 340 339 338 336 331 327 318 320 323 323 323 324 322 327 328 329 326 327 330
344 342 342 342 342 342 342 339 339 339 340 340 340 338 336 333 331 328 329 334 334 336 337 338 338 337 333 329 325 317 317 326 327 326 325 324 327 326 323 323 331 334 327
341 342 342 341 341 340 336 331 329 336 339 339 339 338 335 333 329 328 328 332 333 333 333 333 333 332 328 323 318 321 328 329 329 329 328 326 329 330 327 325 329 331 332
342 342 341 341 338 335 333 332 332 333 340 339 338 335 333 331 328 328 328 329 331 330 329 329 327 323 322 326 325 325 329 329 330 330 329 329 330 331 333 333 327 324 328
343 341 340 339 334 332 331 328 333 338 339 336 331 332 332 332 330 328 328 328 329 329 329 328 322 323 323 325 326 327 329 330 330 330 329 329 330 330 333 334 334 334 334
343 339 339 337 334 332 330 330 334 340 336 333 331 332 333 333 333 329 328 329 330 331 331 330 328 328 329 329 328 327 327 327 329 330 330 329 329 332 334 334 333 335 335
341 339 337 337 335 333 332 332 337 338 335 331 330 332 333 333 334 330 326 328 330 332 332 333 330 329 329 328 326 326 326 327 328 329 327 326 327 332 333 333 333 333 333
342 339 339 338 337 334 333 327 336 338 334 328 331 332 333 333 333 333 327 326 330 332 332 331 330 329 328 326 325 324 323 323 327 327 325 326 328 331 332 330 331 330 329
344 340 339 339 338 336 334 327 331 337 331 329 330 332 331 331 333 333 329 326 330 330 329 330 329 326 323 320 321 319 319 320 322 322 320 320 328 331 328 327 329 328 325
344 341 340 340 339 337 334 329 329 337 332 330 329 329 329 330 331 333 329 325 328 329 329 329 327 322 320 319 318 315 316 315 316 316 316 326 330 327 325 327 327 325 322
343 343 342 340 340 339 335 331 329 332 334 332 331 329 329 332 332 331 329 323 327 329 329 328 323 320 320 319 315 312 311 311 312 313 313 314 328 324 323 324 322 320 320
344 343 342 341 340 339 336 332 329 328 328 331 331 329 329 331 332 330 329 325 328 329 328 323 319 318 317 314 311 308 307 308 308 309 311 318 325 322 320 321 318 316 316
345 344 342 341 340 340 339 334 331 328 327 328 329 329 329 331 332 331 331 326 328 328 327 319 318 315 311 308 306 306 305 306 306 307 308 311 320 318 316 315 313 312 311
341 344 343 341 340 340 340 337 333 330 328 324 325 328 328 329 331 332 330 325 328 325 322 319 316 312 309 307 305 304 304 305 305 306 306 308 313 314 313 311 309 308 308
338 339 343 343 342 341 341 338 336 333 330 327 321 321 326 328 330 332 328 325 329 326 320 317 313 310 308 305 304 303 303 303 304 304 305 305 305 308 308 306 305 304 305
329 338 339 342 343 342 341 339 337 336 335 332 325 325 326 326 329 330 327 328 328 323 319 315 311 309 306 304 303 302 302 302 302 303 303 303 302 300 301 302 302 302 302
320 324 336 339 342 343 341 340 338 337 336 335 332 329 328 326 327 327 326 328 327 320 316 313 311 308 305 303 302 302 302 301 301 301 302 301 300 299 299 298 297 298 300
319 319 322 337 340 340 341 340 338 338 336 336 335 332 329 328 327 326 326 329 324 319 315 313 310 306 304 303 301 300 300 301 301 301 300 300 299 299 298 297 296 296 295
319 319 318 327 338 339 339 339 338 338 337 336 336 334 331 329 327 325 327 327 322 317 314 310 308 304 304 303 301 301 301 301 301 300 300 299 299 299 298 297 296 295 295
317 318 318 319 336 339 339 338 338 337 337 336 336 334 333 331 327 326 327 325 321 319 316 309 305 304 302 302 301 301 301 301 301 300 300 299 299 299 297 296 295 295 294
318 318 318 317 321 338 339 338 338 338 338 337 336 334 333 332 328 328 327 325 321 318 310 308 305 304 302 300 300 299 297 299 299 299 300 300 299 297 296 295 294 294 294
315 317 318 318 317 328 338 338 338 337 335 334 334 333 333 332 329 329 328 327 322 317 312 308 305 306 303 299 299 299 296 298 294 296 298 298 296 296 295 294 294 293 293
314 315 316 317 319 321 334 338 336 335 333 334 334 334 332 330 329 329 329 325 322 317 313 308 304 305 305 301 297 296 296 296 293 294 295 296 295 295 294 294 293 292 292
312 313 314 314 315 318 322 335 337 335 334 334 333 332 331 328 326 328 327 323 320 316 311 307 304 304 304 302 300 296 295 294 294 292 292 293 294 294 294 293 292 291 291
312 313 313 313 312 314 317 325 334 334 333 332 331 326 325 323 322 324 323 319 315 314 308 305 304 303 302 302 299 297 296 294 292 292 289 289 290 292 292 292 291 290 290

GFSSE_925_thetae_039.txt.gz
Theta_e
343 344 342 345 345 345 345 344 344 344 343 342 341 339 337 334 333 335 337 338 338 337 335 337 340 339 337 337 334 328 324 319 319 324 324 327 330 330 330 330 329 329 330
343 344 341 344 345 344 343 343 341 342 341 341 338 337 336 333 331 333 335 336 339 338 337 339 339 339 337 336 333 325 323 322 323 322 323 322 325 328 328 330 325 328 328
344 343 342 342 343 344 343 343 341 342 341 341 338 336 335 333 329 330 335 336 337 339 340 340 340 337 335 331 324 318 326 327 326 326 324 327 327 326 324 327 332 331 329
342 341 341 341 342 343 343 341 340 340 340 340 339 337 335 332 329 329 333 332 334 335 336 336 334 333 330 321 321 328 329 329 328 328 326 328 330 331 328 323 327 330 332
342 341 341 341 341 342 341 340 340 340 340 339 339 337 334 330 328 328 331 332 332 333 332 332 331 329 323 320 326 329 329 329 329 328 328 328 330 333 334 332 328 325 328
342 341 340 341 340 339 336 335 337 339 339 339 338 335 333 329 329 328 329 330 330 329 329 329 320 317 321 323 325 328 329 330 330 329 329 330 332 334 334 335 334 334 334
342 341 340 340 338 334 333 332 333 338 340 337 334 334 332 331 329 329 329 329 330 330 330 326 324 324 327 328 329 328 328 328 329 330 330 330 330 333 334 334 334 334 334
342 340 340 337 333 332 330 330 334 339 337 334 332 332 333 333 330 329 328 328 331 332 332 332 330 329 329 328 327 325 325 328 328 329 328 327 329 333 333 333 332 332 331
341 339 339 335 333 332 329 330 337 337 334 328 331 333 334 333 332 328 325 328 331 332 332 333 331 329 328 326 324 324 323 326 327 326 326 327 330 332 330 331 330 329 327
341 338 336 336 335 333 332 331 336 337 333 326 330 332 332 332 332 330 324 327 332 332 331 331 331 326 324 321 321 320 321 324 325 323 321 325 331 329 328 330 329 326 324
342 339 337 337 336 334 333 328 335 338 334 328 330 331 332 332 333 332 327 325 329 331 330 331 328 322 319 318 316 315 317 318 318 317 323 328 329 327 328 327 325 323 321
343 343 343 338 338 336 335 330 328 337 333 329 328 330 330 330 330 332 329 324 328 329 329 329 325 321 320 317 315 312 312 313 313 313 316 327 326 324 325 323 321 320 320
343 342 346 339 339 338 336 331 326 336 334 330 329 329 329 330 331 333 330 326 328 329 329 327 321 319 318 316 313 310 308 309 310 312 322 324 323 321 322 319 317 316 316
343 343 344 340 339 339 337 333 328 328 335 333 331 330 329 332 333 333 330 324 327 328 328 323 319 317 314 310 308 306 306 306 307 307 313 322 320 318 317 315 313 312 311
343 342 342 341 340 340 338 335 331 328 327 328 330 331 329 330 332 331 330 326 327 328 328 319 317 314 310 308 306 304 304 305 305 306 308 312 316 315 313 311 310 309 308
343 343 343 342 341 340 339 338 334 330 328 326 326 328 329 328 331 332 331 329 327 328 324 319 317 313 309 306 305 304 303 303 305 305 305 307 309 310 309 307 306 305 306
336 341 343 343 342 341 340 339 338 335 331 328 325 323 328 328 328 330 331 330 325 328 323 318 314 310 308 305 303 303 302 302 303 304 304 303 303 303 304 304 303 303 303
323 329 337 341 342 341 340 340 340 337 333 331 329 324 322 326 328 328 329 330 326 328 322 316 312 309 307 304 303 302 302 301 301 303 303 302 301 299 299 298 297 300 301
317 318 322 334 341 341 341 340 340 338 335 334 333 330 323 322 324 327 329 329 327 327 319 314 311 308 306 303 302 301 301 301 301 301 302 301 299 299 298 297 297 296 295
317 316 317 320 333 339 341 339 338 337 335 335 335 333 330 327 326 326 327 327 326 325 317 312 310 308 305 303 301 300 300 301 300 300 300 300 299 299 298 297 296 295 295
316 316 315 316 321 335 339 338 337 336 336 336 335 335 334 331 328 327 326 325 325 326 320 314 308 307 303 302 301 300 300 301 300 299 299 299 299 299 298 296 295 295 294
315 317 316 315 318 329 337 337 337 336 336 337 336 335 335 335 331 328 326 325 326 324 317 311 310 305 302 301 300 299 298 298 300 300 299 299 299 299 297 296 295 294 294
313 314 316 317 315 320 335 337 336 336 335 335 334 334 334 334 333 330 327 325 326 324 318 313 311 309 303 300 300 300 296 298 295 297 298 299 299 297 295 294 294 293 293
310 312 314 314 315 316 327 336 336 335 333 335 334 335 334 333 332 330 327 325 326 323 317 315 312 309 305 302 298 298 298 298 294 294 295 296 295 295 295 294 293 292 292
309 310 311 312 313 314 317 335 336 335 334 334 334 333 334 333 330 330 328 326 324 322 317 315 312 307 305 305 302 296 295 295 294 292 292 292 294 294 294 293 292 291 290
310 311 311 311 312 312 313 320 335 334 334 333 333 331 332 330 328 326 326 325 323 321 317 314 312 307 305 305 303 301 300 296 293 292 290 290 290 293 292 292 291 290 290

GFSSE_925_thetae_042.txt.gz
Theta_e
341 345 344 344 345 344 344 345 345 345 343 342 341 340 337 336 336 338 338 338 337 336 337 339 339 337 337 336 334 329 321 319 323 323 324 328 330 330 331 330 327 329 330
341 344 344 342 345 344 343 344 344 343 342 341 339 338 335 333 334 336 336 338 337 337 336 339 338 337 336 335 330 328 326 322 321 322 323 323 324 326 330 328 328 328 329
342 344 341 342 342 343 342 342 342 342 341 339 337 335 335 332 330 332 335 337 338 339 339 339 339 336 334 330 326 329 325 325 326 324 326 326 326 324 324 328 333 328 329
343 343 340 342 341 340 341 341 341 342 341 338 336 335 334 331 329 333 336 336 337 338 338 336 334 332 327 326 329 331 329 328 328 325 328 329 332 332 327 325 327 331 332
343 342 340 341 341 341 341 341 340 340 340 340 336 335 334 330 329 332 331 332 334 334 334 334 332 328 323 329 332 331 329 329 328 327 328 330 332 334 335 333 331 328 327
343 340 340 341 341 341 342 340 340 339 339 337 336 335 332 329 329 331 333 332 332 331 331 328 321 323 329 329 331 330 329 329 328 328 329 330 334 335 335 335 334 334 335
342 341 341 340 340 340 338 336 337 338 338 338 337 335 330 329 329 329 330 330 330 329 327 322 323 324 328 330 330 329 329 328 329 329 329 330 333 334 334 334 334 334 334
341 341 341 340 339 336 334 334 333 335 341 338 336 334 332 330 330 329 329 330 330 330 331 332 331 330 330 330 326 325 326 328 328 329 328 330 331 332 332 332 331 330 329
341 340 340 340 335 331 333 330 329 339 339 335 333 333 333 331 329 329 327 330 332 332 332 332 332 330 328 326 324 324 324 327 326 325 327 329 331 330 330 330 329 327 326
341 340 339 336 331 330 330 328 338 337 335 332 332 332 332 332 328 326 324 327 331 331 331 331 330 327 324 322 321 321 323 326 325 324 324 329 329 328 329 329 327 324 323
342 339 338 334 332 331 330 327 335 336 334 327 331 332 333 332 332 329 323 326 330 331 330 330 328 324 319 318 317 318 319 319 319 319 324 329 327 328 328 326 325 323 321
341 342 338 336 334 333 332 328 334 337 336 329 329 331 331 332 332 332 328 325 329 330 330 331 326 321 319 317 315 314 314 314 314 318 325 326 325 326 324 322 320 320 320
341 341 340 339 336 336 334 333 327 336 336 333 327 330 331 331 332 332 331 326 329 330 330 330 325 321 320 317 314 311 309 310 311 312 322 325 323 323 321 319 317 317 315
342 340 340 340 337 337 336 335 330 328 335 335 329 327 330 328 329 330 332 328 326 329 329 328 322 318 317 314 310 307 306 307 308 314 324 322 320 320 318 315 313 312 312
340 340 340 340 342 338 337 336 333 327 332 333 331 329 329 328 331 331 332 329 325 328 328 325 319 317 313 310 308 305 305 305 306 308 317 318 316 316 314 312 311 310 309
341 341 341 343 345 340 339 338 336 331 328 330 332 331 330 329 330 332 331 329 325 327 328 326 318 315 311 308 306 304 303 304 305 306 309 313 312 312 311 309 307 307 307
335 341 343 343 344 342 340 339 338 335 331 328 327 328 330 330 329 331 330 330 328 326 327 323 318 313 309 307 305 303 302 303 304 304 305 306 307 307 307 306 305 304 305
321 334 341 342 342 342 341 339 339 337 335 331 329 326 326 329 328 329 331 330 330 326 326 322 317 311 307 306 304 302 302 302 302 304 304 303 302 301 302 300 299 302 302
316 318 329 338 341 342 341 340 339 339 337 336 334 329 327 325 327 328 328 330 331 326 327 323 315 310 307 306 303 302 301 301 301 302 303 302 300 299 299 298 297 296 296
316 316 316 320 334 338 340 339 338 338 338 337 336 332 330 327 324 326 328 328 329 327 327 322 315 308 307 305 301 300 300 300 300 301 302 301 299 299 298 297 296 295 295
314 315 316 316 316 329 339 338 336 336 336 336 337 335 333 332 328 322 322 325 328 328 327 321 311 308 306 302 300 300 300 300 300 300 301 300 299 299 298 297 296 295 295
313 313 314 315 315 318 336 337 337 336 335 336 337 336 336 334 332 326 324 325 327 327 325 319 312 307 304 302 301 299 297 298 299 299 299 299 299 298 298 297 296 295 294
310 311 312 314 315 315 325 334 336 336 335 334 333 334 336 335 333 330 328 327 326 326 325 321 314 312 305 301 302 302 296 298 296 297 298 299 298 298 298 296 295 294 294
308 310 310 311 312 314 317 333 334 334 334 333 333 335 334 335 335 333 331 328 326 325 323 323 315 311 309 305 300 300 299 300 296 294 294 296 297 297 296 294 294 293 293
307 307 307 309 311 313 314 327 334 334 334 334 333 333 332 333 334 334 333 330 327 325 322 322 317 311 308 309 304 297 296 296 295 294 293 292 294 294 294 294 293 292 292
313 313 311 308 308 310 312 314 332 333 333 333 333 333 332 330 329 330 331 331 328 326 323 321 317 313 309 306 304 303 300 296 294 293 292 291 292 293 293 293 292 291 290

GFSSE_925_thetae_045.txt.gz
Theta_e
340 342 345 344 341 344 345 345 346 344 343 342 342 341 340 340 340 339 339 335 334 338 339 338 338 337 336 335 332 329 323 324 323 323 326 328 331 332 331 324 327 329 332
342 346 345 343 344 344 344 344 345 343 342 341 340 338 337 336 337 337 335 337 338 336 338 338 337 336 335 331 330 329 326 322 321 324 322 320 322 330 330 330 325 328 332
344 346 344 343 342 342 343 344 343 342 341 339 336 335 335 333 333 334 337 337 337 337 338 338 338 336 332 328 330 332 329 325 323 326 326 328 325 325 327 332 331 329 328
344 344 345 340 343 342 341 341 342 341 340 338 335 334 334 331 331 336 337 338 339 340 339 336 332 330 327 329 332 332 327 327 324 327 328 331 333 331 325 324 329 332 332
343 343 341 340 341 339 340 341 341 341 339 337 335 333 334 330 332 336 335 336 337 336 334 332 331 329 329 331 332 329 328 327 327 327 330 333 333 335 335 332 331 328 329
344 342 340 341 340 340 341 341 340 340 340 336 335 334 332 330 332 331 331 333 334 332 331 330 327 329 331 332 333 328 329 328 327 328 329 331 333 335 335 335 334 334 335
344 341 340 341 341 341 341 340 339 339 339 336 334 335 330 330 331 333 332 331 330 330 328 325 329 330 332 332 330 329 328 329 328 328 327 331 334 335 334 334 332 333 332
343 340 341 341 341 341 340 338 338 337 337 335 336 334 331 330 330 331 331 331 330 330 329 331 332 332 331 328 326 327 327 328 328 327 327 330 332 332 333 332 330 329 329
341 340 341 340 340 339 335 330 332 334 339 337 335 333 331 330 330 330 331 331 331 332 332 332 331 331 327 325 324 324 326 327 327 326 328 332 330 330 331 329 328 326 325
341 340 340 340 339 335 333 329 327 334 341 337 333 332 332 327 326 327 327 331 332 331 331 331 331 328 324 323 322 322 326 326 325 326 328 330 328 331 330 328 325 324 323
341 340 339 340 337 330 330 326 328 337 337 334 331 332 332 332 329 327 326 328 330 331 330 331 329 325 320 319 319 321 322 321 320 321 329 327 328 329 327 326 324 322 321
341 342 340 338 334 332 331 327 334 336 335 332 331 333 333 332 332 330 324 326 330 331 329 332 326 321 318 316 315 316 316 316 316 322 328 325 327 327 324 322 322 321 320
340 339 341 339 335 334 333 330 330 336 336 335 327 330 332 331 332 332 330 325 329 330 330 331 325 321 319 317 315 313 311 311 312 318 326 324 324 324 321 319 318 317 315
340 339 339 339 336 335 334 333 329 332 337 335 331 327 330 331 332 332 332 328 326 330 329 329 326 321 318 316 313 310 307 308 311 318 324 323 320 321 318 316 314 313 313
340 340 339 339 337 336 336 335 334 329 333 336 335 328 328 329 330 329 330 331 325 328 329 328 325 318 316 313 310 307 306 306 308 316 321 320 316 318 315 314 313 311 310
340 340 340 339 339 339 338 337 336 335 329 329 333 333 328 327 328 328 330 332 329 326 328 327 323 318 314 311 309 306 304 305 306 310 315 317 314 314 313 311 309 308 309
332 340 340 340 339 339 340 338 337 337 335 329 328 332 331 329 328 328 331 332 330 324 327 327 321 316 312 309 307 305 303 304 305 306 309 311 312 310 309 308 307 306 307
316 324 336 339 340 339 339 342 339 338 337 334 330 329 331 330 330 329 330 331 329 327 326 327 322 315 310 308 307 304 302 303 304 304 306 306 307 306 306 304 303 304 303
315 315 319 334 339 340 341 341 340 339 338 337 335 331 329 329 329 329 329 330 330 329 326 326 320 316 311 307 305 303 302 301 302 304 304 304 303 302 301 299 298 299 297
315 316 316 316 332 338 340 340 338 337 337 337 336 335 333 330 327 328 328 328 330 330 328 325 321 314 309 308 304 301 301 300 300 302 303 303 301 300 299 298 297 296 296
313 314 315 315 315 330 339 338 338 335 334 335 337 336 336 335 331 327 326 328 328 330 330 326 322 311 307 305 301 299 299 300 300 300 302 302 300 299 299 298 297 296 295
309 311 313 313 314 315 329 335 335 335 334 335 334 334 335 336 334 331 327 326 327 327 327 327 324 310 306 305 302 301 304 301 299 299 300 301 300 299 298 298 297 296 295
305 307 309 310 312 313 315 330 335 335 334 333 332 333 333 335 335 334 332 328 324 325 326 327 324 316 305 303 303 305 303 308 300 298 298 298 299 298 298 298 297 296 295
310 309 308 308 309 310 312 326 333 332 332 332 332 331 333 332 333 333 333 331 325 323 324 326 325 318 310 306 301 302 303 302 305 301 295 297 298 298 297 297 296 294 294
311 311 311 311 308 308 309 313 330 332 331 332 332 332 331 331 331 331 331 332 328 325 324 324 323 317 312 308 307 298 296 297 298 300 302 295 295 296 296 296 294 293 293
311 312 312 311 311 311 308 310 321 331 331 332 332 331 331 331 331 329 329 329 328 327 326 325 322 319 315 308 309 306 303 298 295 296 296 295 296 293 293 293 292 292 292

GFSSE_925_thetae_048.txt.gz
Theta_e
345 347 344 344 341 343 344 345 345 344 344 343 343 342 341 340 339 339 334 334 334 339 340 339 337 336 336 334 332 333 333 331 324 323 325 331 333 332 330 323 329 329 330
344 347 345 344 342 343 345 345 345 343 343 342 341 340 340 339 339 338 338 339 337 338 338 339 338 336 334 332 332 330 324 321 322 322 321 319 327 332 334 325 327 330 333
345 347 346 344 339 343 344 344 344 343 341 340 337 337 336 336 336 336 336 337 338 338 337 338 337 335 331 331 332 332 327 323 325 325 328 326 323 326 330 333 329 328 328
347 348 347 342 341 343 345 344 343 342 339 337 335 335 333 332 334 337 337 337 340 339 340 337 330 329 330 332 332 331 326 324 327 330 330 331 331 328 324 327 331 333 331
346 345 348 342 341 341 342 342 342 340 339 337 335 333 333 331 337 338 338 339 339 337 335 331 331 330 331 333 333 331 327 326 327 330 332 334 334 335 335 333 330 330 330
345 345 347 341 342 341 341 341 340 340 338 336 335 333 332 331 336 335 336 335 336 334 332 331 330 331 332 333 333 329 328 327 329 330 332 332 336 335 336 334 334 335 336
344 344 345 340 339 339 341 341 340 341 338 336 334 334 331 331 333 331 332 333 332 329 330 330 330 329 331 331 328 328 328 328 330 330 331 333 334 335 335 334 332 333 334
345 343 343 341 341 341 341 340 339 340 338 336 334 333 331 331 333 332 331 331 329 329 330 331 333 333 331 329 328 328 328 328 330 330 330 334 332 334 333 331 329 329 329
345 342 341 341 342 341 340 340 338 338 337 336 335 332 331 330 331 331 331 331 331 332 333 332 332 332 328 325 324 325 327 328 329 329 329 332 329 332 331 329 327 326 326
344 342 341 340 341 341 340 336 334 333 337 336 335 331 330 328 328 330 328 330 332 331 331 331 331 328 325 323 323 324 327 326 328 329 329 329 331 332 330 327 325 324 323
344 342 342 340 340 339 336 335 331 333 342 338 333 331 331 329 329 328 329 329 330 331 330 331 329 325 322 321 322 323 325 325 325 326 327 326 329 330 328 326 324 323 321
342 343 342 341 339 337 335 335 331 337 339 338 333 332 331 331 330 328 327 328 330 331 330 332 327 322 319 321 320 319 320 320 323 324 326 326 328 327 324 323 323 321 320
342 342 342 341 339 337 335 335 334 338 336 336 332 331 332 333 333 331 328 328 331 331 331 332 326 321 318 316 317 318 317 318 318 322 324 324 327 324 321 320 320 317 316
341 341 340 341 340 337 336 335 334 336 337 335 333 331 332 333 333 333 331 329 330 331 332 333 328 322 318 315 315 316 315 315 317 319 324 323 324 322 319 318 316 315 314
341 342 341 340 342 339 338 337 336 335 336 335 335 332 331 332 332 333 333 331 329 330 331 330 327 320 316 313 312 313 313 313 315 318 320 322 320 319 317 315 314 313 312
342 342 341 341 341 341 339 339 338 337 336 336 335 334 332 331 331 332 333 333 331 329 329 328 326 319 315 312 310 310 311 311 312 315 316 319 316 316 315 314 311 311 311
332 338 341 341 340 340 339 338 339 339 337 336 336 335 334 331 330 330 331 332 333 331 328 327 324 318 314 311 310 308 310 310 311 313 314 314 315 314 313 311 309 308 309
319 322 330 337 340 340 340 339 339 340 339 337 336 335 334 332 331 331 331 332 332 332 328 326 322 317 314 311 310 308 308 309 309 310 312 312 311 310 309 309 307 306 307
318 318 318 327 335 339 340 340 339 339 340 339 337 336 335 334 332 331 331 331 332 331 328 326 322 319 315 312 310 308 306 307 308 308 309 309 309 308 307 305 302 305 302
317 317 317 318 325 333 338 339 337 337 338 339 338 337 336 334 333 331 331 330 331 331 329 325 321 317 316 313 308 306 305 304 305 307 307 307 306 306 305 303 301 301 297
313 314 316 316 317 323 330 338 338 337 337 337 338 338 337 334 333 333 331 330 330 330 330 326 322 317 312 311 307 306 305 304 303 303 306 306 304 304 303 302 301 300 297
309 311 313 314 315 316 323 331 336 337 336 338 335 335 335 335 333 333 332 331 330 329 329 328 323 316 315 309 312 313 313 306 302 302 303 304 304 302 301 300 300 298 298
312 310 309 310 312 313 315 322 330 334 335 335 334 334 333 333 333 332 332 331 330 329 328 328 323 318 316 309 310 317 315 317 307 303 302 302 303 302 301 300 299 298 297
314 313 313 310 309 310 311 314 320 329 333 332 331 332 333 332 332 332 332 331 330 329 327 326 323 320 320 313 307 307 306 307 310 304 300 300 301 301 301 300 298 296 295
314 314 314 313 313 311 310 311 315 322 329 329 330 331 332 332 331 330 330 329 330 328 326 325 321 319 320 318 310 307 303 302 302 306 308 300 299 298 299 298 297 295 294
313 313 313 313 314 313 313 310 312 316 324 328 330 331 332 332 331 329 328 328 328 328 326 324 320 317 317 318 311 310 309 309 306 304 306 301 300 298 297 296 295 294 293

GFSSE_925_thetae_051.txt.gz
Theta_e
347 347 340 344 345 345 344 345 345 345 345 344 343 342 341 340 339 337 337 336 338 340 341 340 338 338 336 333 335 333 328 325 322 322 322 330 332 331 325 328 330 330 333
348 346 340 341 343 344 345 345 345 344 343 342 342 341 341 340 339 337 339 336 336 340 340 339 338 336 334 334 332 328 323 322 321 321 324 322 329 334 331 326 329 332 332
347 348 347 344 342 341 345 345 344 343 342 341 339 338 338 338 337 337 333 339 337 339 338 339 336 333 333 333 333 331 323 323 323 328 328 325 326 328 333 328 329 329 329
347 348 347 344 340 343 346 344 343 342 340 336 334 336 334 333 336 338 337 340 339 339 339 334 330 331 333 333 333 332 325 325 329 331 331 331 330 327 327 330 333 332 329
347 347 348 341 339 344 344 343 343 341 339 337 334 333 332 334 338 339 340 340 340 338 332 329 329 331 333 333 334 328 325 325 330 331 332 335 336 335 336 334 334 335 331
346 347 347 341 341 343 344 343 342 339 338 336 334 332 330 336 338 337 338 338 336 333 331 329 332 332 331 332 330 327 327 328 330 331 332 336 337 337 336 335 335 336 335
344 348 347 341 341 342 342 342 340 339 337 336 334 332 331 335 335 336 334 334 333 330 327 330 331 330 331 331 329 328 328 329 331 330 332 333 335 336 335 334 333 334 334
344 345 345 342 340 339 341 341 340 339 338 336 334 333 331 333 334 333 332 332 331 328 328 331 333 333 332 329 328 328 328 329 330 330 333 333 334 334 332 330 330 329 330
344 343 343 342 340 340 341 341 340 338 338 336 334 332 332 332 334 332 330 331 330 331 332 333 332 331 328 326 325 326 327 330 330 329 331 331 331 332 330 328 327 326 326
345 342 341 341 341 341 342 339 339 339 338 334 335 330 329 328 327 328 329 329 328 329 330 331 331 328 325 324 324 325 327 327 329 329 330 329 331 331 329 327 325 324 324
345 343 341 340 341 340 340 340 337 335 334 336 335 330 327 329 329 324 329 324 328 329 330 331 330 326 323 322 323 324 325 327 326 326 329 324 331 330 328 326 323 323 322
345 343 342 340 340 339 337 337 334 334 338 337 336 333 329 329 328 328 330 327 330 330 330 331 329 324 322 324 322 321 323 323 324 325 328 323 329 327 326 325 323 322 319
342 343 343 342 340 338 335 335 333 333 338 339 336 333 330 332 331 329 329 328 331 330 332 331 330 323 321 320 322 321 321 320 320 323 327 323 326 325 323 322 321 318 316
342 342 342 343 341 339 336 335 334 337 337 336 336 332 332 333 334 331 330 328 330 331 332 333 332 326 322 319 319 320 319 318 318 319 325 322 325 323 320 319 317 316 315
342 343 341 341 342 341 338 336 335 335 338 337 335 333 332 333 333 334 332 331 329 331 331 333 332 327 323 319 318 318 316 316 316 319 324 322 323 321 319 317 316 315 314
341 342 342 341 341 343 340 339 339 338 338 338 337 335 332 332 333 333 334 333 331 329 330 331 330 327 321 318 316 315 316 315 314 317 320 321 321 317 317 316 314 313 313
338 341 342 342 342 342 342 341 340 340 339 338 339 337 335 332 331 332 332 333 333 332 330 330 329 326 321 317 315 314 314 314 313 314 316 318 318 316 315 315 312 311 312
324 326 333 339 342 342 342 341 340 341 341 339 339 338 337 335 332 331 331 332 332 332 332 330 328 325 320 316 315 313 312 313 313 312 314 314 316 314 313 312 310 309 310
321 322 322 324 332 339 341 341 339 339 341 341 340 339 338 337 335 332 331 331 331 332 331 330 328 324 320 318 315 314 311 312 311 311 311 312 312 312 311 309 308 306 307
319 319 320 320 321 326 333 337 340 338 338 340 341 340 339 338 336 334 333 332 331 332 331 331 328 325 322 319 316 313 310 309 310 310 310 310 310 309 309 307 305 304 303
316 317 318 319 319 320 324 330 340 339 337 336 339 341 340 338 337 336 334 333 332 331 332 331 329 326 321 319 315 310 310 309 307 307 309 309 308 308 307 306 303 303 301
313 313 314 316 318 319 319 322 329 338 337 336 336 338 340 339 338 336 336 334 333 332 332 331 329 326 321 318 314 314 316 311 307 306 306 308 307 306 305 304 304 302 301
316 315 313 312 313 315 317 318 321 329 335 337 337 336 336 336 338 337 335 335 334 332 332 331 330 326 322 317 315 318 320 321 310 307 305 305 306 305 304 303 302 302 300
316 317 316 315 313 312 313 314 316 321 329 333 335 335 334 334 334 334 335 334 334 333 332 331 331 328 322 319 313 315 319 314 315 308 304 304 304 305 304 302 301 300 299
316 316 316 316 316 315 313 312 314 315 318 323 329 331 331 332 334 333 332 332 332 333 332 331 330 329 323 322 313 314 313 309 307 310 307 303 302 302 303 302 301 299 298
316 316 315 315 315 315 315 315 313 313 315 318 324 329 330 331 332 333 331 329 330 330 331 330 330 328 324 323 320 316 313 312 308 307 310 305 302 301 300 300 300 298 296

GFSSE_925_thetae_054.txt.gz
Theta_e
347 343 345 345 345 345 344 345 345 344 344 343 343 343 342 340 339 338 336 334 339 341 341 339 339 337 337 337 335 330 323 321 319 318 319 326 332 329 329 330 331 333 334
347 342 345 345 344 345 344 345 344 343 342 340 340 341 340 339 338 338 339 334 339 339 339 338 336 336 335 334 332 324 321 320 324 325 325 320 328 334 328 329 327 332 333
346 345 343 343 344 343 345 345 343 342 340 340 339 339 338 338 334 335 335 338 339 338 340 337 334 334 334 334 332 326 322 326 329 328 326 326 321 331 333 330 329 330 331
347 344 343 343 342 343 344 344 342 341 340 335 333 336 335 334 338 339 339 338 339 340 338 330 332 333 332 333 330 322 323 330 331 332 334 331 333 329 331 332 333 332 332
348 347 346 344 340 345 343 342 341 339 337 335 333 333 333 338 341 341 341 339 340 337 329 327 329 332 333 333 330 323 325 330 331 331 331 333 335 336 336 337 337 333 334
347 348 345 340 341 342 342 341 341 339 337 335 333 330 333 339 339 341 339 339 337 331 329 327 330 332 333 332 328 325 329 330 330 332 333 334 335 337 337 335 336 336 336
349 348 342 339 342 345 343 341 339 339 337 335 333 330 333 338 337 335 336 336 332 329 327 329 332 331 331 328 327 327 329 330 330 331 331 331 335 335 334 334 333 334 333
349 348 342 339 341 342 342 341 340 338 337 335 333 331 332 335 336 333 333 334 332 327 327 329 331 330 328 328 328 327 327 330 330 330 331 329 332 333 331 330 329 329 330
346 346 342 341 340 339 340 340 340 338 337 336 333 330 330 334 333 333 331 332 330 327 326 330 330 328 327 325 325 327 328 330 329 331 330 329 331 331 330 328 327 327 326
343 344 342 341 339 339 340 340 340 338 338 335 334 332 325 326 332 331 330 331 328 326 327 330 329 327 325 324 324 325 326 329 329 329 330 327 330 331 329 326 325 325 324
344 342 342 341 340 339 340 339 338 337 338 334 335 331 323 322 320 319 329 327 325 327 330 330 329 326 324 322 324 325 326 327 327 328 329 325 330 329 327 325 323 323 321
345 342 341 342 342 342 341 341 338 337 333 335 335 333 323 329 328 326 327 327 326 329 330 330 329 325 322 322 322 322 323 323 324 326 328 324 328 328 326 325 323 321 319
343 343 342 340 340 339 337 337 334 334 335 336 336 334 328 329 328 328 329 327 327 331 330 330 330 325 321 324 323 321 321 321 321 323 326 324 326 326 324 323 321 318 317
342 342 343 343 340 339 336 335 334 333 336 336 338 334 330 331 330 330 329 326 325 329 331 331 330 328 321 320 319 320 320 319 318 321 324 323 322 324 322 320 318 317 316
342 341 341 342 342 340 337 335 335 333 339 339 338 335 332 332 333 333 330 329 327 331 330 332 331 330 324 321 319 319 318 317 317 319 322 323 322 322 320 319 317 316 315
341 342 342 341 341 342 339 337 335 335 336 337 336 335 332 332 333 334 333 331 329 329 331 332 333 331 325 322 318 317 317 316 315 318 320 322 321 321 318 317 317 315 315
340 341 342 342 341 341 342 339 338 338 337 338 338 336 334 332 333 333 333 334 332 330 329 330 331 330 327 321 318 315 315 315 314 315 318 320 319 320 315 317 315 314 314
326 326 339 342 341 341 342 343 340 340 341 339 339 338 337 335 332 332 332 332 333 333 331 329 330 329 326 321 317 315 314 314 314 313 315 317 318 316 315 316 314 312 312
322 323 323 324 336 342 342 341 342 340 341 340 339 339 339 337 335 332 332 332 332 332 333 331 330 329 326 321 317 315 313 313 313 312 313 314 316 315 313 312 311 310 310
318 319 321 322 322 324 331 341 341 340 339 339 341 341 339 338 337 335 333 331 331 331 332 332 331 329 327 322 318 315 313 311 312 311 311 312 313 313 312 311 309 308 307
314 315 317 318 319 320 320 324 338 341 340 338 335 339 341 340 338 337 335 333 332 331 331 332 331 329 327 322 319 316 312 311 310 310 310 310 311 311 310 309 309 307 304
313 313 313 314 316 318 319 319 323 335 338 338 337 333 338 341 339 338 337 335 333 332 332 332 331 330 327 323 318 312 308 310 309 308 309 309 309 310 309 308 306 305 302
316 316 315 313 312 313 315 317 318 318 332 338 336 335 333 334 338 339 338 337 335 333 332 331 332 329 326 323 320 314 314 314 307 308 307 307 308 308 308 307 306 304 303
316 317 317 316 316 314 312 312 314 315 317 326 336 336 336 336 334 333 336 336 336 335 334 332 332 330 327 321 319 316 319 317 309 305 306 306 306 307 307 306 305 304 303
316 316 316 316 315 315 315 314 312 313 314 315 317 321 332 334 333 334 333 331 333 333 333 333 331 331 330 324 318 315 314 315 312 307 303 303 304 305 306 305 304 303 302
315 314 314 314 314 315 315 315 316 314 313 313 315 317 321 327 330 331 332 333 331 329 331 331 332 331 330 326 320 316 315 316 310 306 308 303 302 303 304 304 303 302 301

GFSSE_925_thetae_057.txt.gz
Theta_e
345 344 344 343 344 343 344 344 343 344 343 343 343 343 342 340 338 334 334 339 340 341 339 339 338 339 338 336 329 322 321 320 323 318 318 328 330 333 334 332 333 334 333
343 345 344 345 345 343 345 343 343 344 342 340 340 340 341 338 337 338 332 337 339 339 338 336 336 336 335 332 323 320 322 325 325 325 320 323 329 331 331 330 332 334 334
343 345 344 343 344 343 344 344 342 340 338 338 338 338 337 332 337 338 337 339 341 341 336 335 334 334 334 331 322 322 328 328 327 326 325 325 326 334 334 329 330 331 332
342 344 344 344 343 343 343 342 341 338 339 336 336 335 330 336 339 338 338 340 341 339 334 334 333 333 333 328 321 326 330 330 333 333 328 333 332 333 335 334 333 335 332
341 343 344 345 342 344 342 341 340 338 335 333 332 330 334 341 340 340 340 339 339 331 330 331 331 332 332 325 322 329 330 331 331 332 333 334 335 337 338 337 334 335 335
342 342 343 342 341 343 341 341 339 337 335 334 329 331 339 340 339 340 341 339 334 330 328 328 331 332 328 324 325 330 330 330 331 331 332 334 336 336 337 335 334 335 335
347 344 343 340 342 342 341 341 339 338 335 334 329 331 338 339 339 338 338 335 331 328 324 325 329 328 327 326 325 329 330 330 330 330 331 333 334 333 333 333 332 333 334
347 343 339 339 343 343 342 340 339 337 336 334 330 327 337 337 335 335 335 333 331 327 324 326 329 327 326 326 326 329 329 330 331 330 330 329 332 332 330 330 330 331 330
347 343 339 340 342 342 340 340 339 337 336 333 332 323 335 334 334 333 333 333 332 326 324 326 326 326 326 326 326 326 330 329 331 330 329 328 330 330 329 328 327 327 326
346 343 339 340 340 341 340 339 339 337 336 336 333 328 325 332 332 329 331 332 330 325 324 326 327 326 324 323 323 326 329 329 329 329 329 328 331 330 328 327 326 324 323
344 342 339 339 338 338 339 339 338 338 337 335 332 332 321 323 328 328 328 331 328 325 326 328 327 325 323 322 324 325 327 327 328 328 328 327 329 329 327 325 324 323 321
341 342 341 340 337 338 339 338 337 337 336 334 333 333 321 320 318 319 329 326 323 326 329 329 328 325 322 321 323 324 325 324 325 326 327 325 328 328 326 325 323 320 319
342 341 341 341 340 340 340 340 338 337 336 332 334 334 322 328 328 325 326 327 323 328 330 330 329 325 323 323 321 321 322 322 323 324 325 325 325 326 325 324 322 319 318
343 343 342 341 341 341 340 339 336 332 331 331 335 335 324 328 329 330 328 328 323 328 330 329 329 328 321 320 323 321 321 321 319 323 323 324 323 324 323 322 320 318 317
340 343 342 341 339 338 338 335 335 333 332 335 335 337 332 329 329 329 330 328 325 323 327 329 330 329 323 321 319 319 319 319 318 318 321 323 322 322 322 320 319 317 317
342 341 341 342 341 339 336 335 334 333 332 337 337 338 335 331 331 331 332 330 329 327 328 330 331 331 328 323 322 319 318 318 317 316 320 321 322 321 320 320 318 317 317
341 341 341 339 342 341 340 336 335 334 335 338 337 336 334 332 331 333 333 332 331 330 329 331 331 332 332 324 323 319 317 316 316 315 319 320 321 321 320 318 318 317 316
335 340 341 342 341 339 342 341 338 337 336 337 337 337 336 335 332 332 333 333 333 331 329 329 330 332 330 326 323 319 316 315 315 314 315 318 319 319 319 316 318 316 316
321 323 331 342 342 341 339 341 342 339 339 340 339 338 338 337 337 332 331 332 332 332 332 331 329 329 329 327 323 319 316 314 314 314 313 315 317 317 316 314 316 314 314
317 318 319 320 333 340 340 341 341 341 340 339 339 339 338 338 338 336 334 332 331 332 332 332 331 329 329 328 323 319 317 314 313 313 313 313 315 316 315 314 313 312 311
314 315 316 317 317 317 321 331 340 341 341 339 338 340 339 339 338 337 336 336 333 331 331 331 332 331 330 328 322 318 315 315 312 312 313 312 313 314 314 313 312 311 309
314 313 313 313 314 315 316 318 319 333 339 339 339 338 337 336 337 338 336 336 335 332 331 331 331 331 330 328 321 312 309 310 310 310 311 311 311 312 313 312 311 310 309
316 315 316 315 314 313 313 314 315 315 323 332 336 337 337 335 332 331 336 337 336 335 332 331 331 331 328 327 324 318 310 310 308 311 310 309 310 310 311 311 310 309 308
316 316 316 316 315 315 315 313 312 312 313 314 317 322 329 335 334 335 333 332 332 334 334 333 332 330 329 325 321 320 318 315 309 309 307 308 308 309 309 310 309 308 306
316 315 315 315 314 314 315 315 315 314 312 312 313 314 316 318 327 334 334 333 331 331 330 332 333 332 330 328 324 321 316 316 312 306 307 305 306 306 308 308 308 307 306
314 313 313 314 314 314 313 314 314 315 315 315 315 314 314 315 318 327 330 330 331 332 330 329 328 329 331 329 326 322 320 318 316 307 307 305 305 305 305 307 306 306 305

GFSSE_925_thetae_060.txt.gz
Theta_e
345 343 344 345 344 345 346 345 344 344 343 342 343 343 341 339 335 337 340 340 341 340 340 339 339 340 337 330 325 321 329 328 321 319 323 329 334 334 332 334 333 333 334
344 343 343 345 345 344 345 344 344 342 341 341 340 339 340 339 337 337 339 340 339 338 336 336 336 336 334 328 322 326 327 326 325 322 324 324 328 332 331 333 333 334 333
343 343 343 344 344 345 343 343 342 341 339 339 338 338 335 335 337 336 338 341 341 337 336 335 334 334 331 323 325 328 327 328 326 326 326 327 332 334 329 330 332 332 332
344 345 344 344 343 343 343 341 340 338 338 338 338 335 332 338 338 338 339 341 340 336 334 333 333 333 326 322 330 330 330 332 331 329 333 332 333 335 335 332 335 334 332
344 344 343 344 343 343 342 340 338 337 335 331 334 328 340 340 339 338 341 340 335 330 327 331 331 328 322 324 329 329 330 331 332 333 334 335 336 338 337 335 335 335 337
344 343 344 344 342 342 341 340 338 336 333 329 329 338 340 341 340 339 340 338 331 329 326 328 330 323 321 325 329 329 330 331 332 332 334 335 335 336 336 333 334 336 336
343 344 345 344 342 341 340 339 338 336 333 329 329 339 339 340 339 339 338 335 330 328 321 322 324 325 322 327 329 329 331 332 331 331 332 333 333 333 333 332 333 333 333
341 342 343 340 342 340 340 340 339 336 334 332 324 338 340 339 341 342 336 331 330 327 319 325 325 325 325 325 329 329 330 330 330 330 329 332 332 332 331 330 330 330 331
344 343 341 340 342 342 340 339 339 336 335 331 324 330 337 336 336 336 334 332 331 327 320 323 324 325 325 325 328 329 329 330 330 329 328 328 330 330 329 328 328 327 327
344 340 338 342 343 341 339 339 338 337 335 334 330 320 331 334 333 334 334 333 332 327 323 324 326 325 324 324 325 328 328 329 330 329 328 328 330 330 328 327 326 325 324
342 340 339 341 341 341 339 338 339 337 336 335 333 327 324 329 329 328 331 332 331 327 325 328 327 325 323 322 324 328 328 327 328 329 328 329 331 329 328 326 324 323 322
343 340 338 339 339 339 339 339 338 338 337 336 333 332 320 323 326 325 325 329 330 326 326 329 327 325 323 322 323 325 327 324 327 328 328 327 329 329 327 325 323 321 320
342 340 339 338 337 338 339 338 338 337 336 335 332 333 324 320 318 319 327 328 326 323 326 330 329 326 322 321 322 323 324 322 323 327 327 326 327 328 327 325 322 320 319
340 341 340 339 338 337 338 338 338 337 336 335 330 333 333 322 326 326 324 325 321 321 325 328 329 328 322 323 322 320 321 321 321 324 325 325 325 326 326 324 321 319 318
341 341 340 340 340 338 339 339 339 336 334 330 329 333 334 323 328 329 329 328 327 324 323 327 328 328 327 321 320 322 320 320 320 319 322 324 323 323 324 324 321 319 318
341 342 342 341 340 340 340 340 337 335 332 332 334 334 335 330 328 329 329 329 329 327 322 323 327 329 330 326 320 319 319 319 319 318 318 322 322 322 322 322 321 319 318
341 341 342 341 340 338 337 337 335 334 334 332 334 336 337 335 330 330 330 329 332 331 329 326 329 330 331 330 324 322 320 318 318 317 316 319 321 322 321 322 321 320 319
340 341 339 339 340 341 339 336 334 334 334 333 333 337 336 337 334 331 331 331 332 332 330 329 329 330 330 331 331 325 323 319 317 316 315 317 320 321 321 320 320 320 319
331 337 340 340 340 340 340 341 339 337 336 337 336 337 336 336 334 332 331 332 332 332 332 330 328 330 330 331 332 327 322 320 317 315 315 315 318 319 319 318 318 317 318
317 320 328 339 340 341 341 339 340 341 339 337 339 338 337 337 336 335 336 334 331 332 332 332 330 329 328 329 329 325 322 319 317 315 314 314 314 317 318 317 317 316 315
314 314 315 316 318 327 338 340 340 340 341 341 339 339 339 338 338 337 335 334 334 331 331 331 332 331 329 328 326 323 320 318 316 315 313 313 313 313 317 317 316 314 314
314 314 313 313 313 314 315 318 327 334 338 339 340 339 337 337 337 336 335 334 335 334 332 331 331 330 330 329 324 314 315 317 316 316 314 312 312 312 313 316 316 314 313
315 315 315 315 315 314 313 312 313 314 317 329 329 330 330 335 337 336 335 333 331 335 334 332 330 330 329 328 326 324 311 314 309 314 315 313 311 312 311 312 315 314 313
315 315 315 315 315 315 315 314 313 311 312 313 313 315 319 323 329 333 334 334 333 332 333 332 331 331 329 328 325 323 322 314 310 311 311 311 309 309 310 310 312 313 313
315 314 314 314 314 314 314 314 314 314 314 313 313 312 312 314 315 318 322 333 333 331 330 330 330 330 331 329 327 324 320 316 312 310 317 310 309 310 308 308 309 310 311
313 313 313 313 313 313 313 313 314 314 315 315 315 316 315 315 316 317 322 327 330 332 330 330 329 328 328 328 328 327 323 318 318 315 310 311 308 309 308 307 308 308 309

GFSSE_925_thetae_063.txt.gz
Theta_e
344 344 344 346 346 345 345 345 343 342 341 342 343 342 339 338 340 340 340 340 341 341 340 340 340 339 336 334 333 334 332 326 324 325 329 332 334 334 336 334 332 332 332
344 345 344 345 345 345 344 344 343 341 341 341 341 341 341 338 339 340 340 339 338 337 336 336 337 335 332 331 328 328 327 324 324 322 323 325 329 331 334 332 332 333 333
345 344 344 345 343 344 343 343 341 342 342 339 338 337 336 338 336 338 341 340 338 337 335 334 335 334 332 327 328 327 327 326 327 328 327 330 332 330 330 329 332 332 331
344 344 344 343 344 343 341 343 341 339 339 337 336 334 334 336 337 337 341 340 337 335 333 333 334 329 326 330 331 331 331 330 329 333 332 332 334 335 332 334 335 332 333
344 343 344 343 344 341 342 341 338 337 337 337 336 331 336 338 338 337 342 339 331 327 323 329 328 325 325 330 330 330 330 330 331 332 334 336 337 337 335 335 335 337 336
344 344 344 343 342 342 340 339 337 336 331 332 331 340 340 337 339 341 341 337 330 326 314 317 321 322 326 329 329 329 330 331 331 333 335 335 335 337 336 335 335 334 334
344 342 343 342 341 342 340 338 337 335 329 327 337 340 339 341 340 340 339 334 330 326 315 319 321 321 326 329 329 330 331 331 331 333 334 333 332 332 332 331 332 332 332
343 344 344 342 342 341 340 338 337 336 329 324 335 338 338 339 339 338 337 332 330 327 319 322 324 322 325 328 329 330 331 331 331 330 330 331 332 332 331 331 329 330 331
343 344 344 342 342 339 339 339 338 336 333 323 330 336 336 338 338 337 334 331 332 329 322 323 325 325 325 326 328 329 329 330 329 329 328 328 329 330 330 329 328 328 328
341 342 342 340 340 340 340 339 339 336 335 328 320 335 336 335 336 336 334 333 333 329 325 326 326 326 325 325 327 328 328 329 329 329 328 328 330 330 329 327 326 325 324
343 343 341 341 342 340 339 338 338 337 335 334 331 321 331 333 333 333 333 333 332 329 323 324 326 325 324 323 325 326 328 329 329 329 328 328 330 330 329 327 325 323 322
344 342 339 340 343 341 339 339 338 337 336 335 334 329 322 326 328 328 330 332 331 328 324 323 325 325 323 322 322 325 327 326 327 328 328 328 330 330 328 326 324 322 321
342 341 340 342 342 341 339 338 338 338 337 336 335 331 327 321 323 325 324 327 330 328 325 327 327 325 324 321 322 324 325 325 323 326 327 328 328 330 328 326 324 321 320
342 341 339 339 339 340 339 338 338 337 337 335 334 331 332 322 319 318 318 327 328 325 323 324 327 327 325 321 321 321 323 323 321 322 325 327 326 329 328 327 324 321 320
341 340 339 339 338 337 338 338 338 337 337 336 335 331 332 332 321 325 324 324 325 323 320 322 325 328 327 325 322 322 321 320 320 320 321 324 325 325 327 327 324 321 320
340 340 340 339 339 338 337 338 338 338 337 335 332 330 331 333 323 326 328 328 328 328 326 324 322 326 327 327 327 321 320 320 319 319 319 321 323 324 323 326 325 322 320
340 341 340 340 340 340 338 339 339 339 337 334 332 334 333 334 334 328 329 329 329 330 329 327 325 325 327 329 330 327 321 320 319 319 318 317 319 321 322 324 324 323 321
340 340 340 341 340 339 340 340 339 338 335 334 333 332 334 335 336 335 331 330 330 330 331 330 328 327 328 329 330 331 329 324 322 319 318 317 316 319 320 321 321 323 322
337 339 340 339 339 340 339 337 336 335 334 334 333 333 333 335 336 336 336 332 330 330 330 331 330 328 329 329 330 330 330 331 327 322 318 317 316 316 319 320 320 319 320
321 333 336 339 339 340 339 339 339 338 337 335 336 337 336 336 337 335 336 335 331 330 331 331 330 330 329 329 328 329 329 330 329 322 319 317 316 315 316 318 319 319 318
314 316 322 332 337 338 340 340 339 338 339 340 339 337 338 338 336 335 334 332 331 331 332 331 331 330 329 328 326 325 326 326 324 323 319 316 315 315 314 315 318 318 318
313 313 314 314 314 315 320 330 335 338 339 339 339 340 339 337 337 337 337 336 335 335 334 333 331 329 329 329 326 318 322 324 325 325 322 318 316 314 313 313 315 317 318
314 315 314 314 314 313 313 313 314 315 317 322 330 333 334 335 334 336 336 336 335 334 332 331 333 331 328 328 327 326 318 318 312 321 322 320 318 316 313 312 312 315 317
314 314 314 314 314 314 314 314 313 311 312 313 315 315 315 316 318 320 326 332 334 333 333 332 331 332 330 327 326 325 325 321 317 320 316 316 314 312 311 311 311 311 312
314 313 313 313 313 313 313 314 314 314 313 313 313 313 312 312 313 314 317 319 324 331 333 332 330 330 330 329 328 327 324 321 317 311 320 318 315 314 313 310 309 309 309
312 313 313 312 312 312 313 313 313 314 314 314 315 315 315 315 315 316 317 319 323 325 330 332 331 330 328 327 327 326 324 321 317 315 313 315 315 315 316 314 312 311 307

GFSSE_925_thetae_066.txt.gz
Theta_e
343 344 345 346 346 345 346 346 344 342 341 340 340 339 339 340 340 340 340 340 341 340 340 340 339 338 336 335 334 331 331 327 323 324 331 333 333 336 334 331 331 330 332
343 344 344 345 345 345 343 342 341 340 340 340 341 341 340 340 340 341 339 338 337 336 337 338 337 334 333 334 334 331 326 323 322 322 323 324 328 333 334 329 329 332 332
343 344 344 344 344 344 343 341 341 341 341 339 337 338 339 337 339 341 340 338 337 334 334 335 335 333 333 333 330 328 326 327 328 328 329 331 329 330 329 328 331 332 331
345 343 344 344 343 342 342 341 342 342 339 338 335 334 335 337 337 340 341 339 336 331 333 334 333 330 332 330 330 329 329 328 332 332 333 334 335 333 334 336 335 335 336
344 343 344 342 344 342 342 342 339 337 337 337 336 331 338 338 337 341 341 335 330 321 329 331 329 327 330 330 330 329 329 330 330 333 336 336 335 335 335 333 336 334 336
343 343 343 344 343 342 341 340 337 335 336 331 333 338 338 339 338 342 340 334 330 318 323 325 324 325 329 329 329 329 330 330 331 335 336 335 335 336 335 334 333 333 335
343 343 343 343 342 341 340 338 336 335 326 329 339 339 338 339 340 342 339 333 330 319 321 323 323 326 328 329 329 330 330 330 331 333 333 333 333 332 331 331 330 331 332
343 344 343 342 341 341 339 337 337 334 326 328 338 339 339 340 340 339 337 331 330 324 322 324 323 324 328 328 328 331 331 330 330 330 330 330 330 331 331 330 327 328 330
342 343 343 341 341 340 339 338 337 334 327 325 337 337 337 338 337 337 335 331 332 330 325 326 326 325 326 327 328 328 329 330 329 329 328 327 327 330 330 328 326 326 327
342 344 344 342 341 340 339 338 338 336 331 321 335 336 336 337 337 336 334 332 332 330 321 322 324 325 325 325 327 327 328 328 329 329 328 327 330 330 329 326 326 324 323
345 345 344 341 340 340 339 339 338 337 335 331 321 330 335 335 335 336 334 333 333 331 325 321 324 324 323 323 324 327 328 328 329 328 328 328 329 331 329 326 324 322 321
344 343 342 340 340 341 340 339 337 337 336 334 333 327 324 329 331 332 333 332 332 331 327 322 325 326 324 322 322 323 327 327 327 327 327 328 329 331 329 327 323 321 320
343 343 342 340 342 341 340 339 338 337 336 335 335 333 327 322 325 326 326 325 330 330 328 324 325 325 324 322 321 322 324 326 325 323 326 327 327 331 330 328 326 322 321
343 342 340 339 341 342 340 339 338 337 337 336 335 334 330 327 320 320 320 320 324 328 328 325 323 326 326 324 321 320 322 323 324 321 322 325 326 329 330 329 326 323 321
343 341 340 339 342 341 340 339 338 337 337 336 335 334 331 330 329 319 318 318 323 325 322 321 322 324 326 326 325 322 321 321 320 320 320 321 323 325 328 328 327 325 322
342 341 340 338 338 338 339 338 338 337 337 337 336 334 333 329 331 324 323 326 326 327 328 326 324 323 324 326 326 326 325 320 320 320 319 319 319 322 324 327 327 326 323
342 341 340 339 338 338 338 336 337 337 337 337 336 333 332 330 331 333 325 327 328 328 329 329 328 327 325 325 326 328 329 328 322 320 319 318 318 318 320 322 326 326 324
340 340 340 340 339 339 339 338 337 338 338 338 336 333 332 333 334 334 334 332 330 329 329 329 330 329 328 327 328 329 329 330 330 327 323 322 319 317 317 319 320 325 325
337 338 339 340 340 340 339 339 339 339 338 338 336 334 333 332 332 334 335 335 335 333 330 329 329 329 329 329 329 329 329 329 329 330 330 326 321 318 316 317 318 319 321
333 332 337 338 338 338 339 338 337 336 336 336 335 333 333 333 333 333 333 335 335 335 333 329 329 329 329 329 328 328 328 328 328 328 329 330 325 321 317 316 317 319 320
314 321 329 332 337 338 338 338 338 338 338 338 337 336 335 336 337 336 335 335 334 333 333 331 330 330 329 329 326 326 328 328 327 328 327 327 326 322 318 315 315 316 319
313 314 317 319 321 324 331 337 337 338 338 338 338 338 338 338 338 337 337 337 336 334 333 333 331 329 329 329 327 321 325 325 326 326 325 325 325 321 317 314 313 314 316
313 313 314 314 314 314 313 314 315 318 321 325 329 332 334 335 336 336 336 336 336 335 335 334 333 331 328 328 327 326 322 322 315 325 325 324 323 321 317 314 313 312 312
314 314 314 314 314 314 314 314 313 312 311 312 313 314 314 314 314 316 319 322 327 331 333 333 332 332 330 328 327 327 325 322 320 321 321 322 322 322 321 320 316 313 311
313 313 313 313 313 313 313 314 314 313 313 312 313 313 313 313 313 313 315 316 318 321 325 329 332 332 330 328 328 327 326 322 320 315 321 319 319 320 320 319 318 317 314
311 312 312 312 311 312 312 313 313 313 313 313 314 314 315 315 314 314 315 316 317 319 322 323 327 330 330 329 328 326 323 322 319 316 314 314 315 317 318 318 317 316 315

GFSSE_925_thetae_069.txt.gz
Theta_e
343 343 346 345 345 344 345 347 347 345 341 342 342 341 341 338 341 340 340 341 340 340 339 340 339 339 337 336 333 325 322 325 324 329 325 330 336 337 334 330 329 332 332
343 346 345 345 345 344 345 345 343 340 340 341 341 340 340 339 341 339 338 337 336 337 338 338 336 337 336 334 330 328 324 323 323 323 323 324 329 334 330 325 329 329 330
345 347 346 345 344 344 343 342 339 340 340 336 338 339 338 339 341 340 339 338 334 334 335 336 335 335 334 332 330 328 327 329 328 329 332 332 331 332 333 330 332 334 332
345 347 347 344 344 343 341 340 340 342 339 336 335 333 337 338 340 341 339 337 332 333 334 335 334 333 332 331 330 329 328 331 332 335 335 335 334 334 336 336 336 336 335
346 344 345 343 343 342 340 341 341 339 337 336 332 331 336 335 341 342 339 332 321 323 331 330 328 330 330 330 328 328 329 329 333 335 336 336 338 336 337 336 337 335 334
344 343 344 342 342 342 341 340 338 336 336 336 332 333 335 337 341 340 337 330 320 319 327 327 326 328 329 328 328 329 329 330 335 335 336 336 337 335 334 333 333 335 334
343 344 343 344 341 341 341 338 336 333 328 330 338 335 335 336 342 340 336 330 324 322 324 325 326 328 329 329 330 330 329 331 333 333 332 333 333 332 332 331 330 330 331
344 344 345 344 341 341 339 337 336 330 328 338 339 337 333 338 341 339 335 330 329 322 328 330 327 328 329 329 329 331 330 330 329 329 329 330 329 331 331 328 324 328 328
343 344 344 342 341 340 338 337 336 327 326 337 338 338 339 339 338 337 334 331 331 322 322 324 324 324 327 328 328 328 329 329 329 328 328 328 329 331 329 326 322 324 326
344 343 342 340 341 340 338 337 336 334 323 336 337 336 336 336 336 336 334 331 332 330 323 324 325 325 324 326 327 327 328 328 328 328 327 327 329 330 328 324 320 320 323
344 343 343 341 341 340 338 338 337 336 329 321 334 335 335 336 336 336 333 332 333 331 326 322 325 325 324 324 324 326 327 327 328 328 327 327 328 331 329 326 322 320 319
343 346 344 342 341 339 339 338 337 336 335 333 328 324 328 331 332 333 333 333 332 331 329 323 322 325 324 323 322 322 325 327 327 327 326 327 327 332 330 328 324 320 318
341 345 344 342 341 341 340 339 337 337 336 335 334 333 327 323 325 326 328 329 331 331 330 326 322 324 325 324 322 321 322 324 326 325 323 325 326 330 331 329 327 323 320
341 343 342 341 341 341 340 339 338 337 337 336 335 334 332 328 322 321 322 323 322 325 328 327 324 322 325 325 324 321 320 321 323 324 322 321 324 326 331 330 328 325 323
340 342 342 340 341 342 340 339 338 338 337 336 335 335 333 330 329 325 319 318 318 324 325 323 321 321 322 325 326 326 323 322 321 320 320 320 320 322 325 330 329 328 325
342 342 341 339 339 341 341 340 339 338 337 337 336 335 334 333 329 330 325 321 323 324 326 327 327 325 325 324 324 325 326 327 326 321 319 320 319 319 321 324 328 328 327
343 342 340 339 339 339 339 339 338 337 337 337 337 336 334 333 331 330 332 325 326 327 328 328 329 329 328 327 327 327 327 328 329 329 326 322 321 320 318 320 326 328 327
341 342 341 339 338 338 338 338 337 336 337 337 337 337 335 332 332 332 332 334 333 330 328 328 328 328 329 329 329 329 329 328 329 329 329 329 328 324 321 318 318 323 327
339 339 339 339 339 339 339 338 338 338 337 337 338 338 336 334 332 332 332 333 334 334 334 333 330 329 328 329 329 329 329 329 329 329 329 329 329 329 327 322 317 318 321
335 336 338 338 339 339 339 339 338 338 338 338 338 338 337 334 333 332 332 332 333 334 335 334 334 332 329 328 327 328 329 329 330 329 329 329 328 328 328 326 319 316 318
317 324 331 337 338 338 338 338 338 338 338 337 336 335 334 333 332 335 336 336 334 334 334 333 332 331 328 329 326 327 329 329 328 328 328 327 326 326 325 323 319 316 315
312 314 320 327 332 336 337 337 337 337 337 338 338 337 337 337 337 337 336 336 336 336 335 334 331 328 328 330 328 324 329 327 326 326 326 325 324 323 324 322 319 317 315
312 313 314 316 318 319 323 328 331 331 330 330 331 333 334 335 335 335 335 335 335 334 334 334 334 332 328 330 328 327 327 327 319 324 323 324 324 323 321 319 318 319 316
312 313 313 313 313 313 313 313 312 312 312 312 312 314 314 314 314 315 317 319 321 324 328 330 331 331 330 328 327 326 326 324 325 324 322 322 322 321 320 319 319 318 318
313 313 313 313 313 313 313 313 313 313 312 312 312 312 313 313 313 313 313 314 315 316 318 323 327 328 329 328 325 325 325 322 320 319 321 320 320 318 318 318 319 317 315
312 312 312 312 312 312 312 313 313 313 313 313 313 314 314 314 314 314 314 314 314 316 318 320 322 324 325 326 327 325 325 322 320 318 317 316 317 317 317 316 317 314 313

GFSSE_925_thetae_072.txt.gz
Theta_e
346 349 346 343 344 344 345 345 345 344 343 343 342 342 340 342 341 341 341 340 339 340 341 341 341 339 337 336 333 326 328 327 325 322 333 336 337 336 333 328 331 332 334
344 349 346 344 344 344 345 345 343 341 341 341 341 341 341 341 339 339 338 337 338 339 338 339 339 338 337 335 328 326 325 325 325 325 328 326 327 331 331 332 333 331 331
345 348 348 345 344 344 344 343 341 340 338 339 341 340 340 342 340 340 338 335 335 337 338 338 337 337 335 330 328 328 330 329 330 333 334 333 334 336 336 336 336 335 332
346 349 348 345 344 344 342 339 340 341 336 334 337 337 340 342 341 340 338 333 334 335 336 337 336 333 331 330 328 329 331 333 335 337 336 335 335 337 338 339 337 336 333
347 346 349 343 344 342 340 340 343 339 337 335 327 336 337 341 342 340 333 325 331 334 334 334 333 330 330 328 329 329 329 334 337 338 337 338 337 336 335 335 337 334 335
346 345 346 344 343 341 340 342 339 338 336 335 330 334 337 341 343 338 331 322 326 332 331 330 330 329 328 329 329 329 330 335 337 336 336 334 333 334 333 331 333 335 335
344 346 347 343 342 341 341 339 336 334 331 332 333 333 336 341 342 338 331 325 324 328 329 328 329 329 329 330 330 329 331 334 334 333 332 332 332 332 332 327 322 326 331
344 346 346 344 341 341 339 337 334 326 335 339 337 330 334 342 339 338 332 330 320 324 322 322 325 326 327 328 330 329 328 329 332 331 331 331 330 332 329 325 323 325 326
345 345 347 346 343 340 338 336 333 326 338 340 340 337 338 339 337 337 332 331 328 325 327 325 324 326 327 327 328 328 328 328 332 331 330 331 329 331 328 324 323 322 322
345 345 347 346 343 342 339 336 333 324 337 338 337 338 338 337 336 336 333 332 332 326 324 326 326 326 325 326 327 327 327 328 332 331 331 330 328 331 328 324 320 317 317
346 346 345 344 343 343 341 338 336 326 328 336 335 335 335 337 337 336 336 332 332 331 325 324 326 326 324 324 324 325 327 330 331 331 330 328 327 331 329 327 323 320 316
346 346 345 344 344 343 341 339 339 336 331 330 333 335 334 336 336 337 335 332 332 332 329 324 324 326 325 327 326 323 326 327 328 329 329 326 326 330 332 329 326 323 319
344 345 345 344 344 343 341 341 340 338 337 335 334 334 332 331 331 331 332 333 334 333 334 332 331 330 330 329 326 324 324 326 326 326 326 323 324 327 332 331 329 326 322
342 342 345 344 344 343 342 341 340 339 338 337 336 335 334 332 331 328 328 328 328 328 332 333 330 329 329 329 328 326 324 323 324 324 324 322 321 323 330 331 331 328 325
343 344 345 344 344 343 343 342 341 340 339 338 337 336 334 333 331 330 328 326 326 326 329 331 330 328 328 327 328 328 326 325 324 323 323 321 320 320 322 327 330 330 329
343 344 344 344 343 343 343 342 341 340 339 338 338 337 335 334 333 331 331 326 326 327 330 331 331 331 331 330 330 329 329 329 328 327 325 323 321 319 320 320 326 329 328
343 344 343 342 341 341 342 342 341 340 339 339 339 338 336 335 335 332 332 331 328 330 330 330 331 331 332 332 332 331 331 331 331 330 329 326 325 325 324 322 319 327 328
342 343 342 341 340 341 341 341 340 340 339 339 339 339 338 337 335 335 334 334 334 332 332 332 332 332 332 332 333 333 332 332 331 331 330 329 327 325 326 328 325 319 325
340 341 341 341 340 340 340 340 340 340 339 339 339 339 339 338 337 335 334 334 334 334 334 334 333 333 334 333 333 332 332 332 332 331 330 330 329 327 327 327 326 325 319
333 338 339 340 340 341 340 340 339 339 339 339 339 339 339 338 337 336 335 335 335 334 334 335 334 335 333 333 332 331 332 332 331 330 330 330 329 328 326 325 325 325 323
317 326 334 338 339 340 340 340 340 340 340 339 338 338 337 336 335 334 335 335 336 335 335 335 335 334 333 332 331 332 332 330 329 328 328 328 327 325 323 322 323 323 323
315 317 321 328 336 336 339 339 339 339 339 339 338 338 337 337 337 337 337 337 337 336 336 335 334 333 333 333 332 332 331 327 326 327 326 325 324 323 321 320 320 320 320
315 315 316 318 320 324 329 329 335 336 335 332 333 334 334 335 334 334 334 335 335 334 334 333 333 332 331 331 330 331 332 327 326 325 325 323 322 321 318 318 317 317 317
315 315 315 315 315 315 316 317 319 322 322 317 316 316 317 317 317 318 320 321 322 326 327 328 329 329 329 330 329 328 327 327 328 328 324 323 320 322 320 320 318 316 316
314 315 314 314 313 313 314 314 315 315 314 312 313 314 314 313 313 313 313 313 315 316 320 321 322 324 325 327 328 326 326 325 323 323 323 323 322 320 319 319 317 316 314
314 313 313 313 313 313 313 313 315 315 315 315 315 315 315 315 313 313 313 313 313 314 316 317 320 322 321 323 326 326 326 324 324 322 320 320 320 319 317 316 315 312 310

GFSSE_925_thetae_075.txt.gz
Theta_e
348 349 343 343 344 344 344 344 344 343 342 342 343 342 342 342 342 341 341 341 341 342 343 342 340 339 337 335 333 333 328 322 321 331 332 330 331 334 333 331 331 332 332
347 349 343 343 344 344 345 345 343 342 340 341 341 342 340 340 339 338 337 339 339 340 341 340 339 338 337 335 334 332 328 328 328 331 333 334 334 336 336 336 334 331 331
347 348 348 343 344 344 345 343 341 340 340 340 341 341 342 341 340 337 335 336 337 338 338 339 338 337 336 334 331 331 331 332 335 334 334 336 338 339 340 339 336 334 329
347 348 348 344 344 344 343 340 340 336 334 338 340 341 343 341 340 337 333 335 336 337 337 337 336 335 332 329 330 330 334 336 336 336 336 335 338 337 337 339 337 336 336
347 347 348 345 344 344 339 340 341 337 335 330 335 337 341 342 340 336 332 334 335 335 336 336 334 330 329 329 330 329 335 337 336 335 334 334 334 334 334 335 338 338 337
346 347 347 344 344 340 339 343 340 338 336 330 330 334 341 343 339 331 320 323 329 332 334 334 331 329 330 330 330 330 335 335 335 334 334 333 333 333 331 330 331 333 334
344 350 347 344 342 339 341 340 338 336 334 330 328 335 341 344 338 333 324 320 322 325 326 328 327 327 328 328 328 330 333 333 333 332 332 332 332 332 327 315 313 318 329
345 346 348 344 342 340 341 337 334 328 334 337 329 335 341 342 338 336 329 321 327 328 328 328 327 327 328 329 329 327 327 331 332 332 332 333 330 332 328 318 313 311 312
346 346 346 346 343 340 338 336 329 335 339 338 332 333 342 339 336 336 331 329 322 325 325 324 326 327 327 327 328 328 327 329 333 331 330 332 327 331 326 322 319 313 310
345 346 347 346 343 341 338 335 325 338 340 340 339 339 340 336 335 336 332 332 329 322 324 325 324 324 324 326 326 326 326 329 333 332 331 330 326 329 327 325 322 319 312
344 345 347 345 342 341 340 336 328 335 338 338 338 338 336 337 337 336 337 333 332 330 323 325 325 325 324 324 323 323 324 330 331 331 331 331 325 330 330 328 325 322 318
345 345 345 344 342 342 340 338 337 328 335 335 335 335 337 337 337 337 336 332 332 331 330 324 322 323 324 329 327 325 327 327 328 329 329 329 324 326 333 330 328 325 322
344 345 344 343 343 342 340 340 339 337 333 332 333 334 332 332 334 332 334 334 334 333 335 333 333 331 331 330 328 326 325 325 326 327 327 325 322 323 331 333 330 328 325
345 345 344 343 344 343 341 340 339 338 337 337 336 335 334 332 331 329 329 329 330 330 331 333 331 330 329 329 328 328 326 325 325 325 325 324 321 320 322 332 332 330 328
343 342 344 343 343 343 342 340 339 338 338 337 337 336 335 334 332 331 329 327 327 326 329 331 331 329 328 328 328 328 328 327 327 326 326 325 323 320 320 321 330 331 331
343 343 343 343 343 342 342 341 340 339 338 338 338 337 336 335 334 332 332 328 326 327 330 332 333 333 332 332 332 331 331 330 331 330 329 328 326 325 322 322 321 330 330
343 342 343 343 342 341 342 341 340 339 338 338 339 338 337 337 337 334 333 334 329 331 331 331 332 333 333 333 333 333 333 332 332 332 332 331 329 327 327 327 325 323 328
343 342 342 342 341 340 340 341 340 340 339 339 340 339 338 337 337 337 336 336 336 334 334 334 334 334 334 334 334 334 334 334 333 333 332 332 331 329 328 327 327 326 323
342 342 343 343 341 341 341 341 340 340 340 340 340 340 340 340 339 337 336 336 336 336 336 336 335 336 336 335 335 334 334 333 333 333 332 332 332 331 330 329 328 327 326
339 342 343 343 342 341 341 340 340 341 341 340 340 340 340 340 340 339 338 337 336 336 336 336 336 336 336 335 335 334 333 333 333 332 332 330 329 329 329 327 327 327 326
326 337 341 342 341 342 342 342 341 341 341 341 341 341 340 340 339 339 338 337 337 337 337 337 336 335 335 335 334 333 333 333 332 331 329 328 327 327 326 323 324 324 324
317 326 333 338 340 341 341 341 341 341 341 341 341 340 340 339 338 337 337 337 337 337 336 336 335 335 334 333 333 332 332 329 327 328 327 327 326 325 323 321 320 320 320
317 317 322 326 333 336 339 339 338 336 337 336 338 338 334 333 335 335 335 335 334 334 333 333 333 333 332 332 332 331 332 330 327 326 326 325 324 323 321 321 319 319 318
317 318 318 319 320 321 324 328 330 333 333 329 327 325 321 321 321 322 323 323 324 325 328 328 328 328 330 329 330 330 330 328 330 327 325 324 323 322 323 321 319 318 316
317 318 317 317 317 316 317 318 318 318 316 316 315 316 316 316 313 313 313 314 317 318 320 321 322 323 323 323 325 327 327 327 326 326 326 324 324 323 321 319 319 317 314
317 317 316 316 316 316 317 317 317 318 317 316 317 317 317 317 316 314 313 313 314 315 316 318 319 318 320 320 321 323 324 326 324 323 323 323 322 320 319 318 315 312 310

GFSSE_925_thetae_078.txt.gz
Theta_e
349 342 344 344 341 342 343 343 342 342 342 341 344 341 343 341 340 342 341 342 342 342 342 340 339 337 335 334 332 326 319 324 327 326 329 334 336 337 334 330 327 331 333
348 342 342 344 344 344 344 343 341 340 340 339 342 339 339 339 337 338 340 340 341 340 340 339 338 337 335 335 333 329 330 332 332 335 337 337 339 340 337 331 330 330 330
348 344 341 344 344 344 344 341 339 339 338 339 342 341 341 338 335 335 337 338 339 338 338 338 337 336 334 333 331 333 334 335 335 334 337 337 335 338 338 336 337 337 336
348 343 342 344 344 344 342 339 334 333 336 335 341 342 341 339 334 334 335 336 337 337 337 336 335 333 331 330 334 336 336 335 334 334 335 334 333 335 338 339 339 338 338
348 347 345 344 344 343 339 338 334 335 332 331 338 342 341 339 334 332 335 335 337 336 335 335 331 334 332 328 333 336 336 335 334 333 332 332 329 332 333 333 333 335 337
346 348 343 344 344 340 339 339 337 336 330 328 335 341 342 337 329 325 328 329 331 334 332 328 326 327 328 329 332 335 334 333 333 332 332 326 327 330 328 325 324 329 334
349 347 344 344 342 339 343 340 338 336 332 327 333 341 343 338 331 321 323 326 327 328 328 326 327 328 328 328 331 333 332 332 332 332 332 324 328 330 326 323 322 323 325
350 347 344 343 340 340 342 339 336 332 332 327 333 341 342 339 335 327 322 324 324 324 326 326 326 327 328 328 326 325 329 332 332 331 332 329 326 328 322 319 318 319 319
347 346 345 342 340 341 338 335 328 333 339 329 333 340 341 336 335 331 327 321 324 323 322 323 325 326 326 326 326 325 326 332 332 330 332 331 324 328 325 322 319 316 314
346 346 345 342 341 339 336 332 332 338 338 335 334 341 338 336 335 334 330 328 321 321 323 323 322 323 323 324 324 324 325 332 332 331 331 331 324 326 327 326 323 320 316
346 345 345 343 342 340 338 327 335 339 340 338 337 340 336 335 336 334 337 331 330 325 320 321 322 323 322 325 324 321 324 329 330 331 331 330 325 324 328 328 327 324 321
345 346 345 343 340 339 339 332 327 337 338 337 337 335 337 337 338 338 335 331 330 330 328 324 319 319 326 329 328 326 326 327 327 328 328 327 325 322 329 331 328 326 324
343 346 345 343 340 339 339 337 333 326 333 336 336 333 336 336 336 336 333 330 329 332 331 334 332 330 331 330 328 327 325 324 325 326 326 326 325 321 322 332 331 329 327
343 344 344 343 342 340 339 339 338 336 331 332 334 334 332 331 330 330 332 331 332 332 331 334 333 332 329 328 328 328 327 326 325 324 325 325 324 322 320 321 332 331 329
343 345 344 343 343 341 340 339 339 338 337 337 336 336 334 333 332 329 328 327 327 327 327 330 331 330 329 328 327 328 328 328 327 327 326 326 326 325 323 321 322 331 331
343 342 343 343 343 342 340 339 339 338 337 337 337 336 335 334 333 331 331 328 326 326 327 330 332 332 332 332 332 331 331 331 330 330 330 329 329 328 327 325 323 326 331
342 342 340 342 342 342 342 340 337 339 338 338 338 338 336 335 335 332 332 332 327 328 329 331 332 332 332 332 333 333 333 333 332 332 332 332 331 330 329 328 327 326 328
342 342 342 341 341 342 342 341 340 339 338 339 339 338 337 337 337 337 335 335 335 332 332 333 333 333 334 334 334 334 334 333 333 333 333 332 332 332 331 330 329 328 327
342 341 341 342 341 340 341 341 339 339 338 338 339 339 339 338 337 337 336 336 336 336 336 335 335 335 335 334 334 334 334 334 333 333 333 332 332 331 331 329 329 328 327
341 341 341 341 341 340 340 340 340 340 339 339 340 339 339 340 339 339 338 337 336 336 336 336 336 336 334 334 334 334 334 333 333 333 332 332 330 328 327 328 327 326 326
332 340 342 342 342 341 340 339 339 338 339 340 341 340 340 339 339 339 338 337 337 336 336 337 336 335 335 334 334 334 333 332 332 333 332 330 328 326 326 325 322 322 322
318 333 339 342 341 341 341 340 340 340 341 340 340 340 340 339 338 338 337 336 336 336 335 335 334 333 333 333 333 332 328 328 327 327 329 327 326 325 323 322 320 319 319
317 321 331 335 340 340 341 341 341 340 339 340 340 339 338 338 338 337 336 335 334 334 334 333 332 333 332 332 331 331 328 325 326 326 326 326 324 323 322 321 320 319 317
317 317 319 325 332 338 339 339 339 338 336 335 336 337 334 328 326 325 325 326 327 326 327 327 327 328 328 329 329 327 330 329 324 323 324 325 324 323 323 320 319 317 317
317 317 317 319 321 324 327 331 330 330 321 321 322 320 316 315 314 313 313 313 314 316 317 319 320 322 323 322 322 322 322 325 325 324 321 323 324 323 322 319 318 317 315
317 317 317 317 317 317 318 318 317 317 316 315 315 316 317 317 316 315 313 313 313 314 315 315 317 318 317 318 319 319 320 322 325 324 323 323 323 321 319 317 315 314 311

GFSSE_925_thetae_081.txt.gz
Theta_e
346 345 342 343 343 341 343 343 342 341 340 342 342 341 340 342 343 344 343 343 341 341 340 339 337 334 334 328 324 327 331 333 336 337 337 338 338 337 333 327 327 331 335
346 343 341 342 341 344 344 341 340 338 339 337 341 339 338 338 341 341 341 341 340 339 338 338 336 336 333 330 331 331 332 334 337 337 335 335 337 337 337 336 336 334 330
343 344 343 341 344 344 342 339 339 338 337 337 339 336 336 335 337 339 340 338 337 337 337 337 335 335 331 332 334 335 335 336 336 336 334 330 337 338 338 338 338 337 335
342 344 344 344 344 343 339 338 337 336 336 340 338 340 335 334 335 336 338 337 336 336 336 335 332 329 333 334 335 335 334 334 333 333 332 326 330 335 336 335 337 338 338
341 344 344 343 344 341 337 332 333 334 336 341 338 339 336 333 335 335 337 336 335 336 334 334 332 326 334 336 335 334 334 333 333 332 329 319 325 330 331 332 333 335 335
341 342 344 344 343 339 336 334 333 331 332 339 342 339 332 332 334 334 335 336 335 333 332 331 329 328 329 334 334 333 332 332 332 331 323 322 326 328 326 324 325 331 334
346 343 344 343 341 339 337 337 335 327 330 338 342 339 335 323 319 324 327 328 328 328 328 328 328 327 329 332 333 332 331 331 331 331 330 322 327 329 326 323 322 323 326
346 343 344 343 339 343 339 338 335 331 328 336 341 340 336 330 319 320 322 324 325 325 324 326 326 326 325 324 325 328 331 331 331 331 331 325 325 328 325 321 322 321 321
344 343 344 341 340 342 339 336 332 332 327 335 341 341 337 335 328 320 324 322 321 322 322 323 324 324 324 324 324 324 331 331 330 331 331 329 324 326 325 322 321 320 313
344 343 342 339 340 338 335 328 332 337 330 335 341 341 336 334 334 329 322 320 322 321 321 321 321 322 322 322 322 322 329 332 331 331 331 330 326 324 325 325 323 321 318
344 343 341 340 340 336 333 329 336 337 331 333 339 339 336 334 334 330 329 328 322 319 319 320 321 321 321 326 324 321 328 329 329 330 330 330 328 322 325 327 326 324 321
345 344 341 340 339 337 332 328 337 338 335 333 339 337 336 335 335 334 333 329 329 327 325 321 318 319 328 328 327 325 325 326 326 327 327 327 326 322 322 328 328 327 325
344 344 342 340 340 339 335 327 334 337 336 336 332 335 337 337 337 336 333 329 327 328 327 333 331 329 330 330 328 327 326 325 324 325 326 326 325 324 320 323 330 329 328
342 343 343 341 339 339 338 337 327 329 332 335 335 333 335 336 333 331 331 331 331 331 331 333 332 332 330 328 327 328 327 327 326 325 324 324 324 324 324 320 325 332 331
342 343 342 342 340 339 339 338 335 333 331 332 334 333 332 331 330 330 330 330 328 327 328 331 332 330 329 328 327 327 327 328 328 327 326 326 326 327 326 326 322 330 332
343 343 343 342 340 339 338 338 340 336 335 334 335 335 334 333 332 330 328 327 326 326 325 328 330 332 331 331 331 331 331 331 331 330 330 330 330 330 330 329 328 326 330
341 342 341 342 342 341 338 337 339 337 337 337 337 336 335 334 333 332 331 331 327 325 327 329 331 331 332 332 332 332 333 333 333 332 332 332 332 331 330 330 330 329 327
339 340 341 342 342 342 340 338 337 337 337 337 338 337 337 335 335 334 332 333 332 330 330 331 331 332 333 333 333 333 333 333 333 333 333 333 332 332 330 331 330 329 328
340 341 339 340 339 340 341 340 337 339 338 338 338 337 337 337 336 336 336 335 335 336 334 334 334 334 334 334 333 333 333 333 333 333 333 332 332 331 331 328 330 329 326
340 340 339 339 341 340 340 339 338 339 339 337 337 337 338 337 337 337 337 336 336 335 335 335 335 335 335 334 334 333 334 333 333 331 331 332 332 329 327 327 326 323 324
339 340 340 339 340 340 340 339 339 340 339 338 339 339 339 339 339 338 338 338 336 336 336 336 336 335 333 333 334 333 332 330 329 328 327 330 332 327 326 325 324 322 321
330 338 340 340 339 338 339 339 338 337 338 337 337 339 340 339 338 338 338 337 336 335 334 333 333 333 331 330 331 331 329 327 327 327 326 327 328 325 324 323 321 320 319
318 332 339 339 338 337 338 338 339 339 339 338 338 338 339 339 338 337 336 335 335 334 332 332 331 331 331 329 328 330 329 325 323 325 325 325 324 323 322 321 321 319 318
317 318 330 334 338 339 339 338 337 336 336 337 339 339 338 337 336 335 334 334 333 331 330 328 327 327 327 327 327 328 328 328 326 324 323 324 323 321 321 320 318 317 316
317 318 323 330 334 337 338 338 337 337 336 333 335 335 333 329 319 315 314 314 314 315 316 317 318 320 321 322 322 321 321 320 322 324 321 321 323 322 319 318 316 315 314
317 317 317 321 325 328 332 333 335 334 328 325 324 321 317 316 316 315 314 313 313 313 314 314 315 316 317 317 319 317 318 320 321 322 319 320 320 320 316 314 312 311 310

GFSSE_925_thetae_084.txt.gz
Theta_e
345 345 344 344 343 342 343 342 342 341 338 342 341 343 345 344 344 343 343 342 341 340 339 336 334 334 332 334 336 335 336 337 335 336 336 334 336 338 335 331 328 333 335
346 344 343 342 341 344 343 342 337 341 341 340 340 341 343 344 344 343 341 340 339 339 338 336 336 337 337 336 333 334 336 336 335 332 336 336 336 338 338 336 335 332 331
346 342 343 342 342 343 342 340 337 333 338 337 337 337 340 342 341 340 339 339 337 337 336 337 337 337 334 334 335 335 335 335 335 332 327 337 338 338 337 336 334 339 338
344 343 343 341 344 342 341 340 336 335 337 336 336 335 337 338 339 339 337 336 335 336 335 333 333 333 335 335 334 335 334 333 332 331 323 323 332 334 335 336 336 336 335
344 343 341 344 343 341 341 339 335 339 336 338 335 334 335 336 337 336 336 335 336 335 332 327 333 334 335 334 333 333 333 332 331 322 318 320 325 329 331 331 334 334 334
345 344 343 343 342 339 334 338 335 340 339 339 334 333 335 335 336 337 334 334 333 333 334 325 332 334 334 334 332 331 332 331 330 323 320 323 326 327 327 327 329 331 331
345 344 343 343 340 334 334 332 334 340 340 340 335 333 335 335 335 336 334 329 326 326 326 326 327 333 333 333 332 331 331 331 330 330 323 322 327 329 327 325 325 326 327
344 344 343 342 339 336 336 333 329 337 340 342 337 331 331 334 333 332 328 326 325 326 325 324 325 329 331 331 330 331 331 330 330 331 329 323 325 327 325 323 322 321 322
343 344 343 339 340 337 337 335 330 332 339 343 339 336 327 319 320 321 322 323 326 326 325 324 324 324 323 323 324 330 331 330 330 331 330 328 324 324 324 322 321 319 314
343 343 342 339 344 338 336 333 330 328 336 340 341 337 334 327 320 322 321 321 322 322 323 323 323 323 322 322 322 324 330 331 331 331 330 329 327 323 324 324 323 321 319
345 343 340 340 341 336 331 329 334 328 335 342 342 336 333 333 328 323 320 320 321 321 321 321 321 321 321 322 322 321 329 328 328 330 330 329 327 323 323 325 326 324 322
345 343 339 339 338 334 329 332 335 330 333 338 340 336 334 333 331 329 329 327 325 322 319 319 319 321 325 327 326 325 325 325 325 326 327 327 326 325 322 324 327 327 326
343 341 339 339 337 335 327 335 337 333 329 336 339 336 335 335 334 335 332 328 328 327 326 329 327 323 329 328 327 326 325 325 325 325 325 326 325 324 323 321 328 329 328
341 341 339 339 338 337 329 330 337 337 335 335 337 336 336 336 336 336 333 330 329 330 329 333 332 331 329 328 327 327 327 327 326 326 324 324 325 325 325 325 323 330 330
329 329 340 339 338 338 336 330 329 333 331 333 333 333 335 335 335 331 330 331 329 328 328 329 331 330 329 328 327 327 327 327 328 328 328 327 326 327 329 328 327 326 331
326 328 339 339 339 337 337 337 332 330 332 333 333 334 332 332 331 330 329 328 328 327 326 326 329 330 331 331 331 331 331 331 331 331 331 330 330 329 329 330 329 330 328
333 332 338 340 339 339 337 337 339 338 331 331 333 334 333 332 331 331 329 327 327 325 325 326 329 331 331 331 331 332 332 333 333 332 332 332 332 332 331 329 330 330 328
339 340 340 339 339 339 339 337 338 339 337 333 334 335 335 334 334 332 331 331 331 328 327 329 330 330 331 332 333 333 332 332 332 332 331 332 332 331 330 329 330 330 328
339 335 340 339 336 338 339 338 337 338 338 337 337 337 337 336 334 334 333 331 333 334 332 331 333 333 334 334 332 333 332 331 331 333 333 332 331 331 330 330 328 328 328
339 336 336 332 329 333 338 339 338 338 339 337 337 337 336 336 336 335 335 335 335 335 335 335 335 335 335 335 333 332 331 330 332 330 331 327 329 331 330 326 326 325 323
338 339 339 339 337 338 339 338 338 338 339 338 338 337 337 336 337 336 336 336 336 334 334 334 335 334 333 333 331 328 329 329 328 328 327 327 327 331 329 325 324 322 321
336 338 337 339 338 339 338 338 337 337 337 336 336 337 337 338 338 337 337 338 337 335 334 334 332 331 330 330 329 329 325 327 327 326 326 327 327 327 325 323 322 320 320
327 337 337 337 338 339 339 338 337 337 337 336 336 337 336 338 338 338 338 337 336 335 333 332 331 330 330 330 329 328 326 324 322 325 324 324 323 322 320 320 320 319 318
318 329 337 337 339 338 338 338 337 337 337 336 336 336 335 336 336 336 336 336 335 333 333 332 330 328 327 327 326 326 327 328 325 322 322 322 322 321 320 319 318 316 316
318 318 331 336 336 337 338 338 337 335 335 333 335 334 333 334 334 335 333 329 325 321 318 316 317 318 320 321 321 320 320 320 321 320 321 320 321 319 318 317 315 314 313
318 316 320 331 334 335 335 336 336 336 334 333 334 333 331 331 328 318 314 313 313 313 313 314 314 314 316 316 317 319 318 318 319 319 319 319 318 314 313 312 312 312 311

GFSSE_925_thetae_087.txt.gz
Theta_e
345 345 344 343 344 344 343 342 341 342 341 344 345 344 344 344 344 344 343 340 340 339 335 334 333 336 337 338 339 339 336 334 334 333 335 336 338 337 335 327 329 331 333
344 344 344 343 343 344 343 341 340 338 339 343 345 345 344 344 344 344 341 341 339 337 336 337 336 337 338 338 338 337 337 331 331 334 335 338 338 338 337 334 337 338 336
345 344 344 342 342 343 341 339 338 341 337 340 344 345 344 344 344 341 340 339 338 336 337 338 338 338 337 337 337 335 335 333 330 327 334 335 336 338 337 335 334 336 340
345 344 342 341 344 342 341 340 338 340 337 338 341 343 343 342 340 339 338 336 337 336 338 338 337 337 335 336 335 332 332 331 326 319 321 325 330 335 334 333 333 334 335
344 342 342 342 343 341 340 338 335 338 337 335 337 339 340 341 340 337 335 335 336 334 333 332 334 334 333 333 332 332 331 329 320 318 318 320 324 328 330 332 332 330 333
343 343 341 344 341 339 338 336 338 340 338 334 335 336 337 337 336 335 336 335 332 327 332 332 334 334 333 332 332 332 331 329 326 321 321 323 326 328 327 326 328 331 331
343 341 343 342 340 337 337 335 339 338 338 335 335 336 336 337 336 336 335 333 332 327 329 333 334 333 333 331 331 331 330 330 330 326 322 324 328 329 327 326 325 325 328
344 343 343 341 336 336 335 335 339 340 339 336 334 335 336 338 335 334 334 328 327 325 326 330 333 333 332 330 330 331 330 329 330 329 327 324 325 327 323 322 320 320 323
344 343 342 340 335 336 332 334 338 340 341 336 331 333 334 334 335 333 332 327 328 325 325 326 329 331 330 328 328 330 330 329 329 330 329 328 326 324 323 322 320 319 317
343 343 342 339 337 337 335 329 333 338 343 339 334 325 322 325 330 329 327 330 325 323 324 324 324 323 323 323 323 328 330 330 330 330 330 329 327 324 323 324 323 322 320
344 343 340 339 338 337 335 333 327 335 341 341 337 334 326 322 323 323 323 323 323 323 322 322 322 321 321 320 320 323 329 328 327 329 329 329 327 326 323 323 325 325 324
343 343 340 340 341 337 332 332 329 333 339 340 338 334 332 329 325 322 321 321 321 321 322 322 322 321 323 325 325 324 326 325 324 325 326 327 326 327 326 323 324 326 326
343 342 340 340 339 334 329 333 332 330 338 341 340 335 333 332 330 329 329 328 327 325 323 322 321 319 327 328 327 326 325 325 325 324 324 325 325 325 325 325 325 326 328
337 336 337 339 337 334 329 333 335 330 333 337 339 336 334 334 333 334 333 329 327 327 327 330 330 329 329 328 327 327 327 327 327 326 326 325 325 325 325 326 326 327 328
331 329 331 330 335 336 330 332 337 333 329 335 339 336 335 336 336 335 333 331 329 329 329 331 331 330 329 328 328 327 327 327 328 328 329 329 328 326 326 327 328 329 329
325 324 328 328 334 335 334 328 333 336 333 334 333 335 335 334 335 332 331 330 330 328 326 326 328 330 330 330 330 330 331 331 331 331 331 331 330 329 328 327 328 329 330
326 326 328 328 333 336 332 336 331 328 330 333 333 334 333 332 333 331 330 328 327 327 326 325 327 329 330 331 331 331 332 332 332 332 331 331 330 331 330 331 330 330 329
328 328 327 328 331 336 336 333 335 334 331 332 333 333 334 332 332 330 330 329 329 328 325 326 327 329 330 331 332 333 332 330 331 330 330 331 332 332 331 328 328 329 329
328 327 327 329 331 329 331 336 336 337 338 336 332 333 334 334 333 332 332 331 330 331 329 328 330 332 333 334 334 331 331 330 330 330 331 332 331 329 331 331 329 328 328
330 330 332 335 332 333 336 337 336 336 336 336 335 334 335 335 336 334 333 333 332 334 335 335 334 334 334 334 333 332 331 329 328 328 329 329 329 328 329 331 327 327 324
338 337 337 337 336 337 337 337 332 336 337 337 336 336 336 336 336 335 335 335 334 335 332 333 331 333 333 331 331 328 327 327 327 326 327 326 325 326 328 330 327 324 321
336 336 335 334 335 334 335 333 335 334 336 337 336 336 335 336 336 336 336 336 335 335 335 333 332 332 331 329 329 328 324 326 326 325 325 325 326 326 327 326 323 321 320
331 335 335 336 337 337 337 337 337 337 336 337 336 334 335 335 335 336 335 335 336 336 333 332 332 331 330 330 329 328 326 323 321 324 323 323 323 323 321 321 319 319 318
320 326 334 336 336 338 337 337 337 337 336 336 335 335 335 335 334 334 333 336 335 335 334 333 331 330 329 328 327 325 326 327 324 319 322 321 321 319 318 318 318 317 316
319 317 324 335 335 336 337 335 336 337 336 335 335 334 333 332 331 332 334 334 332 332 331 328 320 317 318 319 321 321 320 319 321 320 321 317 319 318 317 316 315 314 314
319 318 316 323 334 334 333 334 334 333 333 333 334 333 332 331 329 326 327 320 316 314 313 313 313 313 314 315 316 317 319 318 316 316 315 316 316 313 312 312 312 312 312

GFSSE_925_thetae_090.txt.gz
Theta_e
344 345 345 344 345 343 343 341 342 343 344 344 343 344 345 344 344 344 342 340 339 336 335 337 338 337 339 340 338 336 338 336 336 336 337 338 338 334 333 336 336 331 330
344 345 344 343 344 344 342 341 340 341 344 344 343 345 344 344 344 344 340 340 337 336 335 336 337 339 339 339 338 336 330 331 333 335 337 338 336 336 336 338 339 339 336
345 344 344 341 343 343 341 340 338 338 344 344 344 344 344 344 344 341 341 339 337 337 338 337 338 338 338 337 334 333 331 327 326 331 333 335 337 339 335 332 334 339 336
344 344 343 341 343 342 340 339 340 337 342 343 343 344 344 344 342 340 339 338 337 338 338 339 340 338 336 334 332 334 328 318 317 318 320 321 325 333 334 332 331 332 333
344 344 342 341 343 341 340 339 340 337 339 342 342 342 343 341 340 338 338 337 337 338 340 340 337 336 333 332 332 330 325 320 319 318 319 321 323 328 330 330 331 331 331
344 343 340 343 341 339 337 336 338 336 337 339 340 341 340 339 337 336 337 335 336 337 339 337 336 333 332 334 332 330 328 325 321 321 322 325 327 328 327 325 327 330 330
343 342 342 342 339 338 334 334 339 337 335 336 337 338 338 337 337 337 334 333 334 336 336 334 334 333 332 331 331 330 329 329 326 324 323 324 328 329 327 326 325 325 328
344 341 343 340 338 337 333 338 336 336 335 335 335 336 335 336 337 333 333 335 334 333 333 333 333 333 331 330 330 330 329 328 329 328 327 325 327 329 325 321 321 321 322
342 342 342 339 334 335 333 339 339 338 333 333 334 335 337 333 335 334 334 334 335 332 332 333 332 332 330 328 329 330 329 329 329 329 328 327 327 329 324 323 321 320 319
341 342 341 336 335 333 334 335 339 341 337 329 331 333 334 335 334 336 332 333 332 327 327 328 328 327 325 324 325 329 329 330 329 330 329 328 327 327 323 323 324 323 322
341 342 340 336 335 334 330 330 337 342 338 333 328 323 328 330 331 331 327 327 325 324 324 324 323 323 322 321 321 323 328 327 326 327 328 328 326 330 326 323 324 325 325
341 341 339 337 335 336 334 330 331 338 343 337 335 329 322 322 323 323 324 323 323 322 322 321 321 320 322 323 324 323 326 324 323 323 325 326 326 329 330 326 325 325 326
342 340 339 340 338 337 334 330 328 334 339 339 337 332 330 326 323 323 322 322 321 321 320 320 319 319 324 326 326 325 324 325 325 325 324 324 325 325 330 328 327 327 327
339 339 338 337 336 334 331 328 329 331 338 339 338 334 332 331 328 329 328 327 327 326 325 326 326 326 327 328 327 326 326 326 327 327 327 326 325 325 326 328 328 329 329
336 335 331 333 332 333 333 333 334 329 333 339 340 337 333 332 331 333 333 330 328 327 328 329 331 330 330 328 328 328 327 328 328 329 329 329 329 328 327 326 328 329 330
334 326 325 328 328 331 333 332 335 334 330 333 336 338 334 335 335 335 332 330 329 328 328 328 328 329 330 330 330 330 331 331 331 331 331 331 331 330 330 328 327 328 329
330 326 326 326 325 331 335 331 334 337 334 329 334 337 336 335 334 334 332 330 329 328 327 326 325 327 329 330 330 330 331 332 331 331 329 329 328 329 331 331 330 329 328
327 326 325 329 327 327 333 334 331 332 336 334 332 332 333 333 332 332 332 330 328 327 326 325 325 327 329 330 331 332 332 331 329 328 328 328 328 332 332 330 330 328 328
327 326 325 329 329 329 334 329 332 332 330 333 333 333 333 333 333 332 331 330 328 329 328 325 327 329 331 333 333 333 330 329 328 328 327 327 329 329 330 329 330 329 328
331 328 327 327 329 329 329 327 332 329 334 333 332 331 332 333 334 332 331 331 331 330 331 332 332 332 332 331 331 331 330 328 327 326 326 326 327 326 327 328 330 327 327
330 328 328 327 329 333 331 328 328 328 334 336 335 335 334 332 334 334 333 332 332 331 334 334 332 332 330 331 331 329 328 327 326 326 326 325 325 325 325 327 328 326 324
330 328 329 327 328 333 329 329 331 335 335 333 332 334 335 332 333 333 334 333 334 334 334 333 332 331 331 330 328 327 322 324 324 324 323 323 323 325 326 327 325 324 321
334 333 332 329 330 332 332 334 334 332 333 333 333 330 335 334 334 334 334 333 333 334 334 334 332 331 331 330 329 328 325 322 320 323 322 321 321 322 323 322 321 320 319
324 333 335 335 335 334 334 334 333 333 333 332 333 334 335 334 333 334 333 329 329 329 331 332 331 331 329 327 325 326 326 325 322 318 320 320 320 319 319 318 318 317 316
316 317 322 332 334 334 334 333 333 333 333 333 333 335 334 332 332 332 331 330 329 329 329 327 325 321 317 317 318 319 319 319 320 319 318 315 318 317 317 316 316 315 314
317 317 316 316 323 332 332 332 333 332 332 333 332 332 330 330 329 329 330 329 328 321 316 313 313 313 313 314 314 315 317 317 315 314 314 315 314 314 313 313 313 313 312

GFSSE_925_thetae_093.txt.gz
Theta_e
344 347 345 344 343 342 337 341 343 343 343 341 344 346 343 342 343 343 341 340 338 339 342 340 338 340 339 338 338 337 337 337 337 337 337 333 336 338 338 337 336 333 333
345 347 345 343 344 342 340 342 343 343 342 339 343 345 345 344 344 343 341 338 336 337 338 338 339 339 338 337 335 334 335 334 336 337 335 336 337 337 336 339 337 337 335
346 347 345 343 343 340 339 339 342 344 343 341 342 343 344 345 344 341 340 338 336 337 338 339 338 338 337 333 332 330 324 329 331 334 335 337 337 335 334 333 335 335 336
346 346 345 342 342 337 338 337 339 344 343 342 343 344 344 344 342 340 338 337 338 338 338 338 338 337 336 335 335 327 318 318 319 318 321 328 332 333 332 332 333 332 334
345 345 344 342 342 339 335 338 337 343 342 342 342 342 343 342 341 338 337 338 338 337 337 338 336 333 333 331 328 320 319 319 319 320 321 323 327 328 330 331 332 332 332
344 344 341 342 340 338 338 339 336 339 342 341 342 342 341 339 339 337 337 337 337 337 338 336 333 332 335 332 329 327 323 321 322 323 326 328 329 329 328 326 329 331 330
343 342 342 342 339 338 334 335 334 336 340 341 341 340 339 337 337 336 336 336 337 338 337 335 333 332 332 332 329 328 328 326 325 323 324 330 330 330 328 326 325 324 325
343 341 342 340 338 333 329 335 328 334 337 338 339 338 336 336 336 334 336 338 339 337 335 337 334 332 330 330 330 329 328 328 328 327 326 329 330 330 327 323 322 321 319
342 341 341 340 338 333 334 339 334 327 333 333 333 334 335 335 332 334 334 335 337 336 335 335 333 331 329 329 329 329 329 329 329 328 327 327 329 330 325 324 323 321 319
342 341 339 338 337 334 339 336 337 333 327 334 334 334 333 333 333 333 334 335 337 334 333 332 331 330 327 324 326 329 329 329 328 329 328 327 327 328 324 323 324 324 323
342 341 337 333 334 334 332 339 340 337 329 329 333 335 333 333 333 332 331 330 326 326 327 327 326 324 323 322 321 323 328 327 325 326 327 327 326 330 327 325 324 325 325
341 340 335 333 332 329 331 336 341 338 335 331 325 329 330 329 329 327 326 325 324 324 324 323 323 321 321 322 323 322 326 324 323 323 324 325 326 328 332 328 327 326 327
341 338 337 335 335 333 328 329 336 340 337 335 332 323 323 324 324 324 323 323 322 322 322 321 321 321 322 325 326 325 324 325 326 325 324 324 324 325 332 330 328 329 329
336 338 338 336 337 336 334 331 329 336 340 337 336 331 327 324 323 322 322 322 321 321 321 320 321 322 323 327 327 326 326 326 326 327 327 327 326 326 326 329 329 329 330
333 334 338 338 338 334 332 331 330 331 337 338 336 334 332 330 327 327 328 327 327 326 326 325 328 329 329 328 328 327 327 328 329 329 330 330 330 330 329 328 328 329 331
334 333 335 336 337 334 333 332 335 330 331 338 339 338 334 331 330 331 333 331 328 327 328 328 329 329 329 329 329 330 330 330 331 331 331 330 329 330 329 330 329 328 330
329 331 330 336 332 327 333 333 332 335 334 330 335 338 337 334 334 335 334 331 329 329 327 326 326 326 328 329 330 330 331 332 331 329 329 327 327 328 330 330 331 330 328
333 329 326 327 327 327 330 334 330 332 335 334 331 332 337 336 334 334 333 332 330 329 328 327 325 325 328 329 330 331 332 331 330 328 328 327 327 327 329 330 330 329 328
329 326 326 327 326 327 328 333 333 332 331 334 335 332 333 335 334 333 332 332 330 328 327 325 324 326 329 332 333 333 331 331 330 328 327 327 326 327 328 328 328 329 328
330 327 326 324 325 330 330 332 328 329 333 332 331 332 333 333 334 333 333 332 330 328 328 327 326 329 331 331 331 331 330 329 327 327 326 325 325 325 325 325 327 329 327
327 329 328 327 327 326 327 331 328 329 331 330 332 332 331 332 332 333 333 332 330 329 330 330 332 331 331 331 331 330 328 327 326 325 324 324 325 324 323 325 327 327 326
327 327 326 326 326 328 329 331 329 328 331 332 329 333 334 334 332 331 332 332 330 330 330 333 332 331 330 330 330 328 329 326 324 323 323 322 322 323 325 326 326 325 324
329 328 328 327 327 328 331 331 329 329 328 328 331 333 333 333 333 332 332 332 330 331 331 332 332 331 331 330 329 329 328 327 324 322 321 320 320 321 322 324 323 322 320
332 330 329 328 328 328 329 330 330 329 331 332 332 331 331 331 332 333 333 332 331 328 327 328 328 329 328 328 327 325 326 325 324 322 319 319 319 318 319 319 319 318 317
323 330 333 329 328 327 328 330 332 331 331 331 330 330 330 331 332 333 332 331 328 327 326 324 325 326 320 317 316 317 318 319 320 321 319 318 317 317 317 316 316 315 314
316 315 316 327 332 333 333 332 332 332 331 330 331 331 331 329 331 331 330 330 328 327 325 325 324 316 312 312 313 314 316 317 316 316 317 316 316 315 315 315 314 313 312

GFSSE_925_thetae_096.txt.gz
Theta_e
346 348 345 343 344 343 340 340 343 341 336 344 346 346 343 342 343 343 340 338 343 345 339 341 343 340 340 338 338 339 339 338 337 334 336 338 340 341 336 337 336 334 338
346 348 345 343 344 343 342 344 343 343 339 344 345 345 345 344 344 343 340 340 343 342 339 342 339 337 336 336 337 337 337 336 334 335 337 334 335 338 338 334 335 337 338
346 348 346 343 342 341 342 343 342 342 340 343 343 343 345 345 344 341 339 338 339 339 339 339 338 337 337 336 332 329 331 334 335 335 334 332 332 335 334 333 337 339 339
345 347 345 342 341 340 342 343 343 341 339 342 343 343 345 345 343 340 338 338 338 338 338 337 336 337 337 336 324 318 320 320 321 324 326 327 326 332 333 334 333 335 336
345 346 345 343 340 339 341 342 344 342 340 342 342 342 344 344 341 339 338 337 337 337 336 336 336 336 332 326 321 319 318 319 324 327 328 329 327 329 330 332 332 333 336
345 345 343 343 338 336 340 340 343 342 341 340 341 342 342 341 339 338 337 337 336 337 336 336 334 336 332 328 324 321 321 323 328 329 330 330 329 330 329 328 331 330 333
345 344 344 342 338 334 337 337 342 342 342 341 342 341 340 339 337 337 336 336 336 337 336 333 334 335 331 329 328 327 325 328 329 329 330 331 330 330 329 328 327 319 317
344 344 344 340 339 338 338 335 338 342 341 341 341 339 337 337 335 336 336 336 336 336 335 335 332 331 330 330 329 327 328 328 330 330 331 330 330 331 329 325 321 320 319
344 342 343 343 340 334 330 328 332 338 341 340 339 337 336 335 333 335 336 336 336 336 336 334 332 330 329 329 329 328 328 329 331 331 330 331 329 330 327 325 324 323 321
343 342 343 341 337 335 340 332 325 329 334 336 335 334 333 333 333 334 335 336 336 335 335 333 332 330 328 327 328 329 329 328 331 332 330 330 328 328 324 324 325 325 325
342 342 342 340 337 335 338 338 331 326 332 332 332 333 333 331 332 333 334 336 335 334 333 332 330 327 323 322 323 324 328 328 326 328 330 327 327 331 328 326 325 326 326
341 341 340 339 336 338 339 340 336 332 332 332 335 331 331 331 331 333 333 332 329 328 328 327 325 323 322 325 326 322 327 326 326 325 328 325 326 328 333 329 328 328 328
339 340 338 335 334 336 339 341 340 335 330 330 333 333 332 332 332 332 332 331 330 326 328 327 326 326 326 327 329 328 327 327 328 327 326 324 324 325 330 331 329 329 330
329 338 337 336 333 332 338 339 340 339 335 332 329 329 330 330 330 330 330 330 329 328 328 327 326 326 326 329 329 329 329 329 328 329 328 328 327 327 326 329 331 329 330
326 336 336 337 336 335 333 335 339 340 338 336 335 331 328 328 328 328 328 328 328 329 328 328 329 329 329 330 330 330 330 330 330 330 330 330 330 330 329 329 329 329 332
327 332 336 337 337 336 334 333 333 338 340 337 336 336 334 332 330 331 331 332 331 330 329 329 331 331 331 331 331 331 331 331 331 331 331 331 329 328 329 329 329 330 329
328 329 332 333 336 335 334 333 334 333 336 339 338 339 336 334 333 332 335 334 332 331 330 330 330 330 330 331 331 331 332 332 332 331 331 330 330 328 328 328 330 331 330
331 329 331 331 333 336 335 333 334 335 334 334 337 340 339 336 334 335 336 335 333 332 331 329 328 327 329 331 332 332 333 332 331 330 330 328 329 329 329 329 329 329 328
331 330 328 328 330 332 336 334 332 334 336 336 334 334 337 338 336 335 335 335 334 332 330 330 328 327 330 332 334 334 333 332 331 331 330 329 329 328 328 329 328 328 328
328 328 325 328 329 332 336 336 334 333 334 335 336 334 333 335 337 336 335 334 334 332 329 328 327 328 332 334 332 331 331 330 328 327 327 326 325 327 327 327 328 329 329
328 328 327 328 329 334 336 336 335 336 336 335 332 332 334 334 334 334 334 334 333 331 330 329 330 332 332 333 332 330 329 329 328 327 325 324 325 326 326 327 328 329 327
329 327 327 327 328 331 330 333 332 334 336 336 334 334 335 333 332 332 333 333 332 332 332 331 333 333 332 333 331 332 329 326 326 325 324 323 324 323 324 325 326 326 325
329 329 328 328 328 327 329 331 333 333 333 335 334 335 335 332 333 333 332 331 331 332 333 332 332 332 332 331 330 329 328 325 325 322 324 322 322 322 322 322 321 320 319
324 328 328 328 327 327 327 331 332 331 332 332 332 331 330 329 332 331 331 332 331 330 330 328 327 327 329 330 330 328 328 326 322 321 321 322 320 319 319 318 318 317 316
328 328 328 328 328 327 327 327 331 330 329 330 327 327 329 330 329 329 330 331 331 328 326 326 325 324 320 317 321 320 319 320 320 321 320 318 319 318 317 316 316 315 314
320 324 331 332 330 329 328 328 328 327 330 330 330 329 329 330 330 328 331 331 329 328 328 326 325 322 322 318 313 316 318 317 317 318 318 318 317 317 315 315 314 313 312

GFSSE_925_thetae_099.txt.gz
Theta_e
348 349 346 346 345 344 339 334 330 330 343 346 344 344 342 342 343 342 339 343 344 339 344 342 343 341 337 340 340 340 341 338 336 337 339 337 340 339 339 336 336 340 340
347 349 346 344 344 343 343 343 340 332 343 344 345 346 345 343 345 342 343 345 341 340 345 340 338 338 338 339 339 339 337 333 337 334 332 333 337 338 336 335 337 339 340
348 348 346 344 342 343 342 343 343 336 344 345 344 345 345 345 344 341 343 344 342 340 343 338 337 336 336 336 337 336 335 334 333 334 333 330 335 335 335 335 338 340 340
348 348 346 343 342 341 341 343 342 339 344 344 343 344 344 345 343 340 340 341 338 339 338 337 338 337 336 326 323 323 324 326 324 326 327 327 327 333 335 335 337 340 338
347 347 346 342 340 341 341 343 342 339 341 343 343 344 344 344 341 339 338 337 338 337 336 335 337 336 327 320 318 316 317 326 328 329 330 329 327 330 332 333 334 336 336
347 347 345 341 339 340 342 343 342 339 339 342 343 343 343 342 340 337 337 337 336 335 335 335 335 329 323 321 320 321 324 329 330 331 330 330 330 330 329 328 329 332 334
346 345 346 342 338 339 341 343 342 339 340 342 341 342 342 339 338 337 337 336 336 336 335 336 336 331 328 327 324 324 327 329 330 331 331 331 331 330 330 329 325 322 321
345 345 345 342 337 339 339 343 342 341 340 340 341 342 340 338 337 336 335 336 336 335 336 336 336 332 329 328 327 327 327 330 331 331 332 331 331 331 330 324 322 321 319
344 344 343 343 340 338 337 341 342 341 341 342 342 340 339 336 335 336 335 336 336 336 336 334 331 330 330 329 328 327 328 331 332 331 331 332 328 330 326 325 325 324 323
337 343 343 343 341 340 339 336 342 341 341 341 338 337 336 334 334 335 335 335 336 336 335 332 331 329 328 328 328 328 328 329 332 332 331 329 326 327 325 324 325 326 326
328 327 342 342 340 335 333 334 337 341 339 337 337 336 333 333 335 335 335 335 335 336 335 333 331 329 325 323 324 326 327 329 327 329 331 327 325 329 328 327 327 326 327
325 324 323 340 336 334 334 333 331 335 336 336 335 333 331 331 333 334 335 335 335 335 334 332 330 325 323 326 324 320 327 327 327 327 330 326 325 327 333 330 329 329 329
325 325 326 338 336 335 337 333 330 329 330 332 333 333 332 331 332 335 334 334 333 330 331 328 325 325 326 327 328 328 327 327 328 328 326 324 324 326 328 332 330 331 330
327 325 327 337 336 336 337 335 331 328 330 332 332 332 332 332 332 332 332 331 330 327 329 328 328 327 327 328 329 329 329 329 329 329 329 328 327 327 327 328 330 329 329
328 329 330 336 334 338 337 337 333 331 329 329 332 332 331 331 330 330 330 330 330 328 328 327 327 327 326 328 330 330 330 331 330 330 331 330 330 330 329 329 329 329 329
331 330 326 335 333 334 335 337 338 335 333 332 329 328 328 328 328 328 329 329 329 330 329 329 329 330 330 330 330 331 331 331 331 331 332 332 331 328 327 328 328 328 329
328 326 327 331 333 334 334 335 337 337 336 334 335 333 332 331 330 331 331 333 332 331 329 330 329 331 330 331 332 332 332 332 332 331 330 330 330 329 329 328 327 328 329
328 326 326 331 331 334 334 333 333 335 339 338 336 336 335 334 333 333 335 335 333 332 330 329 330 329 328 330 332 332 332 333 332 330 330 329 329 329 329 329 330 329 328
329 328 330 330 332 332 335 333 333 333 335 337 338 339 338 336 335 336 337 336 334 333 331 331 329 327 328 331 332 332 333 332 330 329 329 329 328 328 328 327 328 328 327
330 328 330 331 330 331 334 335 334 335 334 334 334 336 338 338 337 336 336 336 335 334 332 331 330 327 330 331 333 332 331 330 329 328 328 326 325 326 328 328 328 329 329
332 330 329 327 328 329 333 334 335 334 335 337 336 334 333 336 337 337 336 335 335 335 333 330 330 330 332 333 332 330 330 329 328 328 326 325 324 326 326 326 327 328 326
331 328 326 325 327 328 330 334 334 335 336 336 335 335 334 334 335 336 335 335 335 334 333 332 331 332 333 333 331 331 331 327 327 325 325 324 323 324 324 324 326 326 325
329 329 328 328 328 330 330 329 332 334 335 336 335 336 336 336 335 334 334 333 333 332 332 333 332 334 333 332 330 330 329 327 324 323 325 323 322 322 323 323 323 323 322
328 328 327 327 328 328 329 328 329 330 332 333 334 334 332 330 332 333 332 331 331 331 331 332 331 330 329 330 330 330 329 325 323 322 322 322 321 321 321 320 320 319 318
324 327 328 327 328 328 328 328 330 329 329 330 330 331 330 330 329 329 329 328 330 331 331 330 327 324 322 321 317 318 319 320 321 321 322 320 320 319 319 318 318 318 315
325 326 325 326 328 329 329 328 328 327 327 328 330 331 329 328 328 329 327 326 330 330 328 328 327 327 326 325 320 316 317 318 319 319 319 318 318 317 317 316 316 315 314

GFSSE_925_thetae_102.txt.gz
Theta_e
349 345 343 342 341 334 332 332 330 340 345 345 346 346 343 342 341 343 340 342 340 345 344 344 340 339 342 342 341 338 338 337 336 335 338 337 338 338 337 338 338 339 339
349 344 344 343 344 338 334 334 331 334 344 345 346 345 342 342 342 342 344 343 342 344 342 342 337 338 339 339 338 337 335 333 332 333 334 335 335 338 336 335 337 340 340
349 346 345 345 343 342 336 337 333 330 343 344 343 345 345 343 342 343 344 341 343 343 339 338 336 337 338 338 338 332 334 334 334 334 332 329 334 336 337 338 337 339 339
349 347 346 344 342 341 339 340 341 332 342 344 343 344 344 345 342 344 344 340 343 339 338 337 336 336 328 328 329 330 325 326 328 328 326 326 331 335 335 338 340 339 338
349 347 346 344 342 341 340 341 342 335 343 343 344 343 344 344 342 343 342 337 340 339 336 337 337 329 319 317 316 316 327 329 330 330 328 327 326 331 334 335 335 336 336
348 346 346 343 340 340 339 342 341 337 342 343 342 343 343 342 341 339 336 338 336 335 334 336 328 322 320 319 319 326 329 330 331 330 329 326 327 330 328 325 326 328 332
347 347 346 343 338 340 339 342 341 337 340 341 341 343 343 341 338 336 336 336 334 335 335 336 328 325 323 321 322 327 329 330 331 331 331 325 328 330 329 325 324 325 322
347 346 345 341 338 339 339 342 341 338 339 341 341 341 342 339 335 336 336 334 335 334 334 335 332 328 327 326 326 326 330 330 331 331 331 323 327 331 328 324 323 323 324
346 345 345 341 339 337 339 342 341 338 339 341 341 342 339 338 336 335 335 335 335 335 335 335 333 330 329 327 326 326 330 331 331 331 332 326 326 330 327 325 325 325 325
343 338 339 336 339 338 338 342 341 339 340 340 341 340 337 336 335 335 334 335 335 334 335 332 330 329 328 327 327 327 327 331 331 330 331 327 325 326 325 325 325 326 326
335 337 329 327 328 339 336 340 341 340 340 341 341 338 336 335 335 334 334 335 335 334 333 332 329 328 326 324 325 325 328 328 328 330 331 328 325 327 328 328 327 327 327
327 329 326 325 325 327 337 337 340 341 341 339 336 335 334 333 333 334 333 334 335 334 334 331 330 327 322 324 321 320 328 327 326 327 330 329 324 327 331 330 329 329 329
327 325 326 325 324 324 324 334 338 339 338 337 336 333 332 333 333 335 334 334 334 334 334 331 328 322 325 326 327 327 327 326 327 328 326 325 324 326 328 330 331 330 329
326 325 324 324 324 325 327 330 332 336 336 335 333 331 331 333 332 334 332 333 333 333 329 326 326 327 327 327 328 328 328 328 329 329 329 328 328 328 328 329 329 330 331
327 325 326 324 325 325 335 331 330 329 331 333 333 332 330 332 334 333 330 331 329 326 330 328 329 327 326 326 328 329 329 330 330 329 330 330 330 329 328 328 329 328 329
329 326 328 328 329 331 335 332 329 329 331 333 331 332 332 332 331 331 330 330 330 328 328 327 327 327 327 328 330 330 330 331 331 331 331 331 330 330 327 327 327 326 328
329 329 328 332 332 331 334 334 333 328 329 331 331 331 330 330 329 329 329 328 328 328 329 329 328 329 330 330 331 331 331 331 331 331 331 330 329 329 329 328 329 327 328
328 327 329 331 330 328 332 332 333 334 332 330 329 328 328 328 328 328 329 330 331 331 329 329 329 330 330 329 331 331 331 332 331 331 329 329 328 328 329 328 328 329 328
327 327 328 327 326 324 324 332 333 333 333 334 334 331 332 332 331 332 334 333 332 332 330 330 329 329 328 328 331 332 332 332 331 329 328 328 327 326 326 326 327 328 327
328 326 327 326 324 323 329 330 332 332 335 334 335 335 335 334 334 332 336 336 334 333 332 331 330 329 327 328 331 332 331 331 330 329 328 327 325 324 327 327 327 328 328
328 327 328 330 326 326 328 332 334 333 333 333 336 337 336 337 335 336 336 335 335 334 333 332 330 330 327 330 332 332 330 330 329 328 326 325 323 325 325 324 327 328 325
329 328 329 330 329 329 330 331 333 335 336 336 334 334 334 336 337 336 335 336 336 335 334 332 330 330 330 332 332 330 326 327 327 325 325 324 323 324 323 323 326 324 324
328 328 328 327 327 329 328 328 330 331 332 335 335 336 334 334 335 335 335 335 334 334 334 333 332 331 332 332 331 329 326 324 323 325 325 323 322 322 322 322 322 323 322
328 328 327 326 327 326 328 329 329 330 330 330 333 334 335 334 334 334 334 334 333 332 332 332 332 332 331 330 328 328 327 324 320 318 323 323 321 321 321 320 320 319 318
328 327 327 326 327 327 327 328 328 327 328 329 330 330 330 330 330 330 332 332 330 330 331 331 331 331 330 329 326 322 318 320 322 320 319 320 321 320 319 318 318 317 317
326 327 327 326 327 326 327 328 328 327 328 327 329 328 329 328 328 328 329 329 328 329 330 330 330 330 328 327 325 319 319 318 319 319 317 318 317 318 318 317 316 316 314

GFSSE_925_thetae_105.txt.gz
Theta_e
345 339 338 334 334 331 331 337 342 345 345 344 345 345 341 341 341 334 334 341 344 344 343 340 343 343 341 338 337 339 339 335 337 336 336 336 338 340 340 337 338 340 339
346 339 337 332 332 333 331 332 337 343 344 345 346 347 343 341 341 341 342 344 344 344 342 339 342 341 340 336 338 332 331 333 333 332 332 334 335 338 338 338 338 340 340
346 342 339 336 333 333 334 332 331 342 344 344 345 345 344 342 342 344 343 345 342 342 339 338 339 338 337 336 334 335 334 333 332 331 328 333 336 338 339 337 338 339 339
346 343 343 341 336 335 335 334 330 337 343 343 344 344 344 343 344 344 342 345 342 339 338 337 337 337 336 331 331 326 327 329 328 329 326 327 334 336 338 338 336 338 337
346 344 344 342 340 336 336 338 335 333 341 342 343 343 343 342 343 344 339 342 339 336 336 336 334 325 323 323 322 328 329 330 329 327 326 320 328 334 335 335 335 335 334
347 346 344 343 343 338 339 338 341 333 341 342 342 342 344 342 343 343 339 341 337 334 336 335 323 317 315 316 328 329 330 330 329 328 324 325 327 329 329 328 326 329 328
347 346 344 343 340 339 339 339 340 334 341 342 343 343 343 341 340 339 337 338 336 332 334 326 322 320 320 322 328 329 330 331 330 331 322 326 330 331 329 328 327 323 325
347 346 344 343 338 339 337 339 341 337 340 341 342 342 342 341 338 335 336 335 334 333 334 330 326 324 322 324 328 329 330 331 331 331 322 324 329 331 329 327 325 325 324
347 345 344 341 337 339 337 340 341 338 338 340 341 341 342 338 335 335 334 334 334 332 334 335 329 327 325 325 325 330 331 331 331 331 329 323 326 329 326 326 326 326 325
345 343 343 342 340 340 339 341 341 338 338 339 339 341 340 335 336 335 334 335 333 332 335 334 330 328 327 325 325 329 331 331 330 331 330 324 325 325 325 325 326 326 326
339 341 340 338 334 336 339 341 341 338 338 339 340 341 338 336 335 334 334 334 333 332 334 330 328 327 326 325 325 324 328 329 330 331 330 328 324 326 327 328 328 327 327
335 336 335 334 328 329 329 332 339 338 338 340 341 338 337 335 335 333 334 334 333 333 332 330 328 326 321 321 319 323 327 326 326 327 330 329 324 327 329 330 329 329 329
330 331 332 332 332 331 329 326 325 336 339 341 340 337 336 335 334 333 333 333 333 333 333 330 328 324 323 326 327 326 327 326 326 327 326 326 324 326 328 330 331 329 329
326 325 325 326 328 326 324 326 325 327 339 340 337 335 335 334 334 333 333 333 334 334 333 329 327 321 325 326 327 328 327 326 328 328 328 328 328 328 329 329 329 330 330
327 326 325 324 323 324 325 324 326 332 336 337 334 333 332 332 333 332 332 333 333 333 332 326 326 326 327 326 327 328 328 329 329 329 329 330 330 329 328 327 327 327 327
329 327 325 325 325 323 324 323 327 332 335 336 335 332 331 333 333 334 332 333 330 330 328 328 328 327 326 325 328 329 329 330 330 330 330 330 329 329 329 327 326 326 327
330 328 326 328 328 326 328 326 331 330 335 334 331 331 330 332 333 332 329 328 328 327 328 328 327 326 328 328 329 329 330 331 331 330 329 329 328 329 328 328 328 328 329
330 329 328 328 331 330 331 333 331 328 329 332 332 332 331 332 333 332 330 330 330 328 327 327 328 328 330 330 330 331 331 331 332 330 330 328 327 329 328 328 327 328 327
328 329 328 331 330 328 329 331 329 329 330 332 331 331 331 330 330 329 329 328 328 328 329 329 329 329 330 329 329 331 331 331 331 330 329 328 326 326 325 325 326 327 327
326 326 327 328 327 329 327 327 329 330 330 330 330 328 328 328 328 328 328 329 331 330 329 329 329 329 328 327 329 331 332 331 330 328 327 327 325 324 323 325 325 326 327
327 327 327 328 325 326 328 328 331 331 330 330 329 328 332 329 330 329 334 333 333 332 331 331 330 330 328 327 331 331 331 330 329 328 328 327 324 323 324 324 324 327 325
327 327 327 327 325 326 325 326 326 327 327 330 331 332 333 333 333 332 335 336 335 334 333 331 331 330 329 327 331 329 326 326 327 326 326 323 323 323 323 322 325 324 323
327 328 328 328 327 325 328 330 326 321 328 329 327 330 333 334 334 333 336 335 335 335 334 333 331 330 330 331 332 329 325 324 323 324 324 323 321 322 322 321 320 322 321
327 326 328 328 325 326 328 328 329 329 328 328 330 329 333 334 335 336 335 335 335 335 334 333 332 331 330 331 329 330 328 324 319 322 324 322 321 320 321 321 319 319 319
326 326 327 327 327 327 327 328 328 327 328 329 329 329 329 330 332 334 332 331 332 332 331 331 331 331 331 330 330 326 325 321 323 319 318 320 321 320 320 319 318 318 317
326 326 327 327 326 326 327 327 327 326 327 328 329 329 329 329 330 330 330 330 330 330 330 330 330 329 329 329 329 328 323 318 317 318 317 317 319 319 319 318 317 316 315

GFSSE_925_thetae_108.txt.gz
Theta_e
346 344 344 345 339 341 343 345 345 343 339 339 346 346 341 340 337 327 342 343 343 338 338 342 342 337 337 337 339 339 339 337 334 335 336 338 339 340 340 338 337 340 340
344 343 344 344 340 337 341 344 344 344 341 343 346 347 345 341 335 337 343 344 343 341 343 342 341 338 337 339 338 337 334 331 331 333 333 335 336 338 339 338 338 339 339
339 340 339 339 337 335 334 339 342 344 343 344 345 347 345 342 340 342 344 344 343 341 340 339 338 335 338 337 336 334 333 331 328 330 334 336 338 340 338 337 338 339 339
341 337 337 335 336 335 334 331 339 343 343 343 344 345 344 341 343 344 344 342 340 339 338 338 337 335 335 334 327 329 328 328 328 324 329 334 337 338 336 334 336 337 337
343 339 337 336 335 335 335 333 332 341 342 342 343 343 342 339 344 343 344 341 339 337 337 336 336 331 330 327 328 330 328 326 326 324 320 327 332 336 336 335 333 333 331
344 343 340 339 336 335 335 334 329 337 341 342 343 342 343 339 343 341 343 339 335 333 335 327 323 323 323 325 329 329 329 328 327 323 321 324 327 330 329 329 327 328 328
345 344 343 342 340 336 336 338 338 332 341 341 341 342 342 340 343 340 341 338 332 332 329 318 316 315 320 328 329 330 330 330 330 321 323 326 330 331 330 328 327 326 325
345 345 344 343 341 337 339 336 339 332 340 340 341 342 342 340 340 339 339 337 334 328 325 321 319 319 324 328 329 330 330 330 330 322 323 325 329 331 327 324 325 326 327
346 345 344 342 339 338 338 338 340 337 340 341 341 341 342 340 338 337 338 335 333 327 326 323 321 321 323 327 329 330 330 330 331 329 323 324 327 331 326 326 326 326 325
345 343 344 341 338 339 339 340 341 340 336 340 341 340 342 340 337 336 335 334 332 332 329 327 326 325 324 325 328 330 330 330 330 331 327 323 325 326 325 326 326 326 326
342 343 342 340 340 340 340 339 340 341 337 339 340 339 341 338 335 335 333 333 333 332 332 329 327 326 325 324 326 330 330 330 330 330 329 326 324 326 327 328 327 327 327
334 338 339 339 338 337 336 337 338 340 338 339 339 339 340 335 335 334 333 334 333 334 334 329 327 326 325 324 324 327 327 326 328 329 330 328 323 326 328 329 328 328 328
334 335 336 336 336 335 332 331 330 327 335 339 338 340 337 336 335 333 333 333 333 332 332 328 327 325 320 322 320 326 327 325 326 327 326 326 324 325 328 329 329 330 330
330 333 335 334 334 333 332 329 329 326 327 335 339 340 337 336 334 333 333 333 333 332 330 329 327 324 323 325 326 327 326 326 326 327 327 327 328 327 328 328 329 329 330
327 329 331 332 334 334 334 334 330 326 327 327 339 338 337 335 334 333 333 333 333 333 331 329 327 323 324 326 327 328 327 327 327 328 328 329 329 329 328 327 326 327 328
328 326 325 325 325 324 325 323 323 327 327 328 334 336 336 335 334 332 333 333 332 333 332 330 325 324 326 326 326 327 328 328 329 329 329 329 329 328 329 327 326 326 327
328 328 326 325 324 324 324 323 323 326 327 329 333 333 334 335 334 333 332 332 332 333 331 328 327 328 327 326 325 328 329 329 330 330 330 329 328 328 329 327 328 328 327
327 328 328 326 327 328 327 324 324 324 329 329 330 332 331 332 332 332 332 332 332 331 330 328 328 327 326 327 327 328 329 330 330 331 330 329 328 328 328 328 328 327 327
327 328 329 327 327 329 329 327 328 326 330 331 332 331 331 331 331 332 333 333 330 328 327 327 327 326 327 329 330 330 331 331 331 331 330 328 327 327 327 326 325 325 326
326 328 329 328 328 330 330 330 330 330 330 331 332 332 330 330 331 331 331 328 329 330 328 328 328 328 328 329 329 329 330 331 331 330 328 327 326 325 324 323 324 324 325
326 326 326 328 329 329 327 327 329 329 328 329 331 330 331 330 331 332 331 330 328 328 328 328 329 328 329 328 327 327 330 330 330 328 327 327 326 325 323 320 321 323 325
325 325 326 328 327 328 327 328 327 329 328 329 329 329 329 331 330 328 328 328 328 330 330 328 329 329 329 327 330 328 327 327 326 326 326 326 325 323 321 320 321 323 322
326 327 326 326 327 327 327 327 328 329 329 328 329 328 328 328 328 328 328 330 332 332 331 331 330 330 329 328 328 329 325 326 323 324 323 323 323 322 322 321 321 321 321
326 326 326 326 327 326 325 326 327 323 325 325 329 328 329 329 330 330 330 332 335 335 333 333 331 331 329 330 329 330 327 323 320 322 323 322 321 322 322 321 321 319 320
324 326 325 326 327 327 325 327 325 323 327 324 325 324 326 329 330 332 332 334 335 335 334 333 331 330 329 329 329 327 327 326 323 318 320 320 320 320 321 321 320 319 318
325 326 325 326 325 325 326 327 327 327 326 327 326 327 326 327 328 329 331 331 330 330 330 329 328 329 328 328 327 328 328 322 320 318 316 316 320 319 318 318 318 318 317

GFSSE_925_thetae_111.txt.gz
Theta_e
345 346 344 346 346 347 343 344 340 339 344 345 346 346 342 339 336 339 341 341 336 337 338 338 336 338 339 340 339 340 338 337 334 337 338 338 339 340 339 338 339 340 340
344 345 344 346 346 346 346 344 344 339 343 346 346 346 344 340 340 343 343 342 339 341 343 341 336 336 337 338 339 337 333 332 333 334 335 336 338 339 339 338 338 339 339
344 344 344 344 343 345 345 344 343 341 344 344 346 345 345 339 340 344 344 342 341 343 342 339 336 337 338 337 336 335 329 329 332 333 335 339 338 339 337 338 338 338 338
343 342 343 341 338 340 344 343 343 342 342 343 344 346 344 342 342 344 344 343 340 341 338 336 337 338 336 333 329 328 329 325 325 332 334 337 338 337 337 336 335 335 334
342 341 340 339 337 334 334 340 342 342 342 343 343 344 343 342 343 344 343 340 339 337 336 334 337 336 329 329 330 326 327 326 323 323 331 333 334 334 334 333 332 330 329
341 342 339 336 333 332 331 330 338 342 341 342 342 342 342 339 343 344 342 340 337 335 337 336 334 331 326 330 330 328 327 327 322 320 323 326 328 331 331 330 329 329 330
342 339 339 337 335 333 332 331 330 338 342 341 342 342 341 339 341 343 340 337 334 332 332 327 327 327 325 329 329 329 329 328 320 321 323 327 330 331 330 330 330 331 329
344 342 340 338 336 335 334 335 333 330 340 341 341 341 342 339 340 342 341 335 327 330 323 318 317 319 328 329 329 329 330 329 322 322 323 325 330 332 331 327 328 327 326
343 344 344 342 341 337 337 337 339 332 339 339 340 341 341 339 340 340 339 335 329 323 321 318 317 323 328 328 329 330 330 330 327 322 323 324 328 331 326 326 326 325 325
339 342 343 343 340 338 338 338 339 339 337 339 340 340 341 340 340 339 338 335 332 323 320 320 320 321 326 328 329 330 330 330 330 328 323 323 326 328 326 326 326 326 326
337 340 341 341 340 339 339 338 339 341 337 339 340 340 340 340 339 337 336 335 332 324 322 323 323 323 324 326 329 330 329 329 329 330 327 324 325 327 327 327 326 327 326
336 336 340 340 338 338 338 338 337 340 339 338 339 340 340 340 338 337 335 334 332 329 327 326 325 324 324 324 327 329 329 329 329 329 329 327 324 328 328 328 327 327 327
331 334 334 338 338 338 337 335 336 337 338 338 340 339 339 340 335 337 333 332 333 331 332 329 327 325 324 324 324 327 327 326 325 327 328 326 324 328 329 328 329 329 329
330 330 332 334 335 337 335 334 334 333 329 335 339 339 339 338 335 334 333 333 332 333 334 329 327 325 321 320 320 322 326 325 325 326 327 326 326 326 328 328 328 329 329
328 331 332 332 333 332 332 333 331 330 328 327 331 337 339 336 335 334 332 333 333 332 332 328 327 325 321 324 325 326 326 326 326 327 327 327 327 328 328 328 327 327 328
326 328 331 332 332 331 330 329 330 330 328 326 328 332 337 336 335 334 333 334 333 332 331 329 327 326 322 324 325 326 327 327 327 327 328 328 328 328 327 328 326 326 327
319 326 327 327 329 331 332 332 330 331 324 325 329 329 336 336 335 334 333 333 333 332 332 331 330 327 323 325 325 325 326 327 328 329 329 329 328 328 327 328 327 327 328
314 319 326 327 326 325 325 324 323 324 323 326 329 331 335 336 335 334 332 333 333 333 332 332 331 327 327 327 326 324 326 328 329 329 330 330 329 328 327 328 327 328 327
309 321 325 327 326 325 324 325 327 327 324 324 329 332 333 334 333 333 332 332 333 332 332 332 331 328 327 326 326 327 327 329 330 330 330 330 329 327 327 328 327 326 325
312 318 326 327 327 326 327 327 329 327 326 326 329 331 332 333 333 333 332 332 332 332 332 331 330 329 328 326 327 329 329 330 330 330 330 330 328 327 327 325 324 323 324
312 315 324 327 328 327 328 330 329 330 329 328 330 330 330 330 330 332 331 330 331 332 331 328 327 326 326 328 328 328 327 328 330 330 329 327 326 326 325 324 321 322 322
317 318 325 327 327 327 327 329 329 328 329 328 330 331 330 328 330 326 321 324 330 329 328 328 328 327 328 328 327 327 326 328 329 328 326 325 325 325 324 322 321 320 320
320 323 326 325 326 327 328 327 327 328 329 329 328 329 329 330 330 325 326 327 330 328 329 328 328 328 328 328 327 328 325 327 323 325 325 324 324 324 323 322 321 320 320
322 323 324 325 327 327 328 327 327 327 328 328 329 328 328 329 330 329 330 330 329 329 328 328 329 328 329 329 327 328 328 323 323 323 323 322 322 323 323 321 320 320 320
323 324 325 326 326 327 326 327 327 327 327 327 328 329 328 328 328 329 329 328 328 328 330 331 331 330 330 329 329 328 327 325 322 319 323 320 320 321 322 321 321 320 319
323 323 325 326 326 326 326 326 325 325 325 326 327 327 326 326 327 328 328 329 328 330 331 331 331 331 330 329 328 328 328 326 324 322 317 316 319 319 319 320 320 320 318

GFSSE_925_thetae_114.txt.gz
Theta_e
344 347 343 342 345 345 344 344 343 345 346 350 348 349 344 341 337 338 339 339 337 336 337 336 336 338 341 340 339 338 338 339 338 337 337 339 339 340 339 338 339 339 339
344 347 343 343 345 345 344 345 346 345 345 345 346 346 343 341 341 342 341 338 339 339 339 337 337 340 338 338 338 337 336 334 334 335 336 338 337 339 339 338 338 339 339
344 346 344 344 345 345 344 345 344 344 345 344 345 345 343 343 342 343 341 340 342 342 339 337 336 335 337 337 336 335 332 332 333 336 337 338 337 338 338 338 337 337 335
344 346 344 344 344 344 344 344 342 344 344 343 345 344 343 342 343 344 342 342 343 342 339 335 336 336 336 333 330 327 326 329 332 336 337 337 337 337 336 335 333 334 331
344 345 343 343 343 344 344 343 343 341 342 342 343 344 342 342 343 343 343 341 339 338 336 336 336 335 330 329 328 328 326 321 325 332 334 334 332 334 332 328 330 329 329
344 344 343 341 338 340 342 342 343 342 341 342 342 342 343 341 344 342 342 339 337 336 334 336 335 329 329 329 327 327 326 322 318 323 325 327 328 332 330 328 329 330 330
344 345 343 342 337 334 333 337 340 340 340 341 341 342 342 339 341 343 340 339 336 335 335 336 333 327 329 328 327 327 327 322 320 320 322 325 330 331 331 331 328 328 328
341 342 341 341 338 333 332 331 333 339 341 339 340 340 341 339 339 343 340 338 333 333 335 333 330 325 329 328 329 328 328 323 321 322 324 326 331 332 331 329 327 327 326
342 341 339 340 339 338 336 334 331 334 339 340 340 340 340 339 339 342 340 334 326 326 326 325 324 324 328 329 328 329 329 327 321 322 324 325 329 332 328 327 325 325 326
340 341 340 339 339 338 337 338 340 333 335 340 340 340 340 339 340 341 340 334 323 320 319 317 318 327 328 328 328 329 329 329 328 324 323 324 328 331 327 326 325 326 326
337 338 338 341 341 340 338 336 336 339 332 340 339 340 340 340 340 339 338 335 329 321 318 319 320 326 327 328 328 329 329 329 329 328 326 324 326 330 327 327 326 326 326
333 337 337 337 340 339 337 337 336 338 337 336 340 339 341 340 339 339 337 335 333 323 320 321 320 322 325 327 328 329 329 328 328 329 328 327 324 332 329 328 327 327 327
324 331 336 336 338 338 337 337 337 337 338 337 337 340 339 340 339 338 337 335 333 326 324 324 325 324 323 324 326 328 329 328 326 327 327 327 325 331 333 328 328 328 328
315 326 332 334 336 336 336 336 335 336 337 338 336 338 340 339 339 337 336 334 333 330 327 326 325 325 324 324 324 325 327 326 325 325 326 327 326 326 333 329 329 329 329
313 322 329 331 333 335 335 334 333 332 332 333 334 334 338 339 338 336 335 334 333 332 330 330 327 326 324 321 320 320 322 325 325 325 326 327 327 327 328 328 327 326 327
309 318 327 330 333 332 334 334 333 329 328 328 330 335 334 336 337 335 334 333 332 332 332 333 328 326 324 321 323 325 325 326 326 326 326 327 327 327 328 328 328 327 327
307 313 324 328 332 332 331 332 332 328 329 331 327 327 335 337 336 335 334 333 333 333 332 332 330 327 326 323 323 324 325 326 327 327 327 328 328 328 328 327 328 327 327
307 310 314 325 328 331 332 331 329 329 329 326 325 325 328 335 336 335 334 334 333 333 332 332 330 329 327 326 323 325 325 324 326 327 328 329 329 329 328 327 327 327 327
307 307 309 318 325 326 328 330 330 329 323 324 324 324 328 330 335 335 334 334 333 333 333 332 331 330 329 326 326 326 325 325 326 328 329 329 330 330 328 327 327 327 327
307 306 307 313 323 326 326 325 324 324 325 327 325 324 326 329 332 335 334 333 332 332 332 332 332 331 330 327 327 325 326 328 328 329 330 330 330 330 328 327 327 326 324
307 308 308 314 323 326 327 327 326 326 329 329 326 326 327 329 331 334 333 332 331 332 330 332 332 332 330 328 326 326 327 328 328 328 329 330 330 329 327 327 325 324 321
308 308 310 315 318 325 326 328 326 327 327 329 328 327 329 329 330 332 332 330 329 330 329 329 330 330 328 327 326 325 324 326 328 328 329 329 328 326 325 325 324 321 319
309 309 313 317 319 325 327 327 325 327 328 328 328 328 328 328 331 331 330 326 323 322 323 322 327 329 327 326 326 327 324 326 323 325 327 327 325 325 325 324 323 320 319
310 311 315 319 323 327 327 326 326 327 327 327 328 328 329 330 330 329 329 327 321 320 321 323 327 328 328 327 326 326 327 324 323 324 323 324 324 324 324 324 322 321 320
316 318 319 321 325 324 325 325 326 327 327 327 328 329 328 328 329 329 328 323 323 320 321 327 327 328 327 327 328 327 326 326 322 319 322 321 322 323 323 323 322 321 321
318 320 321 322 324 324 326 326 327 327 326 326 327 328 328 328 328 328 327 328 328 327 325 326 326 327 329 328 328 328 328 326 324 323 320 320 322 323 322 321 322 321 321

GFSSE_925_thetae_117.txt.gz
Theta_e
344 347 344 344 343 342 339 344 345 343 344 347 347 346 347 345 341 340 339 338 336 337 339 341 342 342 341 340 340 339 339 340 337 337 338 339 340 340 339 338 339 340 339
344 347 343 344 344 344 340 344 346 345 346 346 345 345 347 341 340 340 340 339 337 338 337 336 339 341 340 339 337 337 337 335 335 336 337 338 338 339 339 338 339 339 337
344 347 346 344 345 343 343 342 344 344 344 345 345 345 344 342 341 342 340 340 338 339 337 339 339 336 337 336 336 336 332 333 335 336 337 339 340 339 338 336 336 336 333
345 348 347 342 345 344 343 343 344 344 343 343 344 343 343 343 343 342 340 342 343 340 336 336 334 335 336 336 330 329 330 332 337 337 337 337 337 337 336 334 331 329 330
345 347 344 343 345 344 343 343 343 343 343 342 344 342 342 342 343 343 340 343 341 337 334 335 335 335 331 329 327 322 322 329 333 335 334 334 334 334 331 328 330 331 330
345 346 344 343 343 344 344 343 341 342 343 342 342 342 341 340 342 341 342 340 338 337 334 335 334 330 329 328 328 326 322 319 326 331 328 330 331 332 330 329 330 330 331
345 345 344 342 342 343 343 342 342 340 340 341 341 342 342 339 339 341 341 338 336 335 334 335 332 329 328 327 327 325 323 318 319 320 322 325 331 332 332 330 331 331 331
344 342 342 342 340 339 341 342 342 342 340 341 341 341 341 340 339 340 340 338 335 334 334 335 330 329 328 327 326 327 322 319 320 321 323 327 331 333 331 328 327 327 328
343 340 338 340 340 337 335 334 338 340 341 340 340 341 341 340 339 340 339 338 333 333 336 335 329 327 328 328 328 328 325 320 322 323 324 328 330 333 328 327 326 326 327
341 342 340 338 338 337 337 334 333 333 339 340 340 340 340 340 339 339 340 338 330 327 331 329 328 326 328 328 328 328 328 325 323 322 323 326 329 333 329 326 326 326 326
334 338 341 340 338 336 335 335 335 335 330 335 340 339 340 340 339 339 340 338 328 321 323 323 324 326 328 328 328 328 329 328 328 325 323 324 327 333 329 327 326 326 326
312 326 334 338 339 339 339 338 336 335 335 333 340 338 340 340 339 339 340 337 332 321 319 320 321 327 328 327 328 329 329 328 327 328 328 326 325 333 332 328 327 326 327
307 311 325 334 336 338 338 338 336 334 333 333 337 339 339 340 339 339 339 337 335 328 328 326 327 330 327 327 327 328 328 328 327 328 328 328 326 328 334 330 328 328 328
307 308 317 329 334 336 337 337 337 335 335 337 335 337 339 340 340 340 338 337 335 334 326 327 330 325 325 325 325 327 328 328 326 324 325 327 326 326 332 334 330 329 330
306 307 310 325 332 334 336 336 336 335 335 337 337 336 336 338 339 339 338 337 335 334 330 325 326 327 326 325 324 324 325 326 325 324 324 326 327 327 327 329 329 327 327
306 306 308 318 329 332 334 335 333 333 335 336 337 337 337 337 337 336 338 336 335 333 332 328 327 327 327 325 323 320 320 321 324 325 325 325 326 327 327 328 328 330 330
306 306 306 311 325 330 333 334 333 332 330 329 328 331 336 337 337 336 336 336 334 333 332 331 331 331 328 325 322 322 324 324 325 326 326 325 327 327 327 327 327 328 329
307 306 306 311 320 329 332 332 332 331 330 329 329 331 328 328 335 337 335 335 334 333 332 331 333 333 329 327 325 322 323 324 325 325 326 327 328 328 328 328 327 327 327
307 306 306 307 313 323 329 331 331 329 329 328 328 324 323 324 327 335 336 334 333 333 333 332 332 331 330 328 327 324 323 325 324 324 326 327 328 329 329 329 328 327 327
307 306 306 306 307 314 323 328 330 330 330 329 327 324 325 325 326 329 334 334 333 333 333 333 332 329 330 330 329 326 326 325 325 326 326 328 329 329 329 329 328 327 327
306 306 306 306 306 309 322 324 324 325 325 324 324 324 326 327 328 329 331 333 333 332 332 332 331 328 329 330 329 327 327 325 326 327 328 329 329 330 330 330 327 327 326
306 306 306 306 308 309 320 325 325 325 325 325 325 327 328 327 328 328 330 332 333 332 332 331 330 328 328 328 328 325 328 327 327 327 328 327 328 329 329 328 327 326 324
308 307 306 307 308 312 321 325 325 326 326 327 327 328 327 327 327 328 328 329 331 331 330 330 325 327 326 325 326 327 329 330 325 326 326 326 327 327 327 326 325 325 323
309 308 308 308 310 314 320 323 325 325 326 327 327 326 327 328 328 328 327 328 330 330 330 327 324 325 326 325 325 325 326 326 328 328 323 325 325 325 326 325 325 325 324
312 310 309 309 314 317 321 323 325 324 324 325 326 327 327 328 328 327 327 327 329 326 326 326 326 323 320 321 323 325 325 325 324 322 328 325 324 325 326 325 324 325 324
316 316 316 318 318 321 322 325 323 324 324 324 327 328 327 328 328 328 327 329 329 326 321 321 321 321 323 321 322 323 325 325 324 322 323 325 325 325 325 324 323 323 324